[[{"header":{"parameterUnit":"m.s-1","parameterCategory":1,"la1":31.0,"la2":29.5877,"lo1":-88.7671,"lo2":-86.6584,"dy":0.0162,"dx":0.0185,"nx":115,"ny":88,"refTime":"2023-07-01T00:00:00:Z","depth":0,"parameterNumber":2,"parameterNumberName":"U-component_of_WINDS"},"data":[0.0,0.0,0.0,0.0,0.0,0.0,0.0,0.0,0.0,0.0,0.0,0.0,0.0,0.0,0.0,0.0,0.0,0.0,0.0,0.0,0.0,0.0,0.0,0.0,0.0,0.0,0.0,0.0,0.0,0.0,0.0,0.0,0.0,0.0,0.0,0.0,0.0,0.0,0.0,0.0,0.0,0.0,0.0,0.0,0.0,0.0,0.0,0.0,0.0,0.0,0.0,0.0,0.0,0.0,0.0,0.0,0.0,0.0,0.0,0.0,0.0,0.0,0.0,0.0,0.0,0.0,0.0,0.0,0.0,0.0,0.0,0.0,0.0,0.0,0.0,0.0,0.0,0.0,0.0,0.0,0.0,0.0,0.0,0.0,0.0,0.0,0.0,0.0,0.0,0.0,0.0,0.0,0.0,0.0,0.0,0.0,0.0,0.0,0.0,0.0,0.0,0.0,0.0,0.0,0.0,0.0,0.0,0.0,0.0,0.0,0.0,0.0,0.0,0.0,0.0,0.0,0.0,0.0,0.0,0.0,0.0,0.0,0.0,0.0,0.0,0.0,0.0,0.0,0.0,0.0,0.0,0.0,0.0,0.0,0.0,0.0,0.0,0.0,0.0,0.0,0.0,0.0,0.0,0.0,0.0,0.0,0.0,0.0,0.0,0.0,0.0,0.0,0.0,0.0,0.0,0.0,0.0,0.0,0.0,0.0,0.0,0.0,0.0,0.0,0.0,0.0,0.0,0.0,0.0,0.0,0.0,0.0,0.0,0.0,0.0,0.0,0.0,0.0,0.0,0.0,0.0,0.0,0.0,0.0,0.0,0.0,0.0,0.0,0.0,0.0,0.0,0.0,0.0,0.0,0.0,0.0,0.0,0.0,0.0,0.0,0.0,0.0,0.0,0.0,0.0,0.0,0.0,0.0,0.0,0.0,0.0,0.0,0.0,0.0,0.0,0.0,0.0,0.0,0.0,0.0,0.0,0.0,0.0,0.0,0.0,0.0,0.0,0.0,0.0,0.0,0.0,0.0,0.0,0.0,0.0,0.0,0.0,0.0,0.0,0.0,0.0,0.0,0.0,0.0,0.0,0.0,0.0,0.0,0.0,0.0,0.0,0.0,0.0,0.0,0.0,0.0,0.0,0.0,0.0,0.0,0.0,0.0,0.0,0.0,0.0,0.0,0.0,0.0,0.0,0.0,0.0,0.0,0.0,0.0,0.0,0.0,0.0,0.0,0.0,0.0,0.0,0.0,0.0,0.0,0.0,0.0,0.0,0.0,0.0,0.0,0.0,0.0,0.0,0.0,0.0,0.0,0.0,0.0,0.0,0.0,0.0,0.0,0.0,0.0,0.0,0.0,0.0,0.0,0.0,0.0,0.0,0.0,0.0,0.0,0.0,0.0,0.0,0.0,0.0,0.0,0.0,0.0,0.0,0.0,0.0,0.0,0.0,0.0,0.0,0.0,0.0,0.0,0.0,0.0,0.0,0.0,0.0,0.0,0.0,0.0,0.0,0.0,0.0,0.0,0.0,0.0,0.0,0.0,0.0,0.0,0.0,0.0,0.0,0.0,0.0,0.0,0.0,0.0,0.0,0.0,0.0,0.0,0.0,0.0,0.0,0.0,0.0,0.0,0.0,0.0,0.0,0.0,0.0,0.0,0.0,0.0,0.0,0.0,0.0,0.0,0.0,0.0,0.0,0.0,0.0,0.0,0.0,0.0,0.0,0.0,0.0,0.0,0.0,0.0,0.0,0.0,0.0,0.0,0.0,0.0,0.0,0.0,0.0,0.0,0.0,0.0,0.0,0.0,0.0,0.0,0.0,0.0,0.0,0.0,0.0,0.0,0.0,0.0,0.0,0.0,0.0,0.0,0.0,0.0,0.0,0.0,0.0,0.0,0.0,0.0,0.0,0.0,0.0,0.0,0.0,0.0,0.0,0.0,0.0,0.0,0.0,0.0,0.0,0.0,0.0,0.0,0.0,0.0,0.0,0.0,0.0,0.0,0.0,0.0,0.0,0.0,0.0,0.0,0.0,0.0,0.0,0.0,0.0,0.0,0.0,0.0,0.0,0.0,0.0,0.0,0.0,0.0,0.0,0.0,0.0,0.0,0.0,0.0,0.0,0.0,0.0,0.0,0.0,0.0,0.0,0.0,0.0,0.0,0.0,0.0,0.0,0.0,0.0,0.0,0.0,0.0,0.0,0.0,0.0,0.0,0.0,0.0,0.0,0.0,0.0,0.0,0.0,0.0,0.0,0.0,0.0,0.0,0.0,0.0,0.0,0.0,0.0,0.0,0.0,0.0,0.0,0.0,0.0,0.0,0.0,0.0,0.0,0.0,0.0,0.0,0.0,0.0,0.0,0.0,0.0,0.0,0.0,0.0,0.0,0.0,0.0,0.0,0.0,0.0,0.0,0.0,0.0,0.0,0.0,0.0,0.0,0.0,0.0,0.0,0.0,0.0,0.0,0.0,0.0,0.0,0.0,0.0,0.0,0.0,0.0,0.0,0.0,0.0,0.0,0.0,0.0,0.0,0.0,0.0,0.0,0.0,0.0,0.0,0.0,0.0,0.0,0.0,0.0,0.0,0.0,0.0,0.0,0.0,0.0,0.0,0.0,0.0,0.0,0.0,0.0,0.0,0.0,0.0,0.0,0.0,0.0,0.0,0.0,0.0,0.0,0.0,0.0,0.0,0.0,0.0,0.0,0.0,0.0,0.0,0.0,0.0,0.0,0.0,0.0,0.0,0.0,0.0,0.0,0.0,0.0,0.0,0.0,0.0,0.0,0.0,0.0,0.0,0.0,0.0,0.0,0.0,0.0,0.0,0.0,0.0,0.0,0.0,0.0,0.0,0.0,0.0,0.0,0.0,0.0,0.0,0.0,0.0,0.0,0.0,0.0,0.0,0.0,0.0,0.0,0.0,0.0,0.0,0.0,0.0,0.0,0.0,0.0,0.0,0.0,0.0,0.0,0.0,0.0,0.0,0.0,0.0,0.0,0.0,0.0,0.0,0.0,0.0,0.0,0.0,0.0,0.0,0.0,0.0,0.0,0.0,0.0,0.0,0.0,0.0,0.0,0.0,0.0,0.0,0.0,0.0,0.0,0.0,0.0,0.0,0.0,0.0,0.0,0.0,0.0,0.0,0.0,0.0,0.0,0.0,0.0,0.0,0.0,0.0,0.0,0.0,0.0,0.0,0.0,0.0,0.0,0.0,0.0,0.0,0.0,0.0,0.0,0.0,0.0,0.0,0.0,0.0,0.0,0.0,0.0,0.0,0.0,0.0,0.0,0.0,0.0,0.0,0.0,0.0,0.0,0.0,0.0,0.0,0.0,0.0,0.0,0.0,0.0,0.0,0.0,0.0,0.0,0.0,0.0,0.0,0.0,0.0,0.0,0.0,0.0,0.0,0.0,0.0,0.0,0.0,0.0,0.0,0.0,0.0,0.0,0.0,0.0,0.0,0.0,0.0,0.0,0.0,0.0,0.0,0.0,0.0,0.0,0.0,0.0,0.0,0.0,0.0,0.0,0.0,0.0,0.0,0.0,0.0,0.0,0.0,0.0,0.0,0.0,0.0,0.0,0.0,0.0,0.0,0.0,0.0,0.0,0.0,0.0,0.0,0.0,0.0,0.0,0.0,0.0,0.0,0.0,0.0,0.0,0.0,0.0,0.0,0.0,0.0,0.0,0.0,0.0,0.0,0.0,0.0,0.0,0.0,0.0,0.0,0.0,0.0,0.0,0.0,0.0,0.0,0.0,0.0,0.0,0.0,0.0,0.0,0.0,0.0,0.0,0.0,0.0,0.0,0.0,0.0,0.0,0.0,0.0,0.0,0.0,0.0,0.0,0.0,0.0,0.0,0.0,0.0,0.0,0.0,0.0,0.0,0.0,0.0,0.0,0.0,0.0,0.0,0.0,0.0,0.0,0.0,0.0,0.0,0.0,0.0,0.0,0.0,0.0,0.0,0.0,0.0,0.0,0.0,0.0,0.0,0.0,0.0,0.0,0.0,0.0,0.0,0.0,0.0,0.0,0.0,0.0,0.0,0.0,0.0,0.0,0.0,0.0,0.0,0.0,0.0,0.0,0.0,0.0,0.0,0.0,0.0,0.0,0.0,0.0,0.0,0.0,0.0,0.0,0.0,0.0,0.0,0.0,0.0,0.0,0.0,0.0,0.0,0.0,0.0,0.0,0.0,0.0,0.0,0.0,0.0,0.0,0.0,0.0,0.0,0.0,0.0,0.0,0.0,0.0,0.0,0.0,0.0,0.0,0.0,-1.2588,0.0,0.0,0.0,0.0,0.0,0.0,0.0,0.0,0.0,0.0,0.0,0.0,0.0,0.0,0.0,0.0,0.0,0.0,0.0,0.0,0.0,0.0,0.0,0.0,0.0,0.0,0.0,0.0,0.0,0.0,0.0,0.0,0.0,0.0,0.0,0.0,0.0,0.0,0.0,0.0,0.0,0.0,0.0,0.0,0.0,0.0,0.0,0.0,0.0,0.0,0.0,0.0,0.0,0.0,0.0,0.0,0.0,0.0,0.0,0.0,0.0,0.0,0.0,0.0,0.0,0.0,0.0,0.0,0.0,0.0,0.0,0.0,0.0,0.0,0.0,0.0,0.0,0.0,0.0,0.0,0.0,0.0,0.0,0.0,0.0,0.0,0.0,0.0,0.0,0.0,0.0,0.0,0.0,0.0,0.0,0.0,0.0,0.0,0.0,0.0,0.0,0.0,0.0,0.0,0.0,0.0,0.0,0.0,0.0,0.0,-1.4223,-1.4363,-1.4083,-1.3747,-1.3381,0.0,0.0,0.0,0.0,0.0,0.0,0.0,0.0,0.0,0.0,0.0,0.0,0.0,0.0,0.0,0.0,0.0,0.0,0.0,0.0,0.0,0.0,0.0,0.0,0.0,0.0,0.0,0.0,0.0,0.0,0.0,0.0,0.0,0.0,0.0,0.0,0.0,0.0,0.0,0.0,0.0,0.0,0.0,0.0,0.0,0.0,0.0,0.0,0.0,0.0,0.0,0.0,0.0,0.0,0.0,0.0,0.0,0.0,0.0,0.0,0.0,0.0,0.0,0.0,0.0,0.0,0.0,0.0,0.0,0.0,0.0,0.0,0.0,0.0,0.0,0.0,0.0,0.0,0.0,0.0,0.0,0.0,0.0,0.0,0.0,0.0,0.0,0.0,0.0,0.0,0.0,0.0,0.0,0.0,0.0,0.0,0.0,0.0,0.0,0.0,0.0,0.0,0.0,0.0,0.0,0.0,0.0,0.0,0.0,0.0,0.0,0.0,-1.5237,-1.4809,-1.4117,0.0,0.0,0.0,0.0,0.0,0.0,0.0,0.0,0.0,0.0,0.0,0.0,0.0,0.0,0.0,0.0,0.0,0.0,0.0,0.0,0.0,0.0,0.0,0.0,0.0,0.0,0.0,0.0,0.0,0.0,0.0,0.0,0.0,0.0,0.0,0.0,0.0,0.0,0.0,0.0,0.0,0.0,0.0,0.0,0.0,0.0,0.0,0.0,0.0,0.0,0.0,0.0,0.0,0.0,0.0,0.0,0.0,0.0,0.0,0.0,0.0,0.0,0.0,0.0,0.0,0.0,0.0,0.0,0.0,0.0,0.0,0.0,0.0,0.0,0.0,0.0,0.0,0.0,0.0,0.0,0.0,0.0,0.0,0.0,0.0,0.0,0.0,0.0,0.0,0.0,0.0,0.0,0.0,0.0,0.0,0.0,0.0,0.0,0.0,0.0,0.0,0.0,0.0,0.0,0.0,0.0,0.0,0.0,0.0,0.0,-1.621,-1.626,-1.563,0.0,-1.4304,0.0,0.0,0.0,0.0,0.0,0.0,0.0,0.0,0.0,0.0,0.0,0.0,0.0,0.0,0.0,0.0,0.0,0.0,0.0,0.0,0.0,0.0,0.0,0.0,0.0,0.0,0.0,0.0,0.0,0.0,0.0,0.0,0.0,0.0,0.0,0.0,0.0,0.0,0.0,0.0,0.0,0.0,0.0,0.0,0.0,0.0,0.0,0.0,0.0,0.0,0.0,0.0,0.0,0.0,0.0,0.0,0.0,0.0,0.0,0.0,0.0,0.0,0.0,0.0,0.0,0.0,0.0,0.0,0.0,0.0,0.0,0.0,0.0,0.0,0.0,0.0,0.0,0.0,0.0,0.0,0.0,0.0,0.0,0.0,0.0,0.0,0.0,0.0,0.0,0.0,0.0,0.0,0.0,0.0,0.0,0.0,0.0,0.0,0.0,0.0,0.0,0.0,0.0,0.0,0.0,0.0,0.0,0.0,0.0,0.0,-1.7069,-1.7166,-1.6457,-1.5927,0.0,0.0,0.0,0.0,0.0,0.0,0.0,0.0,0.0,0.0,0.0,0.0,0.0,0.0,0.0,0.0,0.0,0.0,0.0,0.0,0.0,0.0,0.0,0.0,0.0,0.0,0.0,0.0,0.0,0.0,0.0,0.0,0.0,0.0,0.0,0.0,0.0,0.0,0.0,0.0,0.0,0.0,0.0,0.0,0.0,0.0,0.0,0.0,0.0,0.0,0.0,0.0,0.0,0.0,0.0,0.0,0.0,0.0,0.0,0.0,0.0,0.0,0.0,0.0,0.0,0.0,0.0,0.0,0.0,0.0,0.0,0.0,0.0,0.0,0.0,0.0,0.0,0.0,0.0,0.0,0.0,0.0,0.0,0.0,0.0,0.0,0.0,0.0,0.0,0.0,0.0,0.0,0.0,0.0,0.0,0.0,0.0,0.0,0.0,0.0,0.0,0.0,0.0,0.0,0.0,0.0,0.0,0.0,0.0,0.0,-1.7595,-1.7681,-1.7738,-1.7248,-1.6882,-1.6686,0.0,0.0,0.0,0.0,0.0,0.0,0.0,0.0,0.0,0.0,0.0,0.0,0.0,0.0,0.0,0.0,0.0,0.0,0.0,0.0,0.0,0.0,0.0,0.0,0.0,0.0,0.0,0.0,0.0,0.0,0.0,0.0,0.0,0.0,0.0,0.0,0.0,0.0,0.0,0.0,0.0,0.0,0.0,0.0,0.0,0.0,0.0,0.0,0.0,0.0,0.0,0.0,0.0,0.0,0.0,0.0,0.0,0.0,0.0,0.0,0.0,0.0,0.0,0.0,0.0,0.0,0.0,0.0,0.0,0.0,0.0,0.0,0.0,0.0,0.0,0.0,0.0,0.0,0.0,0.0,0.0,0.0,0.0,0.0,0.0,0.0,0.0,0.0,0.0,0.0,0.0,0.0,0.0,0.0,0.0,0.0,0.0,0.0,0.0,0.0,0.0,0.0,0.0,0.0,0.0,0.0,0.0,0.0,-1.7584,-1.7749,-1.7905,-1.7921,-1.7888,-1.7509,0.0,0.0,0.0,0.0,0.0,0.0,0.0,0.0,0.0,0.0,0.0,0.0,0.0,0.0,0.0,0.0,0.0,0.0,0.0,0.0,0.0,0.0,0.0,0.0,0.0,0.0,0.0,0.0,0.0,0.0,0.0,0.0,0.0,0.0,0.0,0.0,0.0,0.0,0.0,0.0,0.0,0.0,0.0,0.0,0.0,0.0,0.0,0.0,0.0,0.0,0.0,0.0,0.0,0.0,0.0,0.0,0.0,0.0,0.0,0.0,0.0,0.0,0.0,0.0,0.0,0.0,0.0,0.0,0.0,0.0,0.0,0.0,0.0,0.0,0.0,0.0,0.0,0.0,0.0,0.0,0.0,0.0,0.0,0.0,0.0,0.0,0.0,0.0,0.0,0.0,0.0,0.0,0.0,0.0,0.0,0.0,0.0,0.0,0.0,0.0,0.0,0.0,0.0,0.0,0.0,0.0,0.0,0.0,0.0,-1.697,-1.6654,-1.6499,-1.653,-1.6952,-1.7078,0.0,0.0,0.0,0.0,0.0,0.0,0.0,0.0,0.0,0.0,0.0,0.0,0.0,0.0,0.0,0.0,0.0,0.0,0.0,0.0,0.0,0.0,0.0,0.0,0.0,0.0,0.0,0.0,0.0,0.0,0.0,0.0,0.0,0.0,0.0,0.0,0.0,0.0,0.0,0.0,0.0,0.0,0.0,0.0,0.0,0.0,0.0,0.0,0.0,0.0,0.0,0.0,0.0,0.0,0.0,0.0,0.0,0.0,0.0,0.0,0.0,0.0,0.0,0.0,0.0,0.0,0.0,0.0,0.0,0.0,0.0,0.0,0.0,0.0,0.0,0.0,0.0,0.0,0.0,0.0,0.0,0.0,0.0,0.0,0.0,0.0,0.0,0.0,0.0,0.0,0.0,0.0,0.0,0.0,0.0,0.0,0.0,0.0,0.0,0.0,0.0,0.0,0.0,0.0,0.0,0.0,0.0,0.0,0.0,-1.669,0.0,-1.5721,-1.5794,-1.6236,-1.6598,0.0,0.0,0.0,0.0,0.0,0.0,0.0,0.0,0.0,0.0,0.0,0.0,0.0,0.0,0.0,0.0,0.0,0.0,0.0,0.0,0.0,0.0,0.0,0.0,0.0,0.0,0.0,0.0,0.0,0.0,0.0,0.0,0.0,0.0,0.0,0.0,0.0,0.0,0.0,0.0,0.0,0.0,0.0,0.0,0.0,0.0,0.0,0.0,0.0,0.0,0.0,0.0,0.0,0.0,0.0,0.0,0.0,0.0,0.0,0.0,0.0,0.0,0.0,0.0,0.0,0.0,0.0,0.0,0.0,0.0,0.0,0.0,0.0,0.0,0.0,0.0,0.0,0.0,0.0,0.0,0.0,0.0,0.0,0.0,0.0,0.0,0.0,0.0,0.0,0.0,0.0,0.0,0.0,0.0,0.0,0.0,0.0,0.0,0.0,0.0,0.0,0.0,0.0,0.0,0.0,0.0,0.0,0.0,-1.7388,-1.6857,-1.6057,-1.566,-1.5855,-1.5801,-1.613,0.0,0.0,0.0,0.0,0.0,0.0,0.0,0.0,0.0,0.0,0.0,0.0,0.0,0.0,0.0,0.0,0.0,0.0,0.0,0.0,0.0,0.0,0.0,0.0,0.0,0.0,0.0,0.0,0.0,0.0,0.0,0.0,0.0,0.0,0.0,0.0,0.0,0.0,0.0,0.0,0.0,0.0,0.0,0.0,0.0,0.0,0.0,0.0,0.0,0.0,0.0,0.0,0.0,0.0,0.0,0.0,0.0,0.0,0.0,0.0,0.0,0.0,0.0,0.0,0.0,0.0,0.0,0.0,0.0,0.0,0.0,0.0,0.0,0.0,0.0,0.0,0.0,0.0,0.0,0.0,0.0,0.0,0.0,0.0,0.0,0.0,0.0,0.0,0.0,0.0,0.0,0.0,0.0,0.0,0.0,0.0,0.0,0.0,0.0,0.0,0.0,0.0,0.0,0.0,0.0,0.0,0.0,0.0,0.0,-1.5333,-1.4676,-1.4338,-1.4407,-1.4813,-1.5378,0.0,0.0,0.0,0.0,0.0,0.0,0.0,0.0,0.0,0.0,0.0,0.0,0.0,0.0,0.0,0.0,0.0,0.0,0.0,0.0,0.0,0.0,0.0,0.0,0.0,0.0,0.0,0.0,0.0,0.0,0.0,0.0,0.0,0.0,0.0,0.0,0.0,0.0,0.0,0.0,0.0,0.0,0.0,0.0,0.0,0.0,0.0,0.0,0.0,0.0,0.0,0.0,0.0,0.0,0.0,0.0,0.0,0.0,0.0,0.0,0.0,0.0,0.0,0.0,0.0,0.0,0.0,0.0,0.0,0.0,0.0,0.0,0.0,0.0,0.0,0.0,0.0,0.0,0.0,0.0,0.0,0.0,0.0,0.0,0.0,0.0,0.0,0.0,0.0,0.0,0.0,0.0,0.0,0.0,0.0,0.0,0.0,0.0,0.0,0.0,0.0,0.0,0.0,0.0,0.0,0.0,0.0,0.0,0.0,-1.5697,-1.5287,-1.5093,-1.5127,-1.5201,-1.5565,-1.6194,0.0,0.0,0.0,0.0,0.0,0.0,0.0,0.0,0.0,0.0,0.0,0.0,0.0,0.0,0.0,0.0,0.0,0.0,0.0,0.0,0.0,0.0,0.0,0.0,0.0,0.0,0.0,0.0,0.0,0.0,0.0,0.0,0.0,0.0,0.0,0.0,0.0,0.0,0.0,0.0,0.0,0.0,0.0,0.0,0.0,0.0,0.0,0.0,0.0,0.0,0.0,0.0,0.0,0.0,0.0,0.0,0.0,0.0,0.0,0.0,0.0,0.0,0.0,0.0,0.0,0.0,0.0,0.0,0.0,0.0,0.0,0.0,0.0,0.0,0.0,0.0,0.0,0.0,0.0,0.0,0.0,0.0,0.0,0.0,0.0,0.0,0.0,0.0,0.0,0.0,0.0,0.0,0.0,0.0,0.0,0.0,0.0,0.0,0.0,0.0,0.0,0.0,0.0,0.0,0.0,0.0,0.0,0.0,-1.7666,-1.7675,-1.763,-1.7515,-1.6712,-1.6554,0.0,0.0,0.0,0.0,0.0,0.0,0.0,0.0,0.0,0.0,0.0,0.0,0.0,0.0,0.0,0.0,0.0,0.0,0.0,0.0,0.0,0.0,0.0,0.0,0.0,0.0,0.0,0.0,0.0,0.0,0.0,0.0,0.0,0.0,0.0,0.0,0.0,0.0,0.0,0.0,0.0,0.0,0.0,0.0,0.0,0.0,0.0,0.0,0.0,0.0,0.0,0.0,0.0,0.0,0.0,0.0,0.0,0.0,0.0,0.0,0.0,0.0,0.0,0.0,0.0,0.0,0.0,0.0,0.0,0.0,0.0,0.0,0.0,0.0,0.0,0.0,0.0,0.0,0.0,0.0,0.0,0.0,0.0,0.0,0.0,0.0,0.0,0.0,0.0,0.0,0.0,0.0,0.0,0.0,0.0,0.0,0.0,0.0,0.0,0.0,0.0,0.0,0.0,0.0,0.0,0.0,0.0,0.0,0.0,-1.9462,-2.0631,-2.034,-1.8529,-1.7577,-1.7388,0.0,0.0,0.0,0.0,0.0,0.0,0.0,0.0,0.0,0.0,0.0,0.0,0.0,0.0,0.0,0.0,0.0,0.0,0.0,0.0,0.0,0.0,0.0,0.0,0.0,0.0,0.0,0.0,0.0,0.0,0.0,0.0,0.0,0.0,0.0,0.0,0.0,0.0,0.0,0.0,0.0,0.0,0.0,0.0,0.0,0.0,0.0,0.0,0.0,0.0,0.0,0.0,0.0,0.0,0.0,0.0,0.0,0.0,0.0,0.0,0.0,0.0,0.0,0.0,0.0,0.0,0.0,0.0,0.0,0.0,0.0,0.0,0.0,0.0,0.0,0.0,0.0,0.0,0.0,0.0,0.0,0.0,0.0,0.0,0.0,0.0,0.0,0.0,0.0,0.0,0.0,0.0,0.0,0.0,0.0,0.0,0.0,0.0,0.0,0.0,0.0,0.0,0.0,0.0,0.0,0.0,0.0,0.0,-1.9354,-2.068,-2.2271,-2.2413,-2.0937,-1.9624,-1.89,0.0,0.0,0.0,0.0,0.0,0.0,0.0,0.0,0.0,0.0,0.0,0.0,0.0,0.0,0.0,0.0,0.0,0.0,0.0,0.0,0.0,0.0,0.0,0.0,0.0,0.0,0.0,0.0,0.0,0.0,0.0,0.0,0.0,0.0,0.0,0.0,0.0,0.0,0.0,0.0,0.0,0.0,0.0,0.0,0.0,0.0,0.0,0.0,0.0,0.0,0.0,0.0,0.0,0.0,0.0,0.0,0.0,0.0,0.0,0.0,0.0,0.0,0.0,0.0,0.0,0.0,0.0,0.0,0.0,0.0,0.0,0.0,0.0,0.0,0.0,0.0,0.0,0.0,0.0,0.0,0.0,0.0,0.0,0.0,0.0,0.0,0.0,0.0,0.0,0.0,0.0,0.0,0.0,0.0,0.0,0.0,0.0,0.0,0.0,0.0,0.0,0.0,0.0,0.0,0.0,0.0,0.0,0.0,-2.0579,-2.1538,-2.3025,-2.3795,-2.3749,-2.1992,-2.0628,0.0,0.0,0.0,0.0,0.0,0.0,0.0,0.0,0.0,0.0,0.0,0.0,0.0,0.0,0.0,0.0,0.0,0.0,0.0,0.0,0.0,0.0,0.0,0.0,0.0,0.0,0.0,0.0,0.0,0.0,0.0,0.0,0.0,0.0,0.0,0.0,0.0,0.0,0.0,0.0,0.0,0.0,0.0,0.0,0.0,0.0,0.0,0.0,0.0,0.0,0.0,0.0,0.0,0.0,0.0,0.0,0.0,0.0,0.0,0.0,0.0,0.0,0.0,0.0,0.0,0.0,0.0,0.0,0.0,0.0,0.0,0.0,0.0,0.0,0.0,0.0,0.0,0.0,0.0,0.0,0.0,0.0,0.0,0.0,0.0,0.0,0.0,0.0,0.0,0.0,0.0,0.0,0.0,0.0,0.0,0.0,0.0,0.0,0.0,0.0,0.0,0.0,0.0,0.0,0.0,0.0,0.0,0.0,-2.0867,-2.2399,-2.3343,-2.3795,-2.3777,-2.1974,-2.0898,0.0,0.0,0.0,0.0,0.0,0.0,0.0,0.0,0.0,0.0,0.0,0.0,0.0,0.0,0.0,0.0,0.0,0.0,0.0,0.0,0.0,0.0,0.0,0.0,0.0,0.0,0.0,0.0,0.0,0.0,0.0,0.0,0.0,0.0,0.0,0.0,0.0,0.0,0.0,0.0,0.0,0.0,0.0,0.0,0.0,0.0,0.0,0.0,-1.7178,0.0,0.0,0.0,0.0,0.0,0.0,0.0,0.0,0.0,0.0,0.0,0.0,0.0,0.0,0.0,0.0,0.0,0.0,0.0,0.0,0.0,0.0,0.0,0.0,0.0,0.0,0.0,0.0,0.0,0.0,0.0,0.0,0.0,0.0,0.0,0.0,0.0,0.0,0.0,0.0,0.0,0.0,0.0,0.0,0.0,0.0,0.0,0.0,0.0,0.0,0.0,0.0,0.0,0.0,0.0,0.0,0.0,0.0,0.0,-2.1327,-2.2671,-2.3415,-2.3795,-2.3749,-2.2395,-2.1462,0.0,0.0,0.0,0.0,0.0,0.0,0.0,0.0,0.0,0.0,0.0,0.0,0.0,0.0,0.0,0.0,0.0,0.0,0.0,0.0,0.0,0.0,0.0,0.0,0.0,0.0,0.0,0.0,0.0,0.0,0.0,0.0,0.0,0.0,0.0,0.0,0.0,0.0,0.0,0.0,0.0,0.0,0.0,0.0,0.0,0.0,0.0,0.0,0.0,0.0,0.0,0.0,0.0,0.0,0.0,0.0,0.0,0.0,0.0,0.0,0.0,0.0,0.0,0.0,0.0,0.0,0.0,0.0,0.0,0.0,0.0,0.0,0.0,0.0,0.0,0.0,0.0,0.0,0.0,0.0,0.0,0.0,0.0,0.0,0.0,0.0,0.0,0.0,0.0,0.0,0.0,0.0,0.0,0.0,0.0,0.0,0.0,0.0,0.0,0.0,0.0,0.0,0.0,0.0,0.0,0.0,0.0,-2.0182,-2.1824,-2.2843,-2.3487,-2.3795,-2.3795,-2.2903,-2.1967,-2.1032,0.0,0.0,0.0,0.0,0.0,0.0,0.0,0.0,0.0,0.0,0.0,0.0,0.0,0.0,0.0,0.0,0.0,0.0,0.0,0.0,0.0,0.0,0.0,0.0,0.0,0.0,0.0,0.0,0.0,0.0,0.0,0.0,0.0,0.0,0.0,0.0,0.0,0.0,-1.7859,-1.8049,0.0,0.0,0.0,0.0,0.0,0.0,0.0,0.0,-1.7125,0.0,0.0,0.0,0.0,0.0,0.0,0.0,0.0,0.0,0.0,0.0,0.0,0.0,0.0,0.0,0.0,0.0,0.0,0.0,0.0,0.0,0.0,0.0,0.0,0.0,0.0,0.0,0.0,0.0,0.0,0.0,0.0,0.0,0.0,0.0,0.0,0.0,0.0,0.0,0.0,0.0,0.0,0.0,0.0,0.0,0.0,0.0,0.0,0.0,0.0,0.0,0.0,0.0,0.0,0.0,0.0,-1.8796,-2.0507,-2.2108,-2.3578,-2.3733,-2.3795,-2.3777,-2.296,-2.2005,-2.1025,0.0,0.0,0.0,0.0,0.0,0.0,0.0,0.0,0.0,0.0,0.0,0.0,0.0,0.0,0.0,0.0,0.0,0.0,0.0,0.0,0.0,0.0,0.0,0.0,0.0,0.0,0.0,0.0,0.0,0.0,0.0,0.0,0.0,0.0,0.0,0.0,0.0,0.0,0.0,-1.8965,-1.8879,0.0,0.0,0.0,0.0,0.0,0.0,0.0,0.0,-1.6903,0.0,0.0,0.0,0.0,0.0,0.0,0.0,0.0,0.0,0.0,0.0,0.0,0.0,0.0,0.0,0.0,0.0,0.0,0.0,0.0,0.0,0.0,0.0,0.0,0.0,0.0,0.0,0.0,0.0,0.0,0.0,0.0,0.0,0.0,0.0,0.0,0.0,0.0,0.0,0.0,0.0,0.0,0.0,0.0,0.0,0.0,0.0,0.0,0.0,0.0,0.0,0.0,0.0,0.0,0.0,-2.0119,-2.1004,-2.219,-2.3741,-2.3795,-2.3795,-2.3777,-2.296,-2.2016,0.0,0.0,0.0,0.0,0.0,0.0,0.0,0.0,0.0,0.0,0.0,0.0,0.0,0.0,0.0,0.0,0.0,0.0,0.0,0.0,0.0,0.0,0.0,0.0,0.0,0.0,0.0,0.0,0.0,0.0,0.0,0.0,0.0,0.0,0.0,0.0,0.0,0.0,0.0,0.0,-1.8646,-1.8412,-1.7933,0.0,0.0,0.0,0.0,0.0,0.0,-1.7214,-1.7149,0.0,0.0,0.0,0.0,0.0,0.0,0.0,0.0,0.0,0.0,0.0,0.0,0.0,0.0,0.0,0.0,0.0,0.0,0.0,0.0,0.0,0.0,0.0,0.0,0.0,0.0,0.0,0.0,0.0,0.0,0.0,0.0,0.0,0.0,0.0,0.0,0.0,0.0,0.0,0.0,0.0,0.0,0.0,0.0,0.0,0.0,0.0,0.0,0.0,0.0,0.0,0.0,0.0,0.0,0.0,-2.1226,-2.1374,-2.2172,-2.3723,-2.3795,-2.3751,-2.3578,-2.2705,-2.178,0.0,0.0,0.0,0.0,0.0,0.0,0.0,0.0,0.0,0.0,0.0,0.0,0.0,0.0,0.0,0.0,0.0,0.0,0.0,0.0,0.0,0.0,0.0,0.0,0.0,0.0,0.0,0.0,0.0,0.0,0.0,0.0,0.0,0.0,0.0,0.0,0.0,0.0,0.0,0.0,0.0,-1.7817,-1.695,-1.6904,0.0,0.0,0.0,0.0,-1.6841,-1.7207,0.0,0.0,0.0,0.0,0.0,0.0,0.0,0.0,0.0,0.0,0.0,0.0,0.0,0.0,0.0,0.0,0.0,0.0,0.0,0.0,0.0,0.0,0.0,0.0,0.0,0.0,0.0,0.0,0.0,0.0,0.0,0.0,0.0,0.0,0.0,0.0,0.0,0.0,0.0,0.0,0.0,0.0,0.0,0.0,0.0,0.0,0.0,0.0,0.0,0.0,0.0,0.0,0.0,0.0,0.0,0.0,-2.1302,-2.1449,-2.2238,-2.3705,-2.3795,-2.3487,-2.2843,-2.1852,-2.0894,0.0,0.0,0.0,0.0,0.0,0.0,0.0,0.0,0.0,0.0,0.0,0.0,0.0,0.0,0.0,0.0,0.0,0.0,0.0,0.0,0.0,0.0,0.0,0.0,0.0,0.0,0.0,0.0,0.0,0.0,0.0,0.0,0.0,0.0,0.0,0.0,0.0,0.0,0.0,0.0,0.0,-1.8228,-1.7128,-1.7224,-1.7327,0.0,0.0,-1.698,-1.698,-1.6843,0.0,0.0,0.0,0.0,0.0,0.0,0.0,0.0,0.0,0.0,0.0,0.0,0.0,0.0,0.0,0.0,0.0,0.0,0.0,0.0,0.0,0.0,0.0,0.0,0.0,0.0,0.0,0.0,0.0,0.0,0.0,0.0,0.0,0.0,0.0,0.0,0.0,0.0,0.0,0.0,0.0,0.0,0.0,0.0,0.0,0.0,0.0,0.0,0.0,0.0,0.0,0.0,0.0,0.0,0.0,-2.048,-2.1988,-2.125,-2.1576,-2.3107,-2.318,-2.2799,-2.2029,-2.1482,-2.0963,0.0,0.0,0.0,0.0,0.0,0.0,0.0,0.0,0.0,0.0,0.0,0.0,0.0,0.0,0.0,0.0,0.0,0.0,0.0,0.0,0.0,0.0,0.0,0.0,0.0,0.0,0.0,0.0,0.0,0.0,0.0,0.0,0.0,0.0,0.0,0.0,0.0,0.0,0.0,0.0,0.0,0.0,-1.7394,-1.7432,0.0,0.0,0.0,-1.7064,-1.7052,0.0,0.0,0.0,0.0,0.0,0.0,0.0,0.0,0.0,0.0,0.0,0.0,0.0,0.0,0.0,0.0,0.0,0.0,0.0,0.0,0.0,0.0,0.0,0.0,0.0,0.0,0.0,0.0,0.0,0.0,0.0,0.0,0.0,0.0,0.0,0.0,0.0,0.0,0.0,0.0,0.0,0.0,0.0,0.0,0.0,0.0,0.0,0.0,0.0,0.0,0.0,0.0,0.0,0.0,0.0,0.0,0.0,-2.2566,-2.1087,-2.1079,-2.2626,-2.2709,-2.2238,-2.1251,-2.1422,0.0,0.0,0.0,0.0,0.0,0.0,0.0,0.0,0.0,0.0,0.0,0.0,0.0,0.0,0.0,0.0,0.0,0.0,0.0,0.0,0.0,0.0,0.0,0.0,0.0,0.0,0.0,-1.7624,0.0,0.0,0.0,0.0,0.0,0.0,0.0,0.0,0.0,0.0,0.0,0.0,0.0,0.0,-1.7906,-1.7652,-1.7786,-1.7796,0.0,0.0,-1.7113,-1.7048,-1.6802,-1.6594,0.0,0.0,0.0,0.0,0.0,0.0,0.0,0.0,0.0,0.0,0.0,0.0,0.0,0.0,0.0,0.0,0.0,0.0,0.0,0.0,0.0,0.0,0.0,0.0,0.0,0.0,0.0,0.0,0.0,0.0,0.0,0.0,0.0,0.0,0.0,0.0,0.0,0.0,0.0,0.0,0.0,0.0,0.0,0.0,0.0,0.0,0.0,0.0,0.0,0.0,0.0,0.0,0.0,0.0,-2.183,-2.2598,-2.1106,-2.1097,-2.2626,-2.2709,-2.1966,-2.0463,-2.1688,-2.1598,0.0,0.0,0.0,0.0,0.0,0.0,0.0,0.0,0.0,0.0,0.0,0.0,0.0,0.0,0.0,0.0,0.0,0.0,0.0,0.0,0.0,0.0,0.0,0.0,0.0,0.0,0.0,0.0,0.0,0.0,0.0,0.0,0.0,0.0,0.0,0.0,0.0,0.0,0.0,0.0,0.0,-1.8756,-1.7822,-1.8444,-1.8595,0.0,-1.7236,-1.713,-1.6952,-1.6751,-1.6594,-1.6594,0.0,0.0,0.0,0.0,0.0,0.0,0.0,0.0,0.0,0.0,0.0,0.0,0.0,0.0,0.0,0.0,0.0,0.0,0.0,0.0,0.0,0.0,0.0,0.0,0.0,0.0,0.0,0.0,0.0,0.0,0.0,0.0,0.0,0.0,0.0,0.0,0.0,0.0,0.0,0.0,0.0,0.0,0.0,0.0,0.0,0.0,0.0,0.0,0.0,0.0,0.0,0.0,0.0,-2.2391,-2.2681,-2.1604,-2.1803,-2.3288,-2.2934,-2.192,-2.0336,-2.1247,-2.1143,0.0,0.0,0.0,0.0,0.0,0.0,0.0,0.0,0.0,0.0,0.0,0.0,0.0,0.0,0.0,0.0,0.0,0.0,0.0,0.0,0.0,0.0,0.0,0.0,0.0,0.0,0.0,0.0,-1.7795,-1.7662,-1.7687,0.0,0.0,0.0,0.0,0.0,0.0,0.0,0.0,0.0,0.0,-1.9115,-1.8745,-1.8944,0.0,0.0,-1.7753,-1.7686,-1.7003,-1.7136,-1.7131,-1.6659,-1.6594,0.0,0.0,0.0,0.0,0.0,0.0,0.0,0.0,0.0,0.0,0.0,0.0,0.0,0.0,0.0,0.0,0.0,0.0,0.0,0.0,0.0,0.0,0.0,0.0,0.0,0.0,-1.7092,-1.7056,0.0,0.0,0.0,0.0,0.0,0.0,0.0,0.0,0.0,0.0,0.0,0.0,0.0,0.0,0.0,0.0,0.0,0.0,0.0,0.0,0.0,0.0,0.0,0.0,-2.2445,-2.2699,-2.192,-2.2256,-2.3769,-2.3071,-2.2047,-2.0735,-2.1356,-2.1325,0.0,0.0,0.0,0.0,0.0,0.0,0.0,0.0,0.0,0.0,0.0,0.0,0.0,0.0,0.0,0.0,0.0,0.0,0.0,0.0,0.0,0.0,0.0,0.0,0.0,0.0,0.0,0.0,-1.8446,-1.8208,-1.8256,0.0,0.0,0.0,0.0,0.0,0.0,0.0,0.0,0.0,0.0,-1.9809,-1.935,-1.9424,-1.9069,-1.7822,-1.7892,-1.7793,-1.6994,-1.7183,-1.73,-1.6988,0.0,0.0,0.0,0.0,0.0,0.0,0.0,0.0,0.0,0.0,0.0,0.0,0.0,0.0,0.0,0.0,0.0,0.0,0.0,0.0,0.0,0.0,0.0,0.0,0.0,0.0,0.0,-1.7881,0.0,0.0,-1.79,0.0,0.0,0.0,0.0,0.0,0.0,0.0,0.0,0.0,0.0,0.0,0.0,0.0,0.0,0.0,0.0,0.0,0.0,0.0,0.0,0.0,0.0,-2.1966,-2.2662,-2.1984,-2.2292,-2.3751,-2.3079,-2.2319,-2.1532,-2.2246,-2.2431,-2.1931,0.0,0.0,0.0,0.0,0.0,0.0,0.0,0.0,0.0,0.0,0.0,0.0,0.0,0.0,0.0,0.0,0.0,0.0,0.0,0.0,0.0,0.0,0.0,0.0,0.0,0.0,-2.0395,-1.93,-1.842,0.0,0.0,0.0,0.0,0.0,0.0,0.0,0.0,0.0,-2.0429,-2.1061,-2.098,-1.9487,-1.9824,-1.9646,-1.7818,-1.7441,-1.7236,-1.6898,-1.6843,-1.7014,0.0,0.0,0.0,0.0,0.0,0.0,0.0,0.0,0.0,0.0,0.0,0.0,0.0,0.0,0.0,0.0,0.0,0.0,0.0,0.0,0.0,0.0,0.0,0.0,0.0,0.0,0.0,-1.9748,-1.9566,0.0,0.0,0.0,0.0,0.0,0.0,0.0,0.0,0.0,0.0,0.0,-2.1115,-2.164,0.0,0.0,0.0,0.0,0.0,0.0,0.0,0.0,0.0,0.0,0.0,0.0,-2.2926,-2.2753,-2.3441,-2.4085,-2.4556,-2.385,-2.3071,-2.2319,-2.2383,-2.2189,-2.168,0.0,0.0,0.0,0.0,0.0,0.0,0.0,0.0,0.0,0.0,0.0,0.0,0.0,0.0,0.0,0.0,0.0,0.0,0.0,0.0,0.0,0.0,0.0,0.0,0.0,-1.9863,0.0,0.0,0.0,0.0,0.0,0.0,0.0,0.0,0.0,0.0,-2.009,-2.07,-2.1726,-2.1631,-2.1456,-2.1379,-2.1195,-2.0594,0.0,0.0,0.0,0.0,0.0,0.0,0.0,0.0,0.0,0.0,0.0,0.0,0.0,0.0,-1.7843,-1.7289,-1.7471,-1.771,-1.7666,0.0,0.0,0.0,0.0,0.0,0.0,0.0,0.0,0.0,0.0,0.0,0.0,0.0,0.0,-2.1133,-2.1188,-2.1667,0.0,0.0,0.0,0.0,0.0,0.0,0.0,0.0,-2.1405,-2.1658,-2.1938,-2.2445,-2.2709,-2.2717,-2.2908,-2.1948,0.0,0.0,0.0,0.0,0.0,0.0,0.0,0.0,-2.3306,-2.3143,-2.4357,-2.499,-2.4972,-2.4194,-2.356,-2.3097,-2.2747,-2.2248,-2.1523,-2.1544,-2.1576,0.0,0.0,0.0,0.0,0.0,0.0,0.0,0.0,0.0,0.0,0.0,0.0,0.0,0.0,0.0,0.0,0.0,0.0,0.0,0.0,0.0,0.0,0.0,-2.0852,0.0,0.0,0.0,0.0,0.0,0.0,0.0,0.0,0.0,-1.9281,-2.0088,-2.1032,-2.1928,-2.1806,-2.1813,-2.2317,0.0,0.0,0.0,0.0,0.0,0.0,0.0,-1.9129,-1.8819,-1.9356,-1.9815,-1.9815,-1.9609,-1.9435,-1.9451,0.0,0.0,-1.8196,-1.8233,-1.8469,-1.8439,-1.8548,-1.8625,-1.8362,-1.847,-1.8547,0.0,0.0,0.0,0.0,-2.154,0.0,0.0,0.0,-2.2681,-2.2644,0.0,-2.2699,0.0,0.0,0.0,0.0,-2.1532,-2.1532,0.0,0.0,-2.3343,-2.3397,-2.2753,-2.2735,-2.2735,-2.2699,-2.2011,-2.1622,-2.1649,-2.3035,-2.3415,0.0,0.0,0.0,0.0,0.0,-2.3107,-2.3777,-2.4628,-2.5009,-2.4918,-2.4194,-2.3795,-2.3756,-2.3335,-2.2623,-2.1644,-2.2014,-2.2296,-2.2296,-2.1617,0.0,0.0,0.0,0.0,0.0,0.0,0.0,0.0,0.0,0.0,0.0,0.0,0.0,0.0,0.0,0.0,0.0,0.0,0.0,0.0,-2.2048,0.0,0.0,0.0,0.0,0.0,0.0,0.0,0.0,0.0,-2.0811,-1.9287,-2.0551,-2.1477,-2.1262,0.0,0.0,0.0,0.0,-2.1691,-2.0969,-2.0732,-2.0326,-1.9388,-1.9707,-2.0241,-2.0732,0.0,0.0,-2.19,-2.1333,-2.089,-2.0874,-2.1294,-2.11,-1.9154,-1.881,-1.8748,-1.864,-1.9186,-1.9343,-1.8796,-1.9076,-1.9246,-2.3361,0.0,0.0,0.0,0.0,-2.2373,-2.2481,-2.2709,-2.2709,-2.2709,-2.2735,-2.3252,0.0,0.0,0.0,0.0,0.0,0.0,-2.2491,-2.2699,-2.2926,-2.318,-2.3487,-2.3498,-2.3469,-2.3469,-2.3252,-2.3125,-2.3161,-2.3588,-2.2846,-2.1025,0.0,0.0,0.0,0.0,-2.4176,-2.3896,-2.5153,-2.5298,-2.4157,-2.3922,-2.3739,-2.3587,-2.3259,-2.2868,-2.2371,-2.2313,-2.2313,-2.2296,-2.2107,0.0,0.0,0.0,0.0,0.0,0.0,0.0,0.0,0.0,0.0,0.0,0.0,0.0,0.0,0.0,0.0,0.0,0.0,0.0,-2.1972,-2.1503,-2.087,0.0,0.0,0.0,0.0,0.0,0.0,0.0,0.0,0.0,-2.2115,-2.3037,-2.3867,0.0,0.0,-2.4064,-2.4544,-2.4003,-2.3444,-2.3244,-2.2421,0.0,-2.1439,-2.1407,-2.1466,-2.1554,-2.2153,-2.2613,-2.2629,-2.2439,-2.2297,-2.228,-2.2436,-2.2339,-2.1818,-2.1165,-2.0578,-2.0091,-2.0106,-2.0183,-1.9929,-2.0005,-2.0034,-2.4918,-2.402,-2.3405,-2.3314,-2.3614,-2.3604,-2.3803,-2.4067,-2.3759,-2.3604,-2.364,-2.4085,-2.3868,-2.3161,-2.3596,0.0,0.0,0.0,-2.3795,-2.4092,-2.4092,-2.4339,-2.4737,-2.4755,-2.4574,-2.4295,-2.4266,-2.4114,-2.3795,-2.3795,-2.2944,-2.1332,0.0,-2.2119,-2.2455,-2.4139,-2.4755,-2.4375,-2.586,-2.5914,-2.432,-2.4266,-2.4024,-2.3504,-2.3242,-2.2973,-2.2712,-2.2555,-2.246,-2.246,-2.2565,-2.2435,0.0,0.0,0.0,0.0,0.0,0.0,0.0,0.0,0.0,0.0,0.0,-2.1376,-2.1491,0.0,0.0,0.0,-2.2447,-2.2347,-2.2078,-2.1315,0.0,0.0,0.0,0.0,0.0,0.0,0.0,-2.0223,-2.1949,-2.3237,-2.3571,-2.4787,-2.5541,-2.5293,-2.4885,-2.4883,-2.565,0.0,-2.4579,-2.4563,-2.3818,-2.3008,-2.2309,-2.2316,-2.2448,-2.2677,-2.3278,-2.372,-2.3736,-2.372,-2.372,-2.372,-2.372,-2.3546,-2.3009,-2.2461,-2.1902,-2.1208,-2.1051,-2.0956,-2.0655,-2.0712,-2.0784,-2.6554,-2.6367,-2.4972,-2.4664,-2.5081,-2.5099,-2.5516,-2.612,-2.5407,-2.5099,-2.5099,-2.5081,-2.4683,-2.3994,-2.3994,0.0,-2.5081,-2.5099,-2.5479,-2.6186,-2.6186,-2.6186,-2.6186,-2.6186,-2.5823,-2.5099,-2.5099,-2.4701,-2.4023,-2.3994,-2.3614,-2.2916,-2.2952,-2.327,-2.3824,-2.4592,-2.5027,-2.5117,-2.6548,-2.6554,-2.5045,-2.4918,-2.4457,-2.3555,-2.3259,-2.3022,-2.279,-2.2751,-2.2721,-2.2738,-2.2973,-2.3109,-2.3109,0.0,0.0,0.0,0.0,0.0,0.0,0.0,0.0,0.0,0.0,0.0,0.0,0.0,0.0,0.0,-2.3152,0.0,-2.227,-2.1459,0.0,0.0,0.0,-1.9614,-2.0088,-2.0277,-2.0423,-2.0489,0.0,0.0,-2.4182,-2.5964,-2.6649,-2.5041,-2.484,-2.5126,-2.5987,-2.5676,-2.5297,-2.5212,-2.4934,-2.411,-2.2636,-2.2738,-2.3208,-2.3702,-2.4527,-2.4891,-2.4926,-2.4926,-2.497,-2.491,-2.4922,-2.4511,-2.3214,-2.2864,-2.2629,-2.1963,-2.1805,-2.1553,-2.0935,-2.1117,-2.12,-2.9513,-2.8969,-2.9205,-2.7997,-2.5932,-2.5914,-2.6023,-2.6186,-2.5993,-2.5914,-2.5914,-2.5921,-2.5794,-2.5624,-2.5642,-2.5733,-2.5914,-2.5914,-2.6023,-2.6186,-2.6186,-2.6186,-2.6186,-2.6186,-2.6113,-2.5932,-2.5914,-2.5823,-2.5624,-2.5624,-2.5244,-2.452,-2.5063,-2.4846,-2.3878,-2.4592,-2.5298,-2.5903,-2.6294,-2.6005,-2.5009,-2.4393,-2.3955,-2.3739,-2.352,-2.3389,-2.3319,-2.3109,-2.301,-2.301,-2.3054,-2.3121,-2.3163,-2.3119,0.0,0.0,0.0,0.0,0.0,0.0,0.0,0.0,0.0,-2.2892,-2.2324,0.0,-2.2934,0.0,-2.287,-2.3153,-2.3029,-2.223,0.0,0.0,-2.0527,-2.0384,-2.0466,-2.0965,-2.1725,-2.2888,-2.4019,-2.523,-2.6479,-2.7148,-2.7387,-2.6999,-2.6814,-2.6795,-2.6905,-2.6486,-2.6168,-2.6047,-2.555,-2.4813,-2.3836,-2.3658,-2.372,-2.3872,-2.4511,-2.497,-2.5005,-2.5005,-2.5005,-2.4954,-2.4527,-2.4049,-2.3702,-2.288,-2.2171,-2.1884,-2.1458,-2.1015,-2.0759,-2.0834,-2.0848,-3.0745,-3.0382,-3.0817,-2.9984,-2.8323,-2.796,-2.781,-2.7779,-2.7405,-2.726,-2.7242,-2.688,-2.6916,-2.7272,-2.726,-2.7471,-2.7797,-2.7797,-2.7815,-2.7797,-2.7797,-2.7598,-2.7278,-2.726,-2.7079,-2.6735,-2.6735,-2.6554,-2.6192,-2.6186,-2.5968,-2.557,-2.6337,-2.6283,-2.5461,-2.5842,-2.6294,-2.6717,-2.6373,-2.5986,-2.5552,-2.5099,-2.4538,-2.3831,-2.3609,-2.3504,-2.3504,-2.3348,-2.3289,-2.3289,-2.3365,-2.3434,-2.3463,-2.3063,-2.2868,0.0,0.0,0.0,0.0,0.0,0.0,0.0,0.0,0.0,0.0,0.0,-2.2641,-2.2646,-2.2976,-2.3088,-2.2794,-2.2347,-2.1955,-2.1703,-2.1324,-2.1305,-2.187,-2.206,-2.2457,-2.3313,-2.417,-2.5157,-2.6397,-2.6915,-2.7309,-2.7648,-2.7524,-2.7419,-2.7384,-2.7036,-2.6674,-2.6521,-2.5901,-2.5096,-2.4209,-2.3964,-2.3888,-2.397,-2.4527,-2.5005,-2.5005,-2.5005,-2.5005,-2.4958,-2.4397,-2.3778,-2.348,-2.2625,-2.1821,-2.1426,-2.1094,-2.0825,-2.076,-2.0662,-2.0578,-3.127,-3.1161,-3.1256,-3.1256,-3.1125,-3.04,-3.0056,-2.9893,-2.9119,-2.8708,-2.8582,-2.8075,-2.8183,-2.8744,-2.8853,-2.9287,-2.9929,-2.9947,-2.9965,-2.9947,-2.9857,-2.9427,-2.8763,-2.8654,-2.8219,-2.755,-2.755,-2.7188,-2.65,-2.6602,-2.659,-2.6566,-2.7417,-2.7857,-2.7857,-2.787,-2.7725,-2.7405,-2.6808,-2.6457,-2.6355,-2.6138,-2.536,-2.4031,-2.3685,-2.3531,-2.3531,-2.3549,-2.3549,-2.356,-2.3718,-2.3795,-2.3795,-2.3184,-2.2833,0.0,-2.2206,0.0,0.0,0.0,0.0,0.0,0.0,0.0,0.0,-2.216,-2.2394,-2.3407,-2.333,-2.3035,-2.26,-2.2453,-2.2575,-2.3054,-2.2426,-2.2414,-2.3509,-2.3183,-2.2877,-2.2976,-2.3842,-2.473,-2.5528,-2.6248,-2.6984,-2.7563,-2.7524,-2.7465,-2.7567,-2.7213,-2.6842,-2.6708,-2.5982,-2.5016,-2.4185,-2.3926,-2.3888,-2.3967,-2.4507,-2.497,-2.5005,-2.5005,-2.5005,-2.4922,-2.4416,-2.3714,-2.3135,-2.2519,-2.1853,-2.1331,-2.111,-2.0936,-2.0826,-2.0678,-2.0544,-3.256,-3.2035,-3.2669,-3.256,-3.1962,-3.1813,-3.1365,-3.0713,-2.9929,-2.921,-2.8708,-2.9807,-3.0043,-2.9639,-3.0242,-3.0622,-3.0781,-3.0781,-3.0767,-3.0745,-3.011,-2.9712,-2.9549,-2.892,-2.8527,-2.8364,-2.8382,-2.8292,-2.8165,-2.8793,-2.8793,-2.8201,-2.959,-3.0328,-3.0314,0.0,0.0,0.0,-2.7894,-2.7839,-2.717,-2.5896,-2.5099,-2.4773,-2.4089,0.0,-2.3742,-2.3742,-2.3761,-2.3761,-2.3774,0.0,0.0,0.0,0.0,0.0,0.0,0.0,0.0,0.0,0.0,0.0,-2.1942,-2.1648,-2.2401,-2.2421,-2.298,-2.4354,-2.3815,-2.3827,-2.4918,-2.4327,-2.415,-2.4787,-2.4244,-2.388,-2.4117,-2.3517,-2.3285,-2.3959,-2.4721,-2.5489,-2.6195,-2.7034,-2.7526,-2.7651,-2.7524,-2.7419,-2.7432,-2.7006,-2.6691,-2.6538,-2.5582,-2.4654,-2.4207,-2.4036,-2.3986,-2.4002,-2.4527,-2.4938,-2.5005,-2.5005,-2.5005,-2.4985,-2.4413,-2.3872,-2.3717,-2.3164,-2.2613,-2.2501,-2.1993,-2.1457,-2.0921,-2.0761,-2.0745,-3.3158,-3.2832,-3.323,-3.3158,0.0,-3.2795,-3.256,-3.2125,-3.1342,-3.0749,-3.0423,-3.0835,-3.0781,-3.0418,-3.0835,-3.122,-3.1596,-3.1582,-3.1365,-3.0985,-3.0998,-3.0333,-2.921,-2.9192,-2.8974,-2.8618,-2.86,-2.8799,-2.921,-2.959,-2.9802,-2.9794,-3.0985,-3.1596,-3.16,-3.1981,-3.1202,-2.9192,-2.8781,-2.8401,-2.7948,-2.6421,-2.5407,-2.499,-2.4212,0.0,0.0,0.0,0.0,0.0,0.0,0.0,0.0,-2.4769,-2.4993,-2.4993,-2.4964,-2.4783,-2.4433,-2.4038,-2.3813,-2.385,-2.3792,-2.3396,-2.2535,-2.3138,-2.3905,-2.467,-2.467,-2.4943,-2.5666,-2.5308,-2.5293,-2.5932,-2.5015,-2.4554,-2.5134,-2.405,-2.3453,-2.415,-2.4625,-2.5138,-2.591,-2.6683,-2.728,-2.7616,-2.7524,-2.7341,-2.7182,-2.6859,-2.6537,-2.6311,-2.5729,-2.5125,-2.4906,-2.4734,-2.4582,-2.4627,-2.4807,-2.4974,-2.5005,-2.5005,-2.5005,-2.4938,-2.4397,-2.3888,-2.3841,-2.3354,-2.2803,-2.2519,-2.2374,-2.1963,-2.1063,-2.0761,-2.0744,-3.3393,-3.3393,-3.3393,-3.3393,-3.3393,-3.3393,-3.3393,-3.3357,-3.2705,0.0,0.0,-3.1596,-3.1342,-3.1216,-3.1361,-3.1781,-3.2397,-3.2397,-3.2053,-3.1455,-3.1944,-3.1148,-2.9287,-2.9753,-2.9663,-2.9052,-2.9016,-2.9373,-3.0002,-3.0165,-3.0563,-3.1234,-3.1999,-3.2415,-3.2451,-3.3067,-3.2741,-3.1419,-2.9844,-2.8944,-2.8763,-2.7242,-2.6084,-2.5443,-2.4502,-2.4077,-2.4212,-2.4096,-2.4077,-2.423,-2.4846,-2.5226,-2.5226,-2.5353,-2.5425,-2.5407,-2.4936,-2.4585,-2.4447,-2.4447,-2.4646,-2.519,-2.5823,-2.5296,-2.3207,-2.4221,-2.4956,-2.4945,-2.5511,-2.5915,-2.6063,-2.594,-2.6167,-2.6865,-2.5605,-2.5257,-2.6265,-2.4809,-2.3826,-2.4361,-2.4695,-2.4941,-2.5612,-2.637,-2.6999,-2.7514,-2.7461,-2.7215,-2.6925,-2.664,-2.6381,-2.6079,-2.5886,-2.5793,-2.5661,-2.5441,-2.5352,-2.5214,-2.5127,-2.506,-2.5021,-2.5005,-2.5005,-2.5005,-2.4476,-2.4207,-2.4081,-2.3717,-2.3104,-2.2548,-2.2738,-2.2738,-2.1679,-2.1218,-2.1073,-3.3393,-3.3393,-3.3393,-3.3393,-3.3393,-3.3393,-3.3393,-3.3393,-3.3266,-3.2451,-3.1252,-3.2506,-3.2669,-3.2053,-3.2741,-3.3121,-3.323,-3.3212,-3.3176,-3.3013,-3.2469,-3.2035,-3.1673,-3.1093,-3.0767,-3.0659,-3.0659,-3.0713,-3.0889,-3.151,-3.194,-3.2107,-3.2832,-3.3212,-3.3248,-3.3339,-3.3284,-3.3031,-3.1473,-3.0314,-2.9639,-2.8051,-2.7188,-2.7007,-2.5606,-2.5172,-2.5842,-2.519,-2.5153,-2.5823,-2.5957,-2.6011,-2.6059,-2.6675,-2.7061,-2.7097,-2.7586,-2.7622,-2.6946,-2.688,-2.6645,-2.6084,-2.6138,-2.6029,-2.5717,-2.585,-2.5978,-2.5919,-2.5905,-2.6053,-2.6588,-2.6611,-2.6831,-2.7446,-2.6802,-2.6388,-2.6686,-2.5756,-2.5156,-2.5349,-2.5875,-2.6279,-2.6455,-2.7087,-2.7578,-2.7624,-2.7353,-2.6908,-2.652,-2.6274,-2.6256,-2.6166,-2.6023,-2.5899,-2.5844,-2.5696,-2.5489,-2.5317,-2.5259,-2.5158,-2.5005,-2.5005,-2.5005,-2.5005,-2.4859,-2.4796,-2.478,-2.4796,-2.4495,-2.4258,-2.3986,-2.3638,-2.3212,-2.2767,-2.2151,-3.3393,-3.3393,-3.3393,-3.3393,-3.3393,-3.3393,-3.3393,-3.3393,-3.3393,-3.3013,-3.2415,-3.3085,-3.3194,-3.2886,-3.3248,-3.3393,-3.3393,-3.3393,-3.3158,-3.2759,-3.2814,-3.2379,-3.1618,-3.1618,-3.1401,-3.1021,-3.1003,-3.1234,-3.1636,-3.2035,-3.2415,-3.2832,-3.323,-3.3393,-3.3393,-3.3393,-3.3393,-3.3375,-3.2252,-3.1256,-3.0455,-2.8884,-2.7839,-2.7405,-2.624,-2.5823,-2.6168,-2.586,-2.5823,-2.6186,-2.6627,-2.6856,-2.6862,-2.7604,-2.8057,-2.8075,-2.8401,-2.8256,-2.7441,-2.7405,-2.7242,-2.688,-2.726,-2.7495,-2.7514,-2.7097,-2.6814,-2.6711,-2.6977,-2.7477,-2.8077,-2.8028,-2.8276,-2.9034,-2.8375,-2.8052,-2.8265,-2.7368,-2.6841,-2.7245,-2.7613,-2.7683,-2.7245,-2.7859,-2.814,-2.7794,-2.7289,-2.6842,-2.6468,-2.6292,-2.6185,-2.6185,-2.6115,-2.6078,-2.6059,-2.5789,-2.5584,-2.547,-2.5278,-2.5123,-2.5005,-2.5005,-2.5005,-2.5005,-2.5005,-2.5005,-2.5005,-2.5005,-2.4843,-2.4444,-2.4559,-2.4255,-2.3607,-2.3088,-2.2623,-3.3393,-3.3393,-3.3393,-3.3502,-3.3665,-3.3683,-3.3683,-3.3647,-3.3484,-3.3393,-3.3393,-3.3393,-3.3393,-3.3393,-3.3393,-3.3393,-3.3393,-3.3393,-3.3067,-3.2596,-3.3103,-3.2723,-3.1705,-3.2212,-3.2144,-3.1582,-3.1542,-3.1886,-3.2415,-3.2469,-3.2777,-3.3339,-3.3393,-3.3393,-3.3393,-3.3393,-3.3393,-3.3357,-3.2777,-3.1981,-3.0998,-2.9414,-2.8292,-2.7676,-2.688,-2.6548,-2.6717,-2.6554,-2.6554,-2.6765,-2.7333,-2.7676,-2.7676,-2.8256,-2.86,-2.8618,-2.8763,-2.8703,-2.8274,-2.8201,-2.8141,-2.7978,-2.8672,-2.907,-2.8835,-2.8473,-2.7983,-2.7702,-2.8203,-2.8824,-2.9141,-2.9316,-2.9619,-3.0139,-2.9607,-2.9386,-2.9827,-2.8965,-2.8456,-2.907,-2.9176,-2.886,-2.8315,-2.8509,-2.848,-2.7666,-2.7228,-2.6891,-2.6572,-2.6328,-2.6203,-2.6185,-2.6185,-2.6185,-2.6184,-2.5952,-2.5752,-2.568,-2.5378,-2.5201,-2.5103,-2.5045,-2.5005,-2.5005,-2.5005,-2.5005,-2.5005,-2.5005,-2.4796,-2.4428,-2.4638,-2.4622,-2.3799,-2.3531,-2.3254,-3.3411,-3.3393,-3.3393,-3.3828,-3.4425,-3.4461,-3.4461,-3.4371,-3.3737,-3.3393,-3.3462,-3.3393,-3.3393,-3.3393,-3.3393,-3.3393,-3.3393,-3.3393,-3.3357,-3.3266,-3.3357,-3.3321,-3.3103,-3.323,-3.3248,-3.3121,-3.3085,-3.3085,-3.3212,-3.323,-3.3302,-3.3393,-3.3393,-3.3393,-3.3393,-3.3393,-3.3393,-3.3393,-3.3321,-3.2542,-3.1003,-2.9445,-2.8563,-2.8491,-2.7713,-2.764,-2.8219,-2.7676,-2.7622,-2.831,-2.8401,-2.8473,-2.8491,-2.8563,-2.86,-2.8618,-2.9264,-2.9947,-3.0563,-3.0677,-3.026,-2.973,-3.0255,-3.04,-2.9821,-3.0255,-3.0007,-2.8977,-2.9115,-2.9448,-2.9369,-2.9846,-3.0238,-3.0326,-3.0189,-3.0036,-3.0159,-2.9983,-2.993,-2.9966,-3.0071,-2.9702,-2.9088,-2.8912,-2.8409,-2.7405,-2.7121,-2.6825,-2.6364,-2.6239,-2.6185,-2.6185,-2.6185,-2.6185,-2.6185,-2.6168,-2.6007,-2.5862,-2.5696,-2.547,-2.5298,-2.5123,-2.5005,-2.5045,-2.5005,-2.5005,-2.5005,-2.5005,-2.497,-2.4812,-2.4875,-2.4922,-2.478,-2.4669,-2.4393,-3.4117,-3.4063,-3.361,-3.3622,-3.3978,-3.4404,-3.4649,-3.4669,-3.4292,-3.4144,-3.4142,-3.3698,-3.3437,-3.3393,-3.3393,-3.3393,-3.3393,-3.3393,-3.3393,-3.3393,-3.3393,-3.3393,-3.3393,-3.3393,-3.3393,-3.3393,-3.3393,-3.3393,-3.3393,-3.3393,-3.3393,-3.3393,-3.3393,-3.3393,-3.3393,-3.3393,-3.3393,-3.3393,-3.2922,-3.2125,-3.1075,-3.0369,-2.9559,-2.8672,-2.8292,-2.8238,-2.8527,-2.8274,-2.8256,-2.8582,-2.86,-2.86,-2.86,-2.86,-2.86,-2.8654,-2.9355,-3.0147,-3.0948,-3.1003,-3.0871,-3.0527,-3.0799,-3.0853,-3.0563,-3.0817,-3.0677,-3.0193,-3.0211,-3.0395,-3.0651,-3.0968,-3.1231,-3.1513,-3.1669,-3.1669,-3.1474,-3.1522,-3.1555,-3.1474,-3.1458,-3.1142,-3.0317,-2.9457,-2.8622,-2.7737,-2.7313,-2.6809,-2.6311,-2.6185,-2.6185,-2.6185,-2.6185,-2.6185,-2.6185,-2.6096,-2.6007,-2.5897,-2.5733,-2.5549,-2.5489,-2.5298,-2.5197,-2.5197,-2.51,-2.5005,-2.5005,-2.5005,-2.5005,-2.5005,-2.5005,-2.5005,-2.5005,-2.5005,-2.4812,-3.4787,-3.4546,-3.4017,-3.3807,-3.392,-3.4679,-3.4906,-3.4794,-3.4709,-3.4578,-3.4426,-3.4022,-3.3695,-3.3441,-3.3422,-3.3408,-3.3411,-3.3393,-3.3393,-3.3393,-3.3393,-3.3393,-3.3393,-3.3393,-3.3393,-3.3393,-3.3393,-3.3393,-3.3393,-3.3393,-3.3393,-3.3393,-3.3393,-3.3393,-3.3393,-3.3393,-3.3393,-3.3339,-3.2795,-3.2144,-3.1419,-3.1107,-3.0242,-2.8781,-2.86,-2.86,-2.86,-2.86,-2.86,-2.86,-2.8799,-2.8938,-2.8925,-2.9143,-2.936,-2.9595,-3.0115,-3.0803,-3.16,-3.1655,-3.1546,-3.1379,-3.1524,-3.1564,-3.1415,-3.1542,-3.1636,-3.1655,-3.157,-3.169,-3.1688,-3.1946,-3.2277,-3.265,-3.2818,-3.2771,-3.2472,-3.2539,-3.2504,-3.244,-3.2265,-3.209,-3.1177,-2.9879,-2.8704,-2.8214,-2.7566,-2.6957,-2.6538,-2.6417,-2.6434,-2.6433,-2.6364,-2.6291,-2.6203,-2.6114,-2.5989,-2.5934,-2.5826,-2.5698,-2.5677,-2.5508,-2.5391,-2.5391,-2.5217,-2.51,-2.5119,-2.5084,-2.5005,-2.5005,-2.5005,-2.5005,-2.5005,-2.5005,-2.5005,-3.5344,-3.4748,-3.4732,-3.4725,-3.4794,-3.5596,-3.5487,-3.49,-3.4863,-3.4444,-3.4002,-3.4458,-3.4287,-3.3564,-3.3582,-3.3466,-3.3393,-3.3393,-3.3393,-3.3393,-3.3393,-3.3393,-3.3393,-3.3393,-3.3393,-3.3393,-3.3393,-3.3393,-3.3393,-3.3393,-3.3393,-3.3393,-3.3393,-3.3393,-3.3393,-3.3393,-3.3393,-3.3375,-3.3302,-3.2904,-3.2144,-3.1397,-3.0296,-2.8907,-2.86,-2.86,-2.86,-2.8618,-2.8618,-2.8618,-2.9337,-2.9748,-2.9802,-3.0437,-3.1111,-3.1799,-3.1981,-3.2397,-3.3049,-3.314,-3.2886,-3.2379,-3.2741,-3.2922,-3.227,-3.2705,-3.3031,-3.3212,-3.3071,-3.278,-3.2182,-3.2547,-3.2896,-3.288,-3.29,-3.2836,-3.2622,-3.2605,-3.254,-3.244,-3.2423,-3.2125,-3.13,-2.9843,-2.905,-2.8528,-2.7859,-2.7264,-2.6973,-2.6908,-2.6908,-2.6859,-2.6725,-2.6502,-2.6274,-2.615,-2.615,-2.6114,-2.5989,-2.5881,-2.5826,-2.5752,-2.5659,-2.5546,-2.5394,-2.5314,-2.5256,-2.5178,-2.5045,-2.5005,-2.5005,-2.5005,-2.5005,-2.5005,-2.5005,-3.6245,-3.553,-3.556,-3.5312,-3.5027,-3.621,-3.6383,-3.5813,-3.6167,-3.5962,-3.5432,-3.555,-3.5173,-3.4377,-3.4414,-3.4022,-3.3462,-3.3437,-3.3448,-3.3452,-3.3408,-3.3422,-3.3452,-3.3441,-3.3393,-3.3393,-3.3393,-3.3393,-3.3393,-3.3393,-3.3393,-3.3393,-3.3393,-3.3393,-3.3393,-3.3393,-3.3393,-3.3393,-3.3393,-3.3013,-3.2303,-3.1908,-3.1238,-3.017,-2.9125,-2.86,-2.86,-2.9101,-2.9373,-2.9373,-3.0115,-3.0581,-3.06,-3.0853,-3.1347,-3.2089,-3.2198,-3.2542,-3.3266,-3.3393,-3.3302,-3.3049,-3.323,-3.3302,-3.3085,-3.3212,-3.3393,-3.3393,-3.3393,-3.3183,-3.3045,-3.3141,-3.3244,-3.3088,-3.3135,-3.3106,-3.29,-3.2866,-3.28,-3.259,-3.2456,-3.2265,-3.1844,-3.1019,-3.0097,-2.9361,-2.8601,-2.7882,-2.7207,-2.7006,-2.7072,-2.7006,-2.6908,-2.6808,-2.6759,-2.6381,-2.6202,-2.6202,-2.6132,-2.6097,-2.6043,-2.5972,-2.5881,-2.5789,-2.5621,-2.547,-2.5413,-2.5182,-2.5064,-2.5025,-2.5025,-2.5005,-2.5005,-2.5005,-2.5005,-3.6918,-3.644,-3.6197,-3.5802,-3.5534,-3.6757,-3.6915,-3.6417,-3.6991,-3.6768,-3.6091,-3.6318,-3.5941,-3.5154,-3.5479,-3.5195,-3.4222,-3.3797,-3.3534,-3.3538,-3.3495,-3.3622,-3.3869,-3.3847,-3.3818,-3.3782,-3.3516,-3.3393,-3.3393,-3.3393,-3.3393,-3.3393,-3.3393,-3.3393,-3.3393,-3.3393,-3.3393,-3.3393,-3.3393,-3.3103,-3.2614,-3.2339,-3.1962,-3.1292,-3.0079,-2.9378,-2.9391,-2.9911,-3.0183,-3.0292,-3.0962,-3.1505,-3.1727,-3.1777,-3.2017,-3.2506,-3.2596,-3.2795,-3.3284,-3.3393,-3.3393,-3.3393,-3.3393,-3.3393,-3.3393,-3.3393,-3.3393,-3.3393,-3.3393,-3.3393,-3.3393,-3.3393,-3.3349,-3.3241,-3.3319,-3.3289,-3.3026,-3.3039,-3.293,-3.2655,-3.2523,-3.2456,-3.2318,-3.1668,-3.0935,-3.0244,-2.9496,-2.865,-2.7863,-2.7608,-2.747,-2.7282,-2.7182,-2.7135,-2.7054,-2.6775,-2.6485,-2.6433,-2.6468,-2.6416,-2.6276,-2.6206,-2.6134,-2.6026,-2.5862,-2.5696,-2.5489,-2.524,-2.5123,-2.5084,-2.5025,-2.5005,-2.5005,-2.5005,-2.5005,-3.7342,-3.7229,-3.6622,-3.6399,-3.6431,-3.7224,-3.7074,-3.6597,-3.7239,-3.6784,-3.5793,-3.6817,-3.6622,-3.5589,-3.6604,-3.6835,-3.5805,-3.4513,-3.382,-3.3733,-3.3682,-3.4047,-3.4645,-3.4702,-3.4691,-3.4673,-3.389,-3.3538,-3.3628,-3.3574,-3.352,-3.3447,-3.3429,-3.3393,-3.3393,-3.3393,-3.3393,-3.3393,-3.3393,-3.3375,-3.3284,-3.2669,-3.2288,-3.2144,-3.1433,-3.1003,-3.1003,-3.1016,-3.0998,-3.1093,-3.1781,-3.256,-3.3085,-3.3194,-3.3302,-3.3266,-3.3339,-3.3375,-3.3375,-3.3393,-3.3393,-3.3393,-3.3393,-3.3393,-3.3393,-3.3393,-3.3393,-3.3393,-3.3393,-3.3393,-3.3393,-3.3393,-3.3378,-3.3378,-3.3393,-3.3319,-3.3165,-3.3101,-3.2959,-3.2721,-3.2622,-3.2539,-3.2281,-3.1843,-3.1299,-3.0985,-3.0443,-2.9674,-2.8821,-2.8578,-2.8445,-2.7855,-2.7491,-2.7386,-2.7293,-2.7184,-2.6908,-2.6725,-2.6809,-2.6809,-2.6606,-2.6486,-2.6521,-2.64,-2.6188,-2.5992,-2.5772,-2.553,-2.5317,-2.524,-2.5123,-2.5025,-2.5005,-2.5005,-2.5005,-3.8258,-3.8239,-3.8031,-3.7606,-3.7272,-3.7991,-3.7863,-3.7272,-3.7973,-3.7698,-3.7055,-3.7845,-3.7716,-3.6967,-3.7294,-3.7334,-3.6941,-3.5919,-3.5135,-3.4603,-3.4469,-3.4568,-3.4882,-3.5344,-3.5587,-3.549,-3.5199,-3.5041,-3.4914,-3.4498,-3.4211,-3.4154,-3.3683,-3.3411,-3.3393,-3.3393,-3.3393,-3.3393,-3.3393,-3.3393,-3.3393,-3.3176,-3.3013,-3.2995,-3.2777,-3.2651,-3.2632,-3.2125,-3.1836,-3.1832,-3.2596,-3.3158,-3.3339,-3.3393,-3.3393,-3.3393,-3.3393,-3.3393,-3.3393,-3.3393,-3.3393,-3.3393,-3.3393,-3.3393,-3.3393,-3.3393,-3.3393,-3.3393,-3.3393,-3.3393,-3.3393,-3.3393,-3.3393,-3.3393,-3.3393,-3.3378,-3.3304,-3.3196,-3.307,-3.2943,-3.2866,-3.2739,-3.2573,-3.2187,-3.1872,-3.1351,-3.1018,-3.044,-2.9299,-2.9,-2.8579,-2.7862,-2.7717,-2.7585,-2.7509,-2.7448,-2.7293,-2.7086,-2.7103,-2.7038,-2.6842,-2.6858,-2.6858,-2.6742,-2.6521,-2.6295,-2.6048,-2.5828,-2.5621,-2.5391,-2.5256,-2.5158,-2.5025,-2.5005,-2.5005,-3.8707,-3.8707,-3.8707,-3.8432,-3.7991,-3.8505,-3.8414,-3.8046,-3.8469,-3.8267,-3.7768,-3.834,-3.8267,-3.7694,-3.7804,-3.7951,-3.786,-3.7092,-3.6435,-3.5842,-3.5451,-3.5513,-3.5791,-3.6255,-3.6465,-3.6315,-3.6035,-3.5864,-3.5812,-3.5341,-3.4927,-3.4534,-3.4099,-3.3683,-3.3429,-3.3393,-3.3393,-3.3393,-3.3393,-3.3437,-3.3491,-3.3524,-3.3534,-3.3601,-3.3633,-3.3633,-3.3578,-3.3122,-3.2816,-3.2748,-3.314,-3.3375,-3.3393,-3.3393,-3.3393,-3.3393,-3.3393,-3.3393,-3.3393,-3.3393,-3.3393,-3.3393,-3.3393,-3.3393,-3.3393,-3.3393,-3.3393,-3.3393,-3.3393,-3.3393,-3.3393,-3.3393,-3.3393,-3.3393,-3.3393,-3.3393,-3.3396,-3.3304,-3.318,-3.3119,-3.3026,-3.2898,-3.277,-3.2587,-3.2396,-3.1837,-3.1666,-3.1089,-2.9878,-2.9404,-2.8772,-2.814,-2.7739,-2.7672,-2.7701,-2.7657,-2.7644,-2.7491,-2.7384,-2.7197,-2.6989,-2.7197,-2.7291,-2.7086,-2.6875,-2.6623,-2.6383,-2.6118,-2.5883,-2.5659,-2.541,-2.5197,-2.5064,-2.5005,-2.5005,-3.8707,-3.8707,-3.8707,-3.8689,-3.8634,-3.8689,-3.8652,-3.8652,-3.8689,-3.8303,-3.7896,-3.8377,-3.8322,-3.7878,-3.8303,-3.856,-3.8542,-3.7918,-3.7529,-3.7276,-3.6876,-3.6839,-3.7356,-3.7406,-3.7332,-3.7176,-3.6598,-3.6258,-3.6305,-3.6069,-3.555,-3.4999,-3.4691,-3.4226,-3.3694,-3.3477,-3.3437,-3.3466,-3.3448,-3.3563,-3.3698,-3.373,-3.3793,-3.3947,-3.3947,-3.3947,-3.3915,-3.3841,-3.3733,-3.3473,-3.3448,-3.3452,-3.3422,-3.3408,-3.3419,-3.3408,-3.3408,-3.3408,-3.3408,-3.3393,-3.3393,-3.3393,-3.3393,-3.3393,-3.3393,-3.3393,-3.3393,-3.3393,-3.3393,-3.3393,-3.3393,-3.3393,-3.3393,-3.3393,-3.3393,-3.3393,-3.3393,-3.3378,-3.3301,-3.318,-3.3117,-3.3055,-3.2914,-3.277,-3.2636,-3.2502,-3.2348,-3.1577,-3.0668,-2.9948,-2.9334,-2.8702,-2.8087,-2.7806,-2.7841,-2.7701,-2.7672,-2.7642,-2.7552,-2.7415,-2.726,-2.7446,-2.7567,-2.7369,-2.7182,-2.6925,-2.6691,-2.6452,-2.6137,-2.5864,-2.5586,-2.5282,-2.5143,-2.5103,-2.5045,-3.8707,-3.8707,-3.8707,-3.8707,-3.8707,-3.8707,-3.8707,-3.8707,-3.8707,-3.856,-3.845,-3.8597,-3.8579,-3.8414,-3.8579,-3.8707,-3.8615,-3.8469,-3.8377,-3.8358,-3.8212,-3.8157,-3.831,-3.8201,-3.8133,-3.806,-3.7791,-3.7763,-3.7692,-3.7111,-3.6713,-3.6482,-3.5236,-3.4633,-3.4386,-3.3864,-3.3661,-3.3712,-3.3788,-3.386,-3.3908,-3.3934,-3.3965,-3.3985,-3.4023,-3.4023,-3.4011,-3.3998,-3.3972,-3.386,-3.3703,-3.3633,-3.3633,-3.3619,-3.3563,-3.3481,-3.3534,-3.3549,-3.3437,-3.3408,-3.3393,-3.3393,-3.3393,-3.3393,-3.3393,-3.3393,-3.3393,-3.3393,-3.3393,-3.3393,-3.3393,-3.3393,-3.3393,-3.3393,-3.3393,-3.3393,-3.3393,-3.3393,-3.3378,-3.3334,-3.3301,-3.3226,-3.3086,-3.2977,-3.2866,-3.2688,-3.2502,-3.2171,-3.1171,-3.0703,-3.0176,-2.9246,-2.8596,-2.821,-2.7947,-2.7789,-2.7701,-2.7701,-2.7672,-2.7642,-2.7552,-2.7612,-2.7657,-2.7597,-2.7432,-2.7182,-2.7039,-2.6842,-2.6487,-2.6155,-2.5921,-2.5698,-2.5394,-2.524,-2.5182,-3.8707,-3.8707,-3.8707,-3.8707,-3.8707,-3.8707,-3.8707,-3.8707,-3.8707,-3.8707,-3.8707,-3.8707,-3.8707,-3.8707,-3.8707,-3.8707,-3.8707,-3.8707,-3.8689,-3.8689,-3.8652,-3.867,-3.8658,-3.8562,-3.8544,-3.8593,-3.8546,-3.8478,-3.8355,-3.7956,-3.7593,-3.6981,-3.5894,-3.5107,-3.4699,-3.4063,-3.3753,-3.3855,-3.3972,-3.4074,-3.4232,-3.4244,-3.4314,-3.4348,-3.436,-3.4371,-3.4371,-3.439,-3.4267,-3.4043,-3.3881,-3.3815,-3.3815,-3.3815,-3.378,-3.3657,-3.3748,-3.3739,-3.3595,-3.3538,-3.3481,-3.3422,-3.3393,-3.3393,-3.3393,-3.3393,-3.3393,-3.3393,-3.3393,-3.3393,-3.3393,-3.3393,-3.3393,-3.3393,-3.3393,-3.3393,-3.3393,-3.3393,-3.3393,-3.3393,-3.3393,-3.3364,-3.3226,-3.3147,-3.3024,-3.285,-3.267,-3.2147,-3.1466,-3.1296,-3.0912,-2.9929,-2.9386,-2.9123,-2.8772,-2.8576,-2.826,-2.8172,-2.7701,-2.7701,-2.7716,-2.7716,-2.7701,-2.7672,-2.7585,-2.7478,-2.7293,-2.7119,-2.6875,-2.6573,-2.6349,-2.6119,-2.5848,-2.5589,-2.5495,-3.8707,-3.8707,-3.8707,-3.8707,-3.8707,-3.8707,-3.8707,-3.8707,-3.8707,-3.8707,-3.8707,-3.8707,-3.8707,-3.8707,-3.8707,-3.8707,-3.8707,-3.8707,-3.8707,-3.8707,-3.8707,-3.8707,-3.8692,-3.8673,-3.8658,-3.8692,-3.8707,-3.8624,-3.8541,-3.847,-3.8034,-3.7299,-3.6442,-3.567,-3.4977,-3.416,-3.3892,-3.408,-3.4179,-3.4325,-3.4548,-3.4601,-3.4643,-3.4772,-3.4792,-3.4802,-3.4821,-3.4821,-3.4641,-3.4117,-3.4068,-3.408,-3.4068,-3.4055,-3.4023,-3.4011,-3.3998,-3.3934,-3.378,-3.3726,-3.3657,-3.3516,-3.3462,-3.3433,-3.3477,-3.3491,-3.355,-3.3789,-3.3608,-3.3728,-3.3684,-3.3615,-3.3531,-3.3516,-3.3447,-3.3538,-3.3411,-3.3393,-3.3393,-3.3393,-3.3393,-3.3393,-3.3349,-3.3256,-3.3135,-3.2993,-3.2832,-3.2503,-3.2036,-3.1816,-3.1308,-3.052,-3.0224,-3.0175,-2.9806,-2.9437,-2.9068,-2.8737,-2.7982,-2.7701,-2.7716,-2.7716,-2.7716,-2.7672,-2.7627,-2.7585,-2.7478,-2.7308,-2.7101,-2.694,-2.6708,-2.6573,-2.6419,-2.6141,-2.598,-3.8707,-3.8707,-3.8707,-3.8707,-3.8707,-3.8707,-3.8707,-3.8707,-3.8707,-3.8707,-3.8707,-3.8707,-3.8707,-3.8707,-3.8707,-3.8707,-3.8707,-3.8707,-3.8707,-3.8707,-3.8707,-3.8707,-3.8707,-3.8707,-3.8707,-3.8707,-3.8707,-3.8673,-3.8658,-3.8615,-3.832,-3.7632,-3.6823,-3.6099,-3.5448,-3.4701,-3.442,-3.4548,-3.463,-3.4703,-3.4783,-3.4851,-3.486,-3.4927,-3.4917,-3.4917,-3.4908,-3.4908,-3.4831,-3.4703,-3.4577,-3.4558,-3.4469,-3.4401,-3.4328,-3.4245,-3.4221,-3.4161,-3.3985,-3.3947,-3.3921,-3.3855,-3.3712,-3.3698,-3.3842,-3.3694,-3.4037,-3.455,-3.4806,-3.4656,-3.4603,-3.4578,-3.4255,-3.388,-3.4002,-3.4045,-3.3574,-3.3393,-3.3393,-3.3393,-3.3393,-3.3393,-3.3393,-3.3364,-3.3256,-3.3132,-3.3003,-3.2872,-3.2604,-3.2317,-3.1827,-3.1229,-3.1145,-3.1042,-3.0668,-3.0123,-2.9372,-2.8866,-2.8147,-2.7719,-2.7716,-2.7716,-2.7716,-2.7716,-2.7701,-2.7642,-2.7585,-2.7494,-2.7291,-2.7181,-2.7069,-2.6939,-2.6807,-2.6607,-2.642,-3.8707,-3.8707,-3.8707,-3.8707,-3.8707,-3.8707,-3.8707,-3.8707,-3.8707,-3.8707,-3.8707,-3.8707,-3.8707,-3.8707,-3.8707,-3.8707,-3.8707,-3.8707,-3.8707,-3.8707,-3.8707,-3.8707,-3.8707,-3.8707,-3.8707,-3.8707,-3.8707,-3.8707,-3.8704,-3.8748,-3.8506,-3.7792,-3.7086,-3.6341,-3.5683,-3.4983,-3.466,-3.4753,-3.486,-3.4945,-3.5028,-3.5046,-3.5046,-3.5046,-3.5046,-3.5046,-3.5046,-3.5046,-3.5255,-3.5503,-3.5543,-3.522,-3.481,-3.4711,-3.4639,-3.4556,-3.4545,-3.448,-3.4344,-3.4191,-3.4142,-3.4136,-3.3902,-3.3837,-3.3889,-3.3837,-3.4233,-3.4838,-3.5137,-3.5251,-3.5561,-3.5165,-3.4816,-3.4809,-3.4677,-3.4491,-3.4039,-3.3628,-3.3393,-3.3393,-3.3393,-3.3393,-3.3393,-3.3408,-3.3375,-3.3271,-3.3117,-3.2986,-3.2957,-3.269,-3.2554,-3.2186,-3.2086,-3.1909,-3.1533,-3.0772,-2.9597,-2.8897,-2.8108,-2.7824,-2.7748,-2.7716,-2.7716,-2.7716,-2.7716,-2.7716,-2.7642,-2.7552,-2.7507,-2.7476,-2.7382,-2.7274,-2.7195,-2.7115,-2.6905,-3.8707,-3.8707,-3.8707,-3.8707,-3.8707,-3.8707,-3.8707,-3.8707,-3.8707,-3.8707,-3.8707,-3.8707,-3.8707,-3.8707,-3.8707,-3.8707,-3.8707,-3.8707,-3.8707,-3.8707,-3.8707,-3.8707,-3.8707,-3.8707,-3.8707,-3.8707,-3.8707,-3.8707,-3.8765,-3.8876,-3.8511,-3.775,-3.7279,-3.6494,-3.5657,-3.5208,-3.4943,-3.4974,-3.521,-3.5189,-3.5179,-3.5166,-3.5166,-3.5185,-3.5452,-3.5482,-3.5539,-3.5681,-3.5976,-3.6634,-3.6691,-3.6193,-3.5618,-3.5315,-3.5202,-3.5183,-3.5163,-3.498,-3.4678,-3.4483,-3.4383,-3.4364,-3.4321,-3.4183,-3.4221,-3.4617,-3.5155,-3.5491,-3.5938,-3.6176,-3.6599,-3.6281,-3.5989,-3.5872,-3.5471,-3.506,-3.4608,-3.3967,-3.3578,-3.3393,-3.3393,-3.3408,-3.3437,-3.3452,-3.3437,-3.339,-3.3238,-3.3132,-3.3101,-3.3039,-3.2856,-3.2775,-3.2586,-3.2485,-3.2161,-3.1541,-3.0342,-2.926,-2.8379,-2.8031,-2.7874,-2.7806,-2.7806,-2.7716,-2.7716,-2.7716,-2.7716,-2.7657,-2.7657,-2.7716,-2.7657,-2.7504,-2.7537,-2.7647,-2.7369,-3.8707,-3.8707,-3.8707,-3.8707,-3.8707,-3.8707,-3.8707,-3.8707,-3.8707,-3.8707,-3.8707,-3.8707,-3.8707,-3.8707,-3.8707,-3.8707,-3.8707,-3.8707,-3.8707,-3.8707,-3.8707,-3.8707,-3.8707,-3.8707,-3.8707,-3.8707,-3.8707,-3.8707,-3.8765,-3.8894,-3.8457,-3.7404,-3.7272,-3.6716,-3.5998,-3.5718,-3.5691,-3.5422,-3.5763,-3.5817,-3.5441,-3.5316,-3.5335,-3.5392,-3.5851,-3.6156,-3.6424,-3.691,-3.7368,-3.7483,-3.7502,-3.7408,-3.7268,-3.7185,-3.6777,-3.6102,-3.5904,-3.5609,-3.4983,-3.4812,-3.4701,-3.4747,-3.5061,-3.5405,-3.5551,-3.6007,-3.655,-3.7291,-3.7561,-3.7711,-3.7726,-3.7421,-3.7092,-3.6712,-3.6242,-3.5818,-3.517,-3.4417,-3.3762,-3.3534,-3.3462,-3.3462,-3.3549,-3.3605,-3.3605,-3.3577,-3.3459,-3.3371,-3.3345,-3.3226,-3.3068,-3.299,-3.2928,-3.2862,-3.2741,-3.2076,-3.1156,-2.9937,-2.9059,-2.8401,-2.8223,-2.8021,-2.7925,-2.776,-2.7716,-2.7716,-2.7716,-2.7716,-2.7716,-2.7716,-2.7716,-2.7716,-2.7686,-2.7659,-2.7632,-3.8707,-3.8707,-3.8707,-3.8707,-3.8707,-3.8707,-3.8707,-3.8707,-3.8707,-3.8707,-3.8707,-3.8707,-3.8707,-3.8707,-3.8707,-3.8707,-3.8707,-3.8707,-3.8707,-3.8707,-3.8707,-3.8707,-3.8707,-3.8707,-3.8707,-3.8707,-3.8707,-3.8707,-3.8719,-3.8964,-3.8473,-3.7926,-3.784,-3.7442,-3.6648,-3.6453,-3.629,-3.6003,-3.6233,-3.6328,-3.5908,-3.5851,-3.587,-3.6003,-3.6271,-3.6672,-3.7158,-3.7406,-3.7922,-3.8266,-3.8381,-3.861,-3.8849,-3.8803,-3.8184,-3.6841,-3.6405,-3.6006,-3.5218,-3.4992,-3.4889,-3.4993,-3.5596,-3.591,-3.6125,-3.6635,-3.7637,-3.8207,-3.8421,-3.8452,-3.8771,-3.8446,-3.8102,-3.7846,-3.7198,-3.6441,-3.575,-3.4744,-3.4189,-3.3826,-3.378,-3.3807,-3.3788,-3.3815,-3.3775,-3.3739,-3.3675,-3.3605,-3.3563,-3.3419,-3.3238,-3.316,-3.3027,-3.2652,-3.2499,-3.193,-3.1247,-3.0216,-2.9508,-2.888,-2.8393,-2.811,-2.7893,-2.7745,-2.7716,-2.7716,-2.7716,-2.7716,-2.7716,-2.7716,-2.7716,-2.7716,-2.7683,-2.7672,-2.7644,-3.8707,-3.8707,-3.8707,-3.8707,-3.8707,-3.8707,-3.8707,-3.8707,-3.8707,-3.8707,-3.8707,-3.8707,-3.8707,-3.8707,-3.8707,-3.8707,-3.8707,-3.8707,-3.8707,-3.8707,-3.8707,-3.8707,-3.8707,-3.8707,-3.8707,-3.8707,-3.8707,-3.8707,-3.8695,-3.8738,-3.8529,-3.8194,-3.8323,-3.806,-3.7305,-3.6929,-3.6653,-3.6347,-3.6672,-3.671,-3.6538,-3.65,-3.65,-3.6634,-3.6825,-3.7398,-3.7922,-3.8304,-3.8686,-3.9088,-3.9336,-3.9556,-4.0148,-4.0301,-3.927,-3.7455,-3.6901,-3.629,-3.5664,-3.51,-3.5114,-3.5408,-3.6017,-3.6347,-3.6847,-3.7625,-3.829,-3.8636,-3.8754,-3.8898,-3.9306,-3.8994,-3.8871,-3.8763,-3.7952,-3.6957,-3.6502,-3.5739,-3.4841,-3.4507,-3.4253,-3.4105,-3.4074,-3.3959,-3.3908,-3.3959,-3.39,-3.3807,-3.3739,-3.3577,-3.343,-3.3302,-3.3023,-3.2426,-3.2,-3.1516,-3.0735,-2.9782,-2.9391,-2.8995,-2.8504,-2.8085,-2.7922,-2.7789,-2.7716,-2.7716,-2.7716,-2.7716,-2.7716,-2.7716,-2.7716,-2.7716,-2.7701,-2.7683,-2.7672,-3.8707,-3.8707,-3.8707,-3.8707,-3.8707,-3.8707,-3.8707,-3.8707,-3.8707,-3.8707,-3.8707,-3.8707,-3.8707,-3.8707,-3.8707,-3.8707,-3.8707,-3.8707,-3.8707,-3.8707,-3.8707,-3.8707,-3.8707,-3.8707,-3.8707,-3.8707,-3.8707,-3.8707,-3.8658,-3.8339,-3.8249,-3.8232,-3.7907,-3.7357,-3.7247,-3.7158,-3.6757,-3.5916,-3.6795,-3.7196,-3.6729,-3.6634,-3.6596,-3.6997,-3.778,-3.8629,-3.8877,-3.9336,-3.9862,-3.9957,-4.0091,-4.0186,-4.0282,-4.032,-3.9794,-3.882,-3.7999,-3.7188,-3.6396,-3.5808,-3.5614,-3.6176,-3.69,-3.769,-3.8298,-3.8914,-3.9502,-3.9692,-3.9656,-3.9562,-3.9644,-3.9557,-3.9524,-3.9195,-3.8565,-3.8059,-3.7666,-3.6509,-3.5625,-3.5163,-3.4923,-3.454,-3.433,-3.4167,-3.4067,-3.4117,-3.4142,-3.4023,-3.3908,-3.3766,-3.3591,-3.3451,-3.294,-3.2323,-3.1582,-3.1075,-3.0283,-2.9357,-2.9155,-2.8994,-2.8582,-2.815,-2.8025,-2.7908,-2.7803,-2.7745,-2.776,-2.776,-2.773,-2.7716,-2.7716,-2.7716,-2.7716,-2.7701,-2.7683,-3.8707,-3.8707,-3.8707,-3.8707,-3.8707,-3.8707,-3.8707,-3.8707,-3.8707,-3.8707,-3.8707,-3.8707,-3.8707,-3.8707,-3.8707,-3.8707,-3.8707,-3.8707,-3.8707,-3.8707,-3.8707,-3.8707,-3.8707,-3.8707,-3.8707,-3.8707,-3.8707,-3.8707,-3.8603,-3.856,-3.854,-3.8752,-3.8241,-3.8035,-3.7487,-3.7245,-3.67,-3.6337,-3.6672,-3.7302,-3.7617,-3.7502,-3.7426,-3.7884,-3.8648,-3.9202,-3.9718,-4.0014,-4.0301,-4.032,-4.032,-4.032,-4.0301,-4.0301,-4.0062,-3.9785,-3.8916,-3.8075,-3.7273,-3.6795,-3.6762,-3.7079,-3.7869,-3.8736,-3.9471,-3.985,-4.0077,-4.0007,-3.9933,-3.9848,-3.9739,-3.9705,-3.9672,-3.9394,-3.8888,-3.8601,-3.8188,-3.7298,-3.64,-3.5991,-3.5522,-3.5031,-3.4592,-3.4393,-3.4311,-3.4335,-3.4293,-3.4197,-3.4099,-3.3985,-3.3807,-3.3601,-3.2939,-3.2197,-3.1379,-3.069,-2.9862,-2.9094,-2.8882,-2.8709,-2.8519,-2.8259,-2.8136,-2.8053,-2.7982,-2.7925,-2.7864,-2.7774,-2.7716,-2.7716,-2.7716,-2.7716,-2.7716,-2.7716,-2.7701,-3.823,-3.8414,-3.8634,-3.8707,-3.8707,-3.8707,-3.8707,-3.8707,-3.8707,-3.8707,-3.8707,-3.8707,-3.8707,-3.8707,-3.8707,-3.8707,-3.8707,-3.8707,-3.8707,-3.8707,-3.8707,-3.8707,-3.8707,-3.8707,-3.8707,-3.8707,-3.8707,-3.8707,-3.8707,-3.8713,-3.889,-3.9314,-3.8176,-3.8058,-3.809,-3.7609,-3.6948,-3.7321,-3.7043,-3.7655,-3.8495,-3.8323,-3.8438,-3.8801,-3.924,-3.9623,-4.0186,-4.0301,-4.0301,-4.032,-4.032,-4.032,-4.032,-4.0301,-4.0282,-4.0091,-3.9556,-3.9126,-3.8438,-3.798,-3.7903,-3.8209,-3.8782,-3.9575,-4.0024,-4.0205,-4.0147,-4.0147,-4.0096,-3.9965,-3.9829,-3.9826,-3.9747,-3.9526,-3.9124,-3.8825,-3.8481,-3.7836,-3.7122,-3.6509,-3.5953,-3.5296,-3.4918,-3.4666,-3.458,-3.4569,-3.4495,-3.4363,-3.4269,-3.4161,-3.3947,-3.3684,-3.2647,-3.1918,-3.1247,-3.04,-2.9518,-2.8938,-2.8739,-2.8549,-2.8419,-2.8353,-2.8286,-2.8205,-2.8126,-2.8011,-2.7908,-2.7821,-2.7716,-2.7716,-2.7716,-2.7716,-2.7716,-2.7716,-2.7716,-3.6905,-3.7639,-3.8358,-3.867,-3.8707,-3.8707,-3.8707,-3.8707,-3.8707,-3.8707,-3.8707,-3.8707,-3.8707,-3.8707,-3.8707,-3.8707,-3.8707,-3.8707,-3.8707,-3.8707,-3.8707,-3.8707,-3.8707,-3.8707,-3.8707,-3.8707,-3.8707,-3.8707,-3.8707,-3.8707,-3.8881,-3.891,-3.7866,-3.7438,-3.7516,-3.7632,-3.7856,-3.8094,-3.7827,-3.8018,-3.8782,-3.8916,-3.8954,-3.9183,-3.9766,-4.0263,-4.032,-4.032,-4.032,-4.032,-4.032,-4.032,-4.032,-4.032,-4.032,-4.0225,-4.0167,-3.9862,-3.9565,-3.8782,-3.8343,-3.8897,-3.9565,-4.0072,-4.0282,-4.0301,-4.0291,-4.0215,-4.0081,-4.0061,-4.002,-4.0008,-3.9702,-3.9705,-3.9474,-3.9402,-3.9096,-3.871,-3.7965,-3.7141,-3.6539,-3.6043,-3.5296,-3.5071,-3.4706,-3.4647,-3.4591,-3.4473,-3.4404,-3.43,-3.4061,-3.3574,-3.2357,-3.1587,-3.1102,-3.0318,-2.9499,-2.9074,-2.8849,-2.8634,-2.8445,-2.8406,-2.8406,-2.8313,-2.8205,-2.8095,-2.7982,-2.7893,-2.7821,-2.773,-2.7716,-2.7716,-2.7716,-2.7716,-2.7716,-3.6486,-3.6813,-3.711,-3.7808,-3.8707,-3.8707,-3.8707,-3.8707,-3.8707,-3.8707,-3.8707,-3.8707,-3.8707,-3.8707,-3.8707,-3.8707,-3.8707,-3.8707,-3.8707,-3.8707,-3.8707,-3.8707,-3.8707,-3.8707,-3.8707,-3.8707,-3.8707,-3.8707,-3.8707,-3.8707,-3.8735,-3.8436,-3.7598,-3.7698,-3.7806,-3.7899,-3.8286,-3.8591,-3.8381,-3.8362,-3.9451,-3.925,-3.926,-3.9843,-3.9995,-4.0301,-4.032,-4.032,-4.032,-4.032,-4.032,-4.032,-4.032,-4.032,-4.032,-4.032,-4.032,-4.032,-4.0301,-3.9632,-3.9527,-3.9642,-4.011,-4.032,-4.032,-4.032,-4.032,-4.0167,-3.9862,-3.9776,-4.005,-3.9659,-3.9294,-3.9662,-3.9823,-3.98,-3.9615,-3.921,-3.8716,-3.7838,-3.7476,-3.7126,-3.628,-3.5465,-3.5052,-3.4714,-3.4639,-3.4561,-3.4495,-3.4427,-3.4209,-3.3858,-3.2748,-3.2151,-3.1702,-3.0682,-2.9545,-2.9253,-2.9015,-2.8771,-2.8582,-2.8536,-2.851,-2.8419,-2.8367,-2.8309,-2.8201,-2.8025,-2.7893,-2.7821,-2.7745,-2.7716,-2.7716,-2.7716,-2.7716,-3.5716,-3.5899,-3.5899,-3.6853,-3.8248,-3.834,-3.8469,-3.8689,-3.8707,-3.8707,-3.8707,-3.8707,-3.8707,-3.8707,-3.8707,-3.8707,-3.8707,-3.8707,-3.8707,-3.8707,-3.8707,-3.8707,-3.8707,-3.8707,-3.8707,-3.8707,-3.8707,-3.8707,-3.8707,-3.8707,-3.8704,-3.8427,-3.7862,-3.796,-3.8126,-3.8337,-3.8534,-3.8992,-3.9011,-3.8935,-4.011,-3.9804,-3.9575,-4.0205,-4.0282,-4.0301,-4.032,-4.032,-4.032,-4.032,-4.032,-4.032,-4.032,-4.032,-4.032,-4.032,-4.032,-4.032,-4.032,-4.0301,-4.0301,-4.0205,-4.0244,-4.032,-4.032,-4.032,-4.032,-4.0263,-3.9785,-3.9585,-4.0109,-3.9785,-3.9594,-3.9948,-3.9954,-3.9933,-3.9878,-3.9588,-3.9123,-3.8526,-3.8239,-3.7859,-3.6958,-3.6037,-3.5302,-3.4897,-3.4639,-3.4602,-3.458,-3.4495,-3.4386,-3.399,-3.338,-3.2939,-3.2556,-3.1195,-2.9971,-2.9721,-2.9447,-2.8985,-2.8797,-2.8725,-2.8725,-2.8731,-2.8682,-2.8576,-2.8461,-2.8339,-2.8115,-2.7864,-2.7789,-2.7745,-2.7716,-2.7716,-2.7716,-3.4357,-3.5004,-3.5023,-3.5991,-3.7401,-3.7529,-3.7955,-3.856,-3.8689,-3.8707,-3.8707,-3.8707,-3.8707,-3.8707,-3.8707,-3.8707,-3.8707,-3.8707,-3.8707,-3.8707,-3.8707,-3.8707,-3.8707,-3.8707,-3.8707,-3.8707,-3.8707,-3.8707,-3.8707,-3.8707,-3.8707,-3.8671,-3.8359,-3.8235,-3.8296,-3.8735,-3.9394,-4.0091,-4.0072,-4.0148,-4.0205,-4.0148,-4.0205,-4.0263,-4.032,-4.032,-4.032,-4.032,-4.032,-4.032,-4.032,-4.032,-4.032,-4.032,-4.032,-4.032,-4.032,-4.032,-4.032,-4.032,-4.032,-4.032,-4.032,-4.032,-4.032,-4.032,-4.032,-4.0282,-4.0024,-4.0053,-4.0215,-4.0148,-3.9986,-4.008,-4.0098,-4.0067,-4.0026,-3.9975,-3.952,-3.9231,-3.886,-3.8376,-3.7492,-3.6589,-3.569,-3.5136,-3.4736,-3.4612,-3.4612,-3.455,-3.4473,-3.4255,-3.3783,-3.3582,-3.2988,-3.1496,-3.0464,-3.0224,-2.9772,-2.9221,-2.8989,-2.8978,-2.8982,-2.9038,-2.8948,-2.8796,-2.8737,-2.867,-2.8399,-2.8124,-2.7876,-2.7789,-2.7745,-2.7716,-2.7716,-3.3954,-3.4211,-3.4197,-3.4821,-3.5936,-3.707,-3.7676,-3.7955,-3.8432,-3.8707,-3.8707,-3.8707,-3.8707,-3.8707,-3.8707,-3.8707,-3.8707,-3.8707,-3.8707,-3.8707,-3.8707,-3.8707,-3.8707,-3.8707,-3.8707,-3.8707,-3.8707,-3.8707,-3.8707,-3.8707,-3.8707,-3.8674,-3.8891,-3.8935,-3.9016,-3.9395,-4.0091,-4.0263,-4.0282,-4.0301,-4.032,-4.032,-4.032,-4.032,-4.032,-4.032,-4.032,-4.032,-4.032,-4.032,-4.032,-4.032,-4.032,-4.032,-4.032,-4.032,-4.032,-4.032,-4.032,-4.032,-4.032,-4.032,-4.032,-4.032,-4.032,-4.032,-4.032,-4.0186,-3.989,-3.9938,-4.011,-3.9632,-3.9538,-4.0091,-4.0234,-4.0225,-4.0205,-4.0195,-3.9995,-3.9868,-3.958,-3.9083,-3.834,-3.7475,-3.6568,-3.5662,-3.5214,-3.4747,-3.4631,-3.4591,-3.4517,-3.4431,-3.4176,-3.4041,-3.3436,-3.205,-3.1284,-3.1098,-3.022,-2.9211,-2.9093,-2.9188,-2.9148,-2.9158,-2.9093,-2.9008,-2.8971,-2.8879,-2.8633,-2.8381,-2.8201,-2.794,-2.7858,-2.7786,-2.7716,-3.3807,-3.3825,-3.4119,-3.4325,-3.4839,-3.6358,-3.7345,-3.7933,-3.8469,-3.8707,-3.8707,-3.8707,-3.8707,-3.8707,-3.8707,-3.8707,-3.8707,-3.8707,-3.8707,-3.8707,-3.8707,-3.8707,-3.8707,-3.8707,-3.8707,-3.8707,-3.8707,-3.8707,-3.8707,-3.8707,-3.8822,-3.9073,-3.9337,-3.9449,-3.9584,-4.0005,-4.0263,-4.032,-4.032,-4.032,-4.032,-4.032,-4.032,-4.032,-4.032,-4.032,-4.032,-4.032,-4.032,-4.032,-4.032,-4.032,-4.032,-4.032,-4.032,-4.032,-4.032,-4.032,-4.032,-4.032,-4.032,-4.032,-4.032,-4.032,-4.032,-4.032,-4.032,-4.0129,-3.9671,-3.9843,-4.0053,-3.9489,-3.969,-4.0282,-4.0301,-4.0291,-4.0291,-4.0282,-4.0273,-4.0166,-4.009,-3.9621,-3.9199,-3.8398,-3.7513,-3.6587,-3.5711,-3.5195,-3.468,-3.4591,-3.4561,-3.4506,-3.4454,-3.433,-3.3777,-3.2727,-3.2136,-3.1979,-3.082,-2.9466,-2.9343,-2.9424,-2.9363,-2.9304,-2.9314,-2.9322,-2.9228,-2.9097,-2.8932,-2.8761,-2.859,-2.8334,-2.8037,-2.794,-2.7897,-3.3807,-3.3935,-3.4637,-3.4491,-3.4174,-3.5605,-3.711,-3.856,-3.8634,-3.8634,-3.8707,-3.8707,-3.8707,-3.8707,-3.8707,-3.8707,-3.8707,-3.8707,-3.8707,-3.8707,-3.8707,-3.8707,-3.8707,-3.8707,-3.8707,-3.8707,-3.8707,-3.8707,-3.8707,-3.8707,-3.895,-3.9318,-3.9439,-3.9708,-4.0033,-4.0233,-4.032,-4.031,-4.032,-4.032,-4.032,-4.032,-4.032,-4.032,-4.032,-4.032,-4.032,-4.032,-4.032,-4.032,-4.032,-4.032,-4.032,-4.032,-4.032,-4.032,-4.032,-4.032,-4.032,-4.032,-4.032,-4.032,-4.032,-4.032,-4.032,-4.032,-4.032,-4.032,-4.0091,-4.0167,-4.0205,-4.0167,-4.0167,-4.0301,-4.0301,-4.032,-4.032,-4.032,-4.0301,-4.0282,-4.0282,-4.0005,-3.9775,-3.9116,-3.8134,-3.7182,-3.622,-3.5369,-3.4891,-3.4612,-3.4602,-3.4602,-3.4561,-3.4591,-3.3942,-3.3141,-3.2475,-3.2135,-3.1013,-2.9868,-2.9795,-2.9645,-2.956,-2.9522,-2.9636,-2.9598,-2.9441,-2.9359,-2.9267,-2.9119,-2.8966,-2.8658,-2.835,-2.8293,-2.8182,-3.3807,-3.3825,-3.4064,-3.4009,-3.399,-3.4912,-3.634,-3.7731,-3.786,-3.8102,-3.8707,-3.8707,-3.8615,-3.8707,-3.8707,-3.8707,-3.8689,-3.8707,-3.8707,-3.8689,-3.867,-3.8689,-3.8707,-3.8707,-3.8707,-3.8707,-3.8707,-3.8707,-3.8707,-3.8707,-3.897,-3.9402,-3.9507,-3.9857,-4.0158,-4.0382,-4.0346,-4.031,-4.032,-4.031,-4.031,-4.031,-4.032,-4.032,-4.032,-4.032,-4.031,-4.032,-4.032,-4.031,-4.032,-4.032,-4.032,-4.032,-4.032,-4.032,-4.032,-4.032,-4.032,-4.032,-4.032,-4.032,-4.032,-4.032,-4.032,-4.032,-4.032,-4.032,-4.032,-4.032,-4.032,-4.032,-4.032,-4.032,-4.032,-4.032,-4.032,-4.032,-4.032,-4.032,-4.032,-4.0272,-4.0062,-3.9537,-3.8546,-3.7641,-3.6708,-3.5792,-3.5047,-3.4749,-3.4612,-3.4612,-3.4612,-3.4612,-3.432,-3.3623,-3.2883,-3.2151,-3.1185,-3.0396,-3.0105,-2.9945,-2.9777,-2.9701,-2.9673,-2.9645,-2.9578,-2.951,-2.9421,-2.9441,-2.9291,-2.8993,-2.8724,-2.867,-2.8464,-3.3807,-3.3862,-3.4142,-3.4252,-3.4302,-3.4468,-3.5316,-3.6431,-3.6868,-3.7345,-3.7753,-3.8046,-3.823,-3.8248,-3.8487,-3.8542,-3.8227,-3.8542,-3.856,-3.8193,-3.8597,-3.867,-3.8707,-3.8707,-3.8707,-3.8707,-3.8707,-3.8707,-3.8707,-3.8777,-3.8994,-3.9531,-3.9578,-3.991,-4.0252,-4.0389,-4.0372,-4.0336,-4.0309,-4.0319,-4.031,-4.032,-4.031,-4.031,-4.031,-4.032,-4.031,-4.032,-4.031,-4.032,-4.032,-4.032,-4.032,-4.032,-4.032,-4.032,-4.032,-4.032,-4.032,-4.032,-4.032,-4.032,-4.032,-4.032,-4.032,-4.032,-4.032,-4.032,-4.032,-4.032,-4.032,-4.032,-4.032,-4.032,-4.032,-4.032,-4.032,-4.032,-4.032,-4.032,-4.032,-4.032,-4.0043,-3.9576,-3.8918,-3.7899,-3.7005,-3.6167,-3.5346,-3.4743,-3.4615,-3.4612,-3.4612,-3.4594,-3.4282,-3.402,-3.3344,-3.2649,-3.1973,-3.1241,-3.0678,-3.0283,-3.0171,-2.9917,-2.9664,-2.9636,-2.9636,-2.9588,-2.9539,-2.954,-2.9531,-2.9293,-2.9093,-2.906,-2.8764,-3.3807,-3.3862,-3.4582,-3.4784,-3.4802,-3.4137,-3.4284,-3.4949,-3.5716,-3.6211,-3.6501,-3.7088,-3.7401,-3.7477,-3.79,-3.786,-3.7786,-3.8046,-3.8138,-3.7547,-3.8395,-3.8689,-3.8707,-3.8707,-3.8707,-3.8707,-3.8707,-3.8707,-3.8719,-3.8788,-3.9069,-3.967,-3.9686,-3.9939,-4.0351,-4.0422,-4.0413,-4.0405,-4.037,-4.0363,-4.0326,-4.0309,-4.032,-4.032,-4.031,-4.0319,-4.0308,-4.0318,-4.0319,-4.0309,-4.0309,-4.0329,-4.032,-4.032,-4.032,-4.032,-4.032,-4.032,-4.032,-4.032,-4.032,-4.032,-4.032,-4.032,-4.032,-4.032,-4.032,-4.032,-4.032,-4.032,-4.032,-4.032,-4.032,-4.032,-4.032,-4.032,-4.032,-4.032,-4.032,-4.032,-4.032,-4.0301,-4.0186,-3.9719,-3.9147,-3.8127,-3.7109,-3.6302,-3.5758,-3.4975,-3.4733,-3.469,-3.4612,-3.4594,-3.4462,-3.4151,-3.3709,-3.3118,-3.2574,-3.2067,-3.1485,-3.1016,-3.0555,-3.0124,-2.9673,-2.9673,-2.9655,-2.9617,-2.9607,-2.9588,-2.956,-2.9522,-2.9434,-2.9353,-2.9138,-3.3807,-3.3825,-3.4009,-3.4082,-3.4064,-3.3899,-3.3899,-3.41,-3.4284,-3.5128,-3.6156,-3.6464,-3.6574,-3.6652,-3.6909,-3.6853,-3.6853,-3.7382,-3.7603,-3.7639,-3.812,-3.8322,-3.8615,-3.8487,-3.8597,-3.8707,-3.8707,-3.8753,-3.8777,-3.8877,-3.9091,-3.9637,-3.9717,-3.9972,-4.0425,-4.0468,-4.046,-4.046,-4.0447,-4.0405,-4.0379,-4.037,-4.0372,-4.0372,-4.0372,-4.0372,-4.0362,-4.0381,-4.0335,-4.0307,-4.0353,-4.0354,-4.0308,-4.031,-4.031,-4.032,-4.031,-4.031,-4.032,-4.032,-4.032,-4.032,-4.032,-4.032,-4.032,-4.032,-4.032,-4.032,-4.032,-4.032,-4.032,-4.032,-4.032,-4.032,-4.032,-4.032,-4.032,-4.032,-4.032,-4.032,-4.032,-4.0263,-4.0167,-3.9823,-3.9221,-3.8259,-3.7071,-3.6255,-3.5998,-3.5434,-3.5003,-3.4894,-3.4642,-3.4575,-3.45,-3.4395,-3.4001,-3.37,-3.3269,-3.2762,-3.2274,-3.1598,-3.0931,-3.0171,-2.9692,-2.9683,-2.9683,-2.9683,-2.9655,-2.9636,-2.9626,-2.9598,-2.9579,-2.9511,-2.9377,-3.3807,-3.3807,-3.3807,-3.3807,-3.3807,-3.3807,-3.3807,-3.3807,-3.3807,-3.4302,-3.5165,-3.5532,-3.5701,-3.5862,-3.6083,-3.5936,-3.5954,-3.6611,-3.6505,-3.6688,-3.7276,-3.7441,-3.7716,-3.8046,-3.8083,-3.8193,-3.8606,-3.8777,-3.8792,-3.895,-3.9173,-3.9652,-3.9786,-4.0003,-4.043,-4.0496,-4.0496,-4.0489,-4.0503,-4.0479,-4.0419,-4.0422,-4.0415,-4.0407,-4.0407,-4.0415,-4.0424,-4.0424,-4.0388,-4.0379,-4.0407,-4.0379,-4.0353,-4.0373,-4.0327,-4.0309,-4.0319,-4.031,-4.031,-4.032,-4.032,-4.032,-4.032,-4.032,-4.032,-4.032,-4.032,-4.032,-4.032,-4.032,-4.032,-4.032,-4.032,-4.032,-4.032,-4.032,-4.032,-4.032,-4.032,-4.032,-4.032,-4.0301,-4.0244,-4.0186,-3.9575,-3.8936,-3.7661,-3.7081,-3.6673,-3.6035,-3.5586,-3.5164,-3.4969,-3.4698,-3.4575,-3.4508,-3.4376,-3.4113,-3.3851,-3.3438,-3.2912,-3.2048,-3.125,-3.0603,-3.0039,-2.9701,-2.9701,-2.9739,-2.9701,-2.9664,-2.9664,-2.9673,-2.9673,-2.9645,-2.9541,-3.3807,-3.3807,-3.3807,-3.3807,-3.382,-3.382,-3.3834,-3.3834,-3.3815,-3.3802,-3.4022,-3.4633,-3.4821,-3.5133,-3.5532,-3.5261,-3.5298,-3.5807,-3.5573,-3.5591,-3.6119,-3.6597,-3.6945,-3.7199,-3.7511,-3.7868,-3.8225,-3.8512,-3.8668,-3.8943,-3.9318,-3.9709,-3.9913,-4.0072,-4.0381,-4.0496,-4.0496,-4.0496,-4.0508,-4.0489,-4.0476,-4.0436,-4.043,-4.0413,-4.0413,-4.043,-4.0466,-4.0466,-4.0458,-4.0441,-4.0432,-4.0424,-4.0415,-4.0398,-4.0353,-4.0326,-4.0317,-4.0309,-4.032,-4.032,-4.032,-4.032,-4.032,-4.032,-4.032,-4.032,-4.032,-4.032,-4.032,-4.032,-4.032,-4.032,-4.032,-4.032,-4.032,-4.032,-4.032,-4.032,-4.032,-4.032,-4.032,-4.032,-4.0301,-4.0263,-3.9929,-3.9308,-3.8832,-3.8385,-3.7814,-3.6986,-3.632,-3.5804,-3.5419,-3.513,-3.4749,-3.4575,-3.4508,-3.447,-3.4218,-3.3944,-3.355,-3.2743,-3.1973,-3.1203,-3.0678,-3.0171,-2.9889,-2.987,-2.9814,-2.9701,-2.9701,-2.9701,-2.9692,-2.9673,-2.9655,-3.3807,-3.3807,-3.3807,-3.3829,-3.3887,-3.3887,-3.3908,-3.3965,-3.3913,-3.3887,-3.391,-3.3925,-3.4045,-3.4045,-3.4137,-3.4174,-3.4435,-3.4963,-3.5169,-3.5188,-3.562,-3.6028,-3.6427,-3.682,-3.7371,-3.7742,-3.7948,-3.7997,-3.8568,-3.9088,-3.9483,-3.9786,-4.0052,-4.0223,-4.0422,-4.0496,-4.0496,-4.0496,-4.0496,-4.0496,-4.0496,-4.0492,-4.0492,-4.0484,-4.0484,-4.0492,-4.0492,-4.0492,-4.0487,-4.0474,-4.0449,-4.0449,-4.0449,-4.0441,-4.0388,-4.0362,-4.0344,-4.0308,-4.0319,-4.031,-4.031,-4.032,-4.032,-4.032,-4.032,-4.032,-4.032,-4.032,-4.032,-4.032,-4.032,-4.032,-4.032,-4.032,-4.032,-4.032,-4.032,-4.032,-4.032,-4.032,-4.032,-4.032,-4.0301,-4.0301,-4.0282,-3.9738,-3.9346,-3.8937,-3.868,-3.789,-3.7005,-3.6444,-3.5908,-3.5375,-3.49,-3.4653,-3.4575,-3.4594,-3.4537,-3.4207,-3.3869,-3.3475,-3.2705,-3.1767,-3.1147,-3.0649,-3.0415,-2.9908,-2.9814,-2.9701,-2.9701,-2.9701,-2.9701,-2.9701,-2.9692]},{"header":{"parameterUnit":"m.s-1","parameterCategory":1,"la1":31.0,"la2":29.5877,"lo1":-88.7671,"lo2":-86.6584,"dy":0.0162,"dx":0.0185,"nx":115,"ny":88,"refTime":"2023-07-01T00:00:00:Z","depth":0,"parameterNumber":3,"parameterNumberName":"V-component_of_WINDS"},"data":[0.0,0.0,0.0,0.0,0.0,0.0,0.0,0.0,0.0,0.0,0.0,0.0,0.0,0.0,0.0,0.0,0.0,0.0,0.0,0.0,0.0,0.0,0.0,0.0,0.0,0.0,0.0,0.0,0.0,0.0,0.0,0.0,0.0,0.0,0.0,0.0,0.0,0.0,0.0,0.0,0.0,0.0,0.0,0.0,0.0,0.0,0.0,0.0,0.0,0.0,0.0,0.0,0.0,0.0,0.0,0.0,0.0,0.0,0.0,0.0,0.0,0.0,0.0,0.0,0.0,0.0,0.0,0.0,0.0,0.0,0.0,0.0,0.0,0.0,0.0,0.0,0.0,0.0,0.0,0.0,0.0,0.0,0.0,0.0,0.0,0.0,0.0,0.0,0.0,0.0,0.0,0.0,0.0,0.0,0.0,0.0,0.0,0.0,0.0,0.0,0.0,0.0,0.0,0.0,0.0,0.0,0.0,0.0,0.0,0.0,0.0,0.0,0.0,0.0,0.0,0.0,0.0,0.0,0.0,0.0,0.0,0.0,0.0,0.0,0.0,0.0,0.0,0.0,0.0,0.0,0.0,0.0,0.0,0.0,0.0,0.0,0.0,0.0,0.0,0.0,0.0,0.0,0.0,0.0,0.0,0.0,0.0,0.0,0.0,0.0,0.0,0.0,0.0,0.0,0.0,0.0,0.0,0.0,0.0,0.0,0.0,0.0,0.0,0.0,0.0,0.0,0.0,0.0,0.0,0.0,0.0,0.0,0.0,0.0,0.0,0.0,0.0,0.0,0.0,0.0,0.0,0.0,0.0,0.0,0.0,0.0,0.0,0.0,0.0,0.0,0.0,0.0,0.0,0.0,0.0,0.0,0.0,0.0,0.0,0.0,0.0,0.0,0.0,0.0,0.0,0.0,0.0,0.0,0.0,0.0,0.0,0.0,0.0,0.0,0.0,0.0,0.0,0.0,0.0,0.0,0.0,0.0,0.0,0.0,0.0,0.0,0.0,0.0,0.0,0.0,0.0,0.0,0.0,0.0,0.0,0.0,0.0,0.0,0.0,0.0,0.0,0.0,0.0,0.0,0.0,0.0,0.0,0.0,0.0,0.0,0.0,0.0,0.0,0.0,0.0,0.0,0.0,0.0,0.0,0.0,0.0,0.0,0.0,0.0,0.0,0.0,0.0,0.0,0.0,0.0,0.0,0.0,0.0,0.0,0.0,0.0,0.0,0.0,0.0,0.0,0.0,0.0,0.0,0.0,0.0,0.0,0.0,0.0,0.0,0.0,0.0,0.0,0.0,0.0,0.0,0.0,0.0,0.0,0.0,0.0,0.0,0.0,0.0,0.0,0.0,0.0,0.0,0.0,0.0,0.0,0.0,0.0,0.0,0.0,0.0,0.0,0.0,0.0,0.0,0.0,0.0,0.0,0.0,0.0,0.0,0.0,0.0,0.0,0.0,0.0,0.0,0.0,0.0,0.0,0.0,0.0,0.0,0.0,0.0,0.0,0.0,0.0,0.0,0.0,0.0,0.0,0.0,0.0,0.0,0.0,0.0,0.0,0.0,0.0,0.0,0.0,0.0,0.0,0.0,0.0,0.0,0.0,0.0,0.0,0.0,0.0,0.0,0.0,0.0,0.0,0.0,0.0,0.0,0.0,0.0,0.0,0.0,0.0,0.0,0.0,0.0,0.0,0.0,0.0,0.0,0.0,0.0,0.0,0.0,0.0,0.0,0.0,0.0,0.0,0.0,0.0,0.0,0.0,0.0,0.0,0.0,0.0,0.0,0.0,0.0,0.0,0.0,0.0,0.0,0.0,0.0,0.0,0.0,0.0,0.0,0.0,0.0,0.0,0.0,0.0,0.0,0.0,0.0,0.0,0.0,0.0,0.0,0.0,0.0,0.0,0.0,0.0,0.0,0.0,0.0,0.0,0.0,0.0,0.0,0.0,0.0,0.0,0.0,0.0,0.0,0.0,0.0,0.0,0.0,0.0,0.0,0.0,0.0,0.0,0.0,0.0,0.0,0.0,0.0,0.0,0.0,0.0,0.0,0.0,0.0,0.0,0.0,0.0,0.0,0.0,0.0,0.0,0.0,0.0,0.0,0.0,0.0,0.0,0.0,0.0,0.0,0.0,0.0,0.0,0.0,0.0,0.0,0.0,0.0,0.0,0.0,0.0,0.0,0.0,0.0,0.0,0.0,0.0,0.0,0.0,0.0,0.0,0.0,0.0,0.0,0.0,0.0,0.0,0.0,0.0,0.0,0.0,0.0,0.0,0.0,0.0,0.0,0.0,0.0,0.0,0.0,0.0,0.0,0.0,0.0,0.0,0.0,0.0,0.0,0.0,0.0,0.0,0.0,0.0,0.0,0.0,0.0,0.0,0.0,0.0,0.0,0.0,0.0,0.0,0.0,0.0,0.0,0.0,0.0,0.0,0.0,0.0,0.0,0.0,0.0,0.0,0.0,0.0,0.0,0.0,0.0,0.0,0.0,0.0,0.0,0.0,0.0,0.0,0.0,0.0,0.0,0.0,0.0,0.0,0.0,0.0,0.0,0.0,0.0,0.0,0.0,0.0,0.0,0.0,0.0,0.0,0.0,0.0,0.0,0.0,0.0,0.0,0.0,0.0,0.0,0.0,0.0,0.0,0.0,0.0,0.0,0.0,0.0,0.0,0.0,0.0,0.0,0.0,0.0,0.0,0.0,0.0,0.0,0.0,0.0,0.0,0.0,0.0,0.0,0.0,0.0,0.0,0.0,0.0,0.0,0.0,0.0,0.0,0.0,0.0,0.0,0.0,0.0,0.0,0.0,0.0,0.0,0.0,0.0,0.0,0.0,0.0,0.0,0.0,0.0,0.0,0.0,0.0,0.0,0.0,0.0,0.0,0.0,0.0,0.0,0.0,0.0,0.0,0.0,0.0,0.0,0.0,0.0,0.0,0.0,0.0,0.0,0.0,0.0,0.0,0.0,0.0,0.0,0.0,0.0,0.0,0.0,0.0,0.0,0.0,0.0,0.0,0.0,0.0,0.0,0.0,0.0,0.0,0.0,0.0,0.0,0.0,0.0,0.0,0.0,0.0,0.0,0.0,0.0,0.0,0.0,0.0,0.0,0.0,0.0,0.0,0.0,0.0,0.0,0.0,0.0,0.0,0.0,0.0,0.0,0.0,0.0,0.0,0.0,0.0,0.0,0.0,0.0,0.0,0.0,0.0,0.0,0.0,0.0,0.0,0.0,0.0,0.0,0.0,0.0,0.0,0.0,0.0,0.0,0.0,0.0,0.0,0.0,0.0,0.0,0.0,0.0,0.0,0.0,0.0,0.0,0.0,0.0,0.0,0.0,0.0,0.0,0.0,0.0,0.0,0.0,0.0,0.0,0.0,0.0,0.0,0.0,0.0,0.0,0.0,0.0,0.0,0.0,0.0,0.0,0.0,0.0,0.0,0.0,0.0,0.0,0.0,0.0,0.0,0.0,0.0,0.0,0.0,0.0,0.0,0.0,0.0,0.0,0.0,0.0,0.0,0.0,0.0,0.0,0.0,0.0,0.0,0.0,0.0,0.0,0.0,0.0,0.0,0.0,0.0,0.0,0.0,0.0,0.0,0.0,0.0,0.0,0.0,0.0,0.0,0.0,0.0,0.0,0.0,0.0,0.0,0.0,0.0,0.0,0.0,0.0,0.0,0.0,0.0,0.0,0.0,0.0,0.0,0.0,0.0,0.0,0.0,0.0,0.0,0.0,0.0,0.0,0.0,0.0,0.0,0.0,0.0,0.0,0.0,0.0,0.0,0.0,0.0,0.0,0.0,0.0,0.0,0.0,0.0,0.0,0.0,0.0,0.0,0.0,0.0,0.0,0.0,0.0,0.0,0.0,0.0,0.0,0.0,0.0,0.0,0.0,0.0,0.0,0.0,0.0,0.0,0.0,0.0,0.0,0.0,0.0,0.0,0.0,0.0,0.0,0.0,0.0,0.0,0.0,0.0,0.0,0.0,0.0,0.0,0.0,0.0,0.0,0.0,0.0,0.0,0.0,0.0,0.0,0.0,0.0,0.0,0.0,0.0,0.0,0.0,0.0,0.0,0.0,0.0,0.0,0.0,0.0,0.0,0.0,0.0,0.0,0.0,0.0,0.0,0.0,0.0,0.0,0.0,0.0,0.0,0.0,0.0,0.0,0.0,0.0,0.0,0.0,0.0,0.0,0.0,0.0,0.0,0.0,0.0,0.0,0.0,0.0,0.0,0.0,0.0,0.0,0.0,0.0,0.0,0.0,0.0,-0.8855,0.0,0.0,0.0,0.0,0.0,0.0,0.0,0.0,0.0,0.0,0.0,0.0,0.0,0.0,0.0,0.0,0.0,0.0,0.0,0.0,0.0,0.0,0.0,0.0,0.0,0.0,0.0,0.0,0.0,0.0,0.0,0.0,0.0,0.0,0.0,0.0,0.0,0.0,0.0,0.0,0.0,0.0,0.0,0.0,0.0,0.0,0.0,0.0,0.0,0.0,0.0,0.0,0.0,0.0,0.0,0.0,0.0,0.0,0.0,0.0,0.0,0.0,0.0,0.0,0.0,0.0,0.0,0.0,0.0,0.0,0.0,0.0,0.0,0.0,0.0,0.0,0.0,0.0,0.0,0.0,0.0,0.0,0.0,0.0,0.0,0.0,0.0,0.0,0.0,0.0,0.0,0.0,0.0,0.0,0.0,0.0,0.0,0.0,0.0,0.0,0.0,0.0,0.0,0.0,0.0,0.0,0.0,0.0,0.0,0.0,-0.9959,-0.9756,-0.9544,-0.9273,-0.8941,0.0,0.0,0.0,0.0,0.0,0.0,0.0,0.0,0.0,0.0,0.0,0.0,0.0,0.0,0.0,0.0,0.0,0.0,0.0,0.0,0.0,0.0,0.0,0.0,0.0,0.0,0.0,0.0,0.0,0.0,0.0,0.0,0.0,0.0,0.0,0.0,0.0,0.0,0.0,0.0,0.0,0.0,0.0,0.0,0.0,0.0,0.0,0.0,0.0,0.0,0.0,0.0,0.0,0.0,0.0,0.0,0.0,0.0,0.0,0.0,0.0,0.0,0.0,0.0,0.0,0.0,0.0,0.0,0.0,0.0,0.0,0.0,0.0,0.0,0.0,0.0,0.0,0.0,0.0,0.0,0.0,0.0,0.0,0.0,0.0,0.0,0.0,0.0,0.0,0.0,0.0,0.0,0.0,0.0,0.0,0.0,0.0,0.0,0.0,0.0,0.0,0.0,0.0,0.0,0.0,0.0,0.0,0.0,0.0,0.0,0.0,0.0,-0.9707,-0.9434,-0.8993,0.0,0.0,0.0,0.0,0.0,0.0,0.0,0.0,0.0,0.0,0.0,0.0,0.0,0.0,0.0,0.0,0.0,0.0,0.0,0.0,0.0,0.0,0.0,0.0,0.0,0.0,0.0,0.0,0.0,0.0,0.0,0.0,0.0,0.0,0.0,0.0,0.0,0.0,0.0,0.0,0.0,0.0,0.0,0.0,0.0,0.0,0.0,0.0,0.0,0.0,0.0,0.0,0.0,0.0,0.0,0.0,0.0,0.0,0.0,0.0,0.0,0.0,0.0,0.0,0.0,0.0,0.0,0.0,0.0,0.0,0.0,0.0,0.0,0.0,0.0,0.0,0.0,0.0,0.0,0.0,0.0,0.0,0.0,0.0,0.0,0.0,0.0,0.0,0.0,0.0,0.0,0.0,0.0,0.0,0.0,0.0,0.0,0.0,0.0,0.0,0.0,0.0,0.0,0.0,0.0,0.0,0.0,0.0,0.0,0.0,-1.0252,-1.0136,-0.9743,0.0,-0.8916,0.0,0.0,0.0,0.0,0.0,0.0,0.0,0.0,0.0,0.0,0.0,0.0,0.0,0.0,0.0,0.0,0.0,0.0,0.0,0.0,0.0,0.0,0.0,0.0,0.0,0.0,0.0,0.0,0.0,0.0,0.0,0.0,0.0,0.0,0.0,0.0,0.0,0.0,0.0,0.0,0.0,0.0,0.0,0.0,0.0,0.0,0.0,0.0,0.0,0.0,0.0,0.0,0.0,0.0,0.0,0.0,0.0,0.0,0.0,0.0,0.0,0.0,0.0,0.0,0.0,0.0,0.0,0.0,0.0,0.0,0.0,0.0,0.0,0.0,0.0,0.0,0.0,0.0,0.0,0.0,0.0,0.0,0.0,0.0,0.0,0.0,0.0,0.0,0.0,0.0,0.0,0.0,0.0,0.0,0.0,0.0,0.0,0.0,0.0,0.0,0.0,0.0,0.0,0.0,0.0,0.0,0.0,0.0,0.0,0.0,-1.046,-1.034,-0.9888,-0.9594,0.0,0.0,0.0,0.0,0.0,0.0,0.0,0.0,0.0,0.0,0.0,0.0,0.0,0.0,0.0,0.0,0.0,0.0,0.0,0.0,0.0,0.0,0.0,0.0,0.0,0.0,0.0,0.0,0.0,0.0,0.0,0.0,0.0,0.0,0.0,0.0,0.0,0.0,0.0,0.0,0.0,0.0,0.0,0.0,0.0,0.0,0.0,0.0,0.0,0.0,0.0,0.0,0.0,0.0,0.0,0.0,0.0,0.0,0.0,0.0,0.0,0.0,0.0,0.0,0.0,0.0,0.0,0.0,0.0,0.0,0.0,0.0,0.0,0.0,0.0,0.0,0.0,0.0,0.0,0.0,0.0,0.0,0.0,0.0,0.0,0.0,0.0,0.0,0.0,0.0,0.0,0.0,0.0,0.0,0.0,0.0,0.0,0.0,0.0,0.0,0.0,0.0,0.0,0.0,0.0,0.0,0.0,0.0,0.0,0.0,-1.0572,-1.0467,-1.0293,-1.0008,-0.9821,-0.9731,0.0,0.0,0.0,0.0,0.0,0.0,0.0,0.0,0.0,0.0,0.0,0.0,0.0,0.0,0.0,0.0,0.0,0.0,0.0,0.0,0.0,0.0,0.0,0.0,0.0,0.0,0.0,0.0,0.0,0.0,0.0,0.0,0.0,0.0,0.0,0.0,0.0,0.0,0.0,0.0,0.0,0.0,0.0,0.0,0.0,0.0,0.0,0.0,0.0,0.0,0.0,0.0,0.0,0.0,0.0,0.0,0.0,0.0,0.0,0.0,0.0,0.0,0.0,0.0,0.0,0.0,0.0,0.0,0.0,0.0,0.0,0.0,0.0,0.0,0.0,0.0,0.0,0.0,0.0,0.0,0.0,0.0,0.0,0.0,0.0,0.0,0.0,0.0,0.0,0.0,0.0,0.0,0.0,0.0,0.0,0.0,0.0,0.0,0.0,0.0,0.0,0.0,0.0,0.0,0.0,0.0,0.0,0.0,-1.0592,-1.0273,-1.0079,-1.0011,-1.0069,-0.9906,0.0,0.0,0.0,0.0,0.0,0.0,0.0,0.0,0.0,0.0,0.0,0.0,0.0,0.0,0.0,0.0,0.0,0.0,0.0,0.0,0.0,0.0,0.0,0.0,0.0,0.0,0.0,0.0,0.0,0.0,0.0,0.0,0.0,0.0,0.0,0.0,0.0,0.0,0.0,0.0,0.0,0.0,0.0,0.0,0.0,0.0,0.0,0.0,0.0,0.0,0.0,0.0,0.0,0.0,0.0,0.0,0.0,0.0,0.0,0.0,0.0,0.0,0.0,0.0,0.0,0.0,0.0,0.0,0.0,0.0,0.0,0.0,0.0,0.0,0.0,0.0,0.0,0.0,0.0,0.0,0.0,0.0,0.0,0.0,0.0,0.0,0.0,0.0,0.0,0.0,0.0,0.0,0.0,0.0,0.0,0.0,0.0,0.0,0.0,0.0,0.0,0.0,0.0,0.0,0.0,0.0,0.0,0.0,0.0,-1.0096,-0.9591,-0.9311,-0.9257,-0.9542,-0.9637,0.0,0.0,0.0,0.0,0.0,0.0,0.0,0.0,0.0,0.0,0.0,0.0,0.0,0.0,0.0,0.0,0.0,0.0,0.0,0.0,0.0,0.0,0.0,0.0,0.0,0.0,0.0,0.0,0.0,0.0,0.0,0.0,0.0,0.0,0.0,0.0,0.0,0.0,0.0,0.0,0.0,0.0,0.0,0.0,0.0,0.0,0.0,0.0,0.0,0.0,0.0,0.0,0.0,0.0,0.0,0.0,0.0,0.0,0.0,0.0,0.0,0.0,0.0,0.0,0.0,0.0,0.0,0.0,0.0,0.0,0.0,0.0,0.0,0.0,0.0,0.0,0.0,0.0,0.0,0.0,0.0,0.0,0.0,0.0,0.0,0.0,0.0,0.0,0.0,0.0,0.0,0.0,0.0,0.0,0.0,0.0,0.0,0.0,0.0,0.0,0.0,0.0,0.0,0.0,0.0,0.0,0.0,0.0,0.0,-0.9685,0.0,-0.8782,-0.8732,-0.9023,-0.9295,0.0,0.0,0.0,0.0,0.0,0.0,0.0,0.0,0.0,0.0,0.0,0.0,0.0,0.0,0.0,0.0,0.0,0.0,0.0,0.0,0.0,0.0,0.0,0.0,0.0,0.0,0.0,0.0,0.0,0.0,0.0,0.0,0.0,0.0,0.0,0.0,0.0,0.0,0.0,0.0,0.0,0.0,0.0,0.0,0.0,0.0,0.0,0.0,0.0,0.0,0.0,0.0,0.0,0.0,0.0,0.0,0.0,0.0,0.0,0.0,0.0,0.0,0.0,0.0,0.0,0.0,0.0,0.0,0.0,0.0,0.0,0.0,0.0,0.0,0.0,0.0,0.0,0.0,0.0,0.0,0.0,0.0,0.0,0.0,0.0,0.0,0.0,0.0,0.0,0.0,0.0,0.0,0.0,0.0,0.0,0.0,0.0,0.0,0.0,0.0,0.0,0.0,0.0,0.0,0.0,0.0,0.0,0.0,-1.0039,-0.9392,-0.8901,-0.8569,-0.8497,-0.8557,-0.8849,0.0,0.0,0.0,0.0,0.0,0.0,0.0,0.0,0.0,0.0,0.0,0.0,0.0,0.0,0.0,0.0,0.0,0.0,0.0,0.0,0.0,0.0,0.0,0.0,0.0,0.0,0.0,0.0,0.0,0.0,0.0,0.0,0.0,0.0,0.0,0.0,0.0,0.0,0.0,0.0,0.0,0.0,0.0,0.0,0.0,0.0,0.0,0.0,0.0,0.0,0.0,0.0,0.0,0.0,0.0,0.0,0.0,0.0,0.0,0.0,0.0,0.0,0.0,0.0,0.0,0.0,0.0,0.0,0.0,0.0,0.0,0.0,0.0,0.0,0.0,0.0,0.0,0.0,0.0,0.0,0.0,0.0,0.0,0.0,0.0,0.0,0.0,0.0,0.0,0.0,0.0,0.0,0.0,0.0,0.0,0.0,0.0,0.0,0.0,0.0,0.0,0.0,0.0,0.0,0.0,0.0,0.0,0.0,0.0,-0.8434,-0.7886,-0.7564,-0.756,-0.7918,-0.8393,0.0,0.0,0.0,0.0,0.0,0.0,0.0,0.0,0.0,0.0,0.0,0.0,0.0,0.0,0.0,0.0,0.0,0.0,0.0,0.0,0.0,0.0,0.0,0.0,0.0,0.0,0.0,0.0,0.0,0.0,0.0,0.0,0.0,0.0,0.0,0.0,0.0,0.0,0.0,0.0,0.0,0.0,0.0,0.0,0.0,0.0,0.0,0.0,0.0,0.0,0.0,0.0,0.0,0.0,0.0,0.0,0.0,0.0,0.0,0.0,0.0,0.0,0.0,0.0,0.0,0.0,0.0,0.0,0.0,0.0,0.0,0.0,0.0,0.0,0.0,0.0,0.0,0.0,0.0,0.0,0.0,0.0,0.0,0.0,0.0,0.0,0.0,0.0,0.0,0.0,0.0,0.0,0.0,0.0,0.0,0.0,0.0,0.0,0.0,0.0,0.0,0.0,0.0,0.0,0.0,0.0,0.0,0.0,0.0,-0.7998,-0.7684,-0.7504,-0.748,-0.7724,-0.8168,-0.8815,0.0,0.0,0.0,0.0,0.0,0.0,0.0,0.0,0.0,0.0,0.0,0.0,0.0,0.0,0.0,0.0,0.0,0.0,0.0,0.0,0.0,0.0,0.0,0.0,0.0,0.0,0.0,0.0,0.0,0.0,0.0,0.0,0.0,0.0,0.0,0.0,0.0,0.0,0.0,0.0,0.0,0.0,0.0,0.0,0.0,0.0,0.0,0.0,0.0,0.0,0.0,0.0,0.0,0.0,0.0,0.0,0.0,0.0,0.0,0.0,0.0,0.0,0.0,0.0,0.0,0.0,0.0,0.0,0.0,0.0,0.0,0.0,0.0,0.0,0.0,0.0,0.0,0.0,0.0,0.0,0.0,0.0,0.0,0.0,0.0,0.0,0.0,0.0,0.0,0.0,0.0,0.0,0.0,0.0,0.0,0.0,0.0,0.0,0.0,0.0,0.0,0.0,0.0,0.0,0.0,0.0,0.0,0.0,-0.8004,-0.8172,-0.8221,-0.8098,-0.7926,-0.8163,0.0,0.0,0.0,0.0,0.0,0.0,0.0,0.0,0.0,0.0,0.0,0.0,0.0,0.0,0.0,0.0,0.0,0.0,0.0,0.0,0.0,0.0,0.0,0.0,0.0,0.0,0.0,0.0,0.0,0.0,0.0,0.0,0.0,0.0,0.0,0.0,0.0,0.0,0.0,0.0,0.0,0.0,0.0,0.0,0.0,0.0,0.0,0.0,0.0,0.0,0.0,0.0,0.0,0.0,0.0,0.0,0.0,0.0,0.0,0.0,0.0,0.0,0.0,0.0,0.0,0.0,0.0,0.0,0.0,0.0,0.0,0.0,0.0,0.0,0.0,0.0,0.0,0.0,0.0,0.0,0.0,0.0,0.0,0.0,0.0,0.0,0.0,0.0,0.0,0.0,0.0,0.0,0.0,0.0,0.0,0.0,0.0,0.0,0.0,0.0,0.0,0.0,0.0,0.0,0.0,0.0,0.0,0.0,0.0,-0.8236,-0.8731,-0.8765,-0.8274,-0.8196,-0.8457,0.0,0.0,0.0,0.0,0.0,0.0,0.0,0.0,0.0,0.0,0.0,0.0,0.0,0.0,0.0,0.0,0.0,0.0,0.0,0.0,0.0,0.0,0.0,0.0,0.0,0.0,0.0,0.0,0.0,0.0,0.0,0.0,0.0,0.0,0.0,0.0,0.0,0.0,0.0,0.0,0.0,0.0,0.0,0.0,0.0,0.0,0.0,0.0,0.0,0.0,0.0,0.0,0.0,0.0,0.0,0.0,0.0,0.0,0.0,0.0,0.0,0.0,0.0,0.0,0.0,0.0,0.0,0.0,0.0,0.0,0.0,0.0,0.0,0.0,0.0,0.0,0.0,0.0,0.0,0.0,0.0,0.0,0.0,0.0,0.0,0.0,0.0,0.0,0.0,0.0,0.0,0.0,0.0,0.0,0.0,0.0,0.0,0.0,0.0,0.0,0.0,0.0,0.0,0.0,0.0,0.0,0.0,0.0,-0.824,-0.8513,-0.9111,-0.9227,-0.886,-0.884,-0.8964,0.0,0.0,0.0,0.0,0.0,0.0,0.0,0.0,0.0,0.0,0.0,0.0,0.0,0.0,0.0,0.0,0.0,0.0,0.0,0.0,0.0,0.0,0.0,0.0,0.0,0.0,0.0,0.0,0.0,0.0,0.0,0.0,0.0,0.0,0.0,0.0,0.0,0.0,0.0,0.0,0.0,0.0,0.0,0.0,0.0,0.0,0.0,0.0,0.0,0.0,0.0,0.0,0.0,0.0,0.0,0.0,0.0,0.0,0.0,0.0,0.0,0.0,0.0,0.0,0.0,0.0,0.0,0.0,0.0,0.0,0.0,0.0,0.0,0.0,0.0,0.0,0.0,0.0,0.0,0.0,0.0,0.0,0.0,0.0,0.0,0.0,0.0,0.0,0.0,0.0,0.0,0.0,0.0,0.0,0.0,0.0,0.0,0.0,0.0,0.0,0.0,0.0,0.0,0.0,0.0,0.0,0.0,0.0,-0.8603,-0.8839,-0.9332,-0.9614,-0.9625,-0.962,-0.951,0.0,0.0,0.0,0.0,0.0,0.0,0.0,0.0,0.0,0.0,0.0,0.0,0.0,0.0,0.0,0.0,0.0,0.0,0.0,0.0,0.0,0.0,0.0,0.0,0.0,0.0,0.0,0.0,0.0,0.0,0.0,0.0,0.0,0.0,0.0,0.0,0.0,0.0,0.0,0.0,0.0,0.0,0.0,0.0,0.0,0.0,0.0,0.0,0.0,0.0,0.0,0.0,0.0,0.0,0.0,0.0,0.0,0.0,0.0,0.0,0.0,0.0,0.0,0.0,0.0,0.0,0.0,0.0,0.0,0.0,0.0,0.0,0.0,0.0,0.0,0.0,0.0,0.0,0.0,0.0,0.0,0.0,0.0,0.0,0.0,0.0,0.0,0.0,0.0,0.0,0.0,0.0,0.0,0.0,0.0,0.0,0.0,0.0,0.0,0.0,0.0,0.0,0.0,0.0,0.0,0.0,0.0,0.0,-0.8724,-0.9107,-0.9431,-0.9614,-0.9607,-0.9612,-0.9579,0.0,0.0,0.0,0.0,0.0,0.0,0.0,0.0,0.0,0.0,0.0,0.0,0.0,0.0,0.0,0.0,0.0,0.0,0.0,0.0,0.0,0.0,0.0,0.0,0.0,0.0,0.0,0.0,0.0,0.0,0.0,0.0,0.0,0.0,0.0,0.0,0.0,0.0,0.0,0.0,0.0,0.0,0.0,0.0,0.0,0.0,0.0,0.0,-1.3033,0.0,0.0,0.0,0.0,0.0,0.0,0.0,0.0,0.0,0.0,0.0,0.0,0.0,0.0,0.0,0.0,0.0,0.0,0.0,0.0,0.0,0.0,0.0,0.0,0.0,0.0,0.0,0.0,0.0,0.0,0.0,0.0,0.0,0.0,0.0,0.0,0.0,0.0,0.0,0.0,0.0,0.0,0.0,0.0,0.0,0.0,0.0,0.0,0.0,0.0,0.0,0.0,0.0,0.0,0.0,0.0,0.0,0.0,0.0,-0.8889,-0.9217,-0.946,-0.9614,-0.9625,-0.9622,-0.9611,0.0,0.0,0.0,0.0,0.0,0.0,0.0,0.0,0.0,0.0,0.0,0.0,0.0,0.0,0.0,0.0,0.0,0.0,0.0,0.0,0.0,0.0,0.0,0.0,0.0,0.0,0.0,0.0,0.0,0.0,0.0,0.0,0.0,0.0,0.0,0.0,0.0,0.0,0.0,0.0,0.0,0.0,0.0,0.0,0.0,0.0,0.0,0.0,0.0,0.0,0.0,0.0,0.0,0.0,0.0,0.0,0.0,0.0,0.0,0.0,0.0,0.0,0.0,0.0,0.0,0.0,0.0,0.0,0.0,0.0,0.0,0.0,0.0,0.0,0.0,0.0,0.0,0.0,0.0,0.0,0.0,0.0,0.0,0.0,0.0,0.0,0.0,0.0,0.0,0.0,0.0,0.0,0.0,0.0,0.0,0.0,0.0,0.0,0.0,0.0,0.0,0.0,0.0,0.0,0.0,0.0,0.0,-0.8489,-0.9068,-0.9258,-0.949,-0.9614,-0.9614,-0.9575,-0.958,-0.9613,0.0,0.0,0.0,0.0,0.0,0.0,0.0,0.0,0.0,0.0,0.0,0.0,0.0,0.0,0.0,0.0,0.0,0.0,0.0,0.0,0.0,0.0,0.0,0.0,0.0,0.0,0.0,0.0,0.0,0.0,0.0,0.0,0.0,0.0,0.0,0.0,0.0,0.0,-1.236,-1.2667,0.0,0.0,0.0,0.0,0.0,0.0,0.0,0.0,-1.2614,0.0,0.0,0.0,0.0,0.0,0.0,0.0,0.0,0.0,0.0,0.0,0.0,0.0,0.0,0.0,0.0,0.0,0.0,0.0,0.0,0.0,0.0,0.0,0.0,0.0,0.0,0.0,0.0,0.0,0.0,0.0,0.0,0.0,0.0,0.0,0.0,0.0,0.0,0.0,0.0,0.0,0.0,0.0,0.0,0.0,0.0,0.0,0.0,0.0,0.0,0.0,0.0,0.0,0.0,0.0,0.0,-0.7906,-0.8521,-0.9045,-0.9526,-0.9559,-0.9614,-0.9607,-0.954,-0.954,-0.9582,0.0,0.0,0.0,0.0,0.0,0.0,0.0,0.0,0.0,0.0,0.0,0.0,0.0,0.0,0.0,0.0,0.0,0.0,0.0,0.0,0.0,0.0,0.0,0.0,0.0,0.0,0.0,0.0,0.0,0.0,0.0,0.0,0.0,0.0,0.0,0.0,0.0,0.0,0.0,-1.2853,-1.2945,0.0,0.0,0.0,0.0,0.0,0.0,0.0,0.0,-1.2422,0.0,0.0,0.0,0.0,0.0,0.0,0.0,0.0,0.0,0.0,0.0,0.0,0.0,0.0,0.0,0.0,0.0,0.0,0.0,0.0,0.0,0.0,0.0,0.0,0.0,0.0,0.0,0.0,0.0,0.0,0.0,0.0,0.0,0.0,0.0,0.0,0.0,0.0,0.0,0.0,0.0,0.0,0.0,0.0,0.0,0.0,0.0,0.0,0.0,0.0,0.0,0.0,0.0,0.0,0.0,-0.8488,-0.87,-0.905,-0.9592,-0.9614,-0.9614,-0.9607,-0.954,-0.9516,0.0,0.0,0.0,0.0,0.0,0.0,0.0,0.0,0.0,0.0,0.0,0.0,0.0,0.0,0.0,0.0,0.0,0.0,0.0,0.0,0.0,0.0,0.0,0.0,0.0,0.0,0.0,0.0,0.0,0.0,0.0,0.0,0.0,0.0,0.0,0.0,0.0,0.0,0.0,0.0,-1.2488,-1.2624,-1.2527,0.0,0.0,0.0,0.0,0.0,0.0,-1.2392,-1.2516,0.0,0.0,0.0,0.0,0.0,0.0,0.0,0.0,0.0,0.0,0.0,0.0,0.0,0.0,0.0,0.0,0.0,0.0,0.0,0.0,0.0,0.0,0.0,0.0,0.0,0.0,0.0,0.0,0.0,0.0,0.0,0.0,0.0,0.0,0.0,0.0,0.0,0.0,0.0,0.0,0.0,0.0,0.0,0.0,0.0,0.0,0.0,0.0,0.0,0.0,0.0,0.0,0.0,0.0,0.0,-0.8928,-0.8826,-0.9043,-0.9585,-0.9614,-0.9566,-0.9526,-0.9492,-0.947,0.0,0.0,0.0,0.0,0.0,0.0,0.0,0.0,0.0,0.0,0.0,0.0,0.0,0.0,0.0,0.0,0.0,0.0,0.0,0.0,0.0,0.0,0.0,0.0,0.0,0.0,0.0,0.0,0.0,0.0,0.0,0.0,0.0,0.0,0.0,0.0,0.0,0.0,0.0,0.0,0.0,-1.2075,-1.1786,-1.1645,0.0,0.0,0.0,0.0,-1.1737,-1.2302,0.0,0.0,0.0,0.0,0.0,0.0,0.0,0.0,0.0,0.0,0.0,0.0,0.0,0.0,0.0,0.0,0.0,0.0,0.0,0.0,0.0,0.0,0.0,0.0,0.0,0.0,0.0,0.0,0.0,0.0,0.0,0.0,0.0,0.0,0.0,0.0,0.0,0.0,0.0,0.0,0.0,0.0,0.0,0.0,0.0,0.0,0.0,0.0,0.0,0.0,0.0,0.0,0.0,0.0,0.0,0.0,-0.8796,-0.8748,-0.8985,-0.9577,-0.9614,-0.949,-0.9258,-0.9304,-0.9302,0.0,0.0,0.0,0.0,0.0,0.0,0.0,0.0,0.0,0.0,0.0,0.0,0.0,0.0,0.0,0.0,0.0,0.0,0.0,0.0,0.0,0.0,0.0,0.0,0.0,0.0,0.0,0.0,0.0,0.0,0.0,0.0,0.0,0.0,0.0,0.0,0.0,0.0,0.0,0.0,0.0,-1.1445,-1.1526,-1.1132,-1.0933,0.0,0.0,-1.1534,-1.1534,-1.1904,0.0,0.0,0.0,0.0,0.0,0.0,0.0,0.0,0.0,0.0,0.0,0.0,0.0,0.0,0.0,0.0,0.0,0.0,0.0,0.0,0.0,0.0,0.0,0.0,0.0,0.0,0.0,0.0,0.0,0.0,0.0,0.0,0.0,0.0,0.0,0.0,0.0,0.0,0.0,0.0,0.0,0.0,0.0,0.0,0.0,0.0,0.0,0.0,0.0,0.0,0.0,0.0,0.0,0.0,0.0,-0.8483,-0.908,-0.8666,-0.8745,-0.9336,-0.9365,-0.9211,-0.8928,-0.9174,-0.9388,0.0,0.0,0.0,0.0,0.0,0.0,0.0,0.0,0.0,0.0,0.0,0.0,0.0,0.0,0.0,0.0,0.0,0.0,0.0,0.0,0.0,0.0,0.0,0.0,0.0,0.0,0.0,0.0,0.0,0.0,0.0,0.0,0.0,0.0,0.0,0.0,0.0,0.0,0.0,0.0,0.0,0.0,-1.0975,-1.084,0.0,0.0,0.0,-1.1375,-1.1394,0.0,0.0,0.0,0.0,0.0,0.0,0.0,0.0,0.0,0.0,0.0,0.0,0.0,0.0,0.0,0.0,0.0,0.0,0.0,0.0,0.0,0.0,0.0,0.0,0.0,0.0,0.0,0.0,0.0,0.0,0.0,0.0,0.0,0.0,0.0,0.0,0.0,0.0,0.0,0.0,0.0,0.0,0.0,0.0,0.0,0.0,0.0,0.0,0.0,0.0,0.0,0.0,0.0,0.0,0.0,0.0,0.0,-0.9318,-0.86,-0.8516,-0.917,-0.9175,-0.8985,-0.8613,-0.9066,0.0,0.0,0.0,0.0,0.0,0.0,0.0,0.0,0.0,0.0,0.0,0.0,0.0,0.0,0.0,0.0,0.0,0.0,0.0,0.0,0.0,0.0,0.0,0.0,0.0,0.0,0.0,-1.0099,0.0,0.0,0.0,0.0,0.0,0.0,0.0,0.0,0.0,0.0,0.0,0.0,0.0,0.0,-1.0547,-1.0554,-1.0634,-1.0693,0.0,0.0,-1.13,-1.1364,-1.1792,-1.2084,0.0,0.0,0.0,0.0,0.0,0.0,0.0,0.0,0.0,0.0,0.0,0.0,0.0,0.0,0.0,0.0,0.0,0.0,0.0,0.0,0.0,0.0,0.0,0.0,0.0,0.0,0.0,0.0,0.0,0.0,0.0,0.0,0.0,0.0,0.0,0.0,0.0,0.0,0.0,0.0,0.0,0.0,0.0,0.0,0.0,0.0,0.0,0.0,0.0,0.0,0.0,0.0,0.0,0.0,-0.8848,-0.9188,-0.8554,-0.8524,-0.917,-0.9175,-0.8875,-0.8268,-0.9039,-0.9447,0.0,0.0,0.0,0.0,0.0,0.0,0.0,0.0,0.0,0.0,0.0,0.0,0.0,0.0,0.0,0.0,0.0,0.0,0.0,0.0,0.0,0.0,0.0,0.0,0.0,0.0,0.0,0.0,0.0,0.0,0.0,0.0,0.0,0.0,0.0,0.0,0.0,0.0,0.0,0.0,0.0,-1.0397,-1.042,-1.0515,-1.0682,0.0,-1.1113,-1.1311,-1.1542,-1.1866,-1.2084,-1.2084,0.0,0.0,0.0,0.0,0.0,0.0,0.0,0.0,0.0,0.0,0.0,0.0,0.0,0.0,0.0,0.0,0.0,0.0,0.0,0.0,0.0,0.0,0.0,0.0,0.0,0.0,0.0,0.0,0.0,0.0,0.0,0.0,0.0,0.0,0.0,0.0,0.0,0.0,0.0,0.0,0.0,0.0,0.0,0.0,0.0,0.0,0.0,0.0,0.0,0.0,0.0,0.0,0.0,-0.9075,-0.9192,-0.8729,-0.8809,-0.9409,-0.9295,-0.8884,-0.8216,-0.8828,-0.9221,0.0,0.0,0.0,0.0,0.0,0.0,0.0,0.0,0.0,0.0,0.0,0.0,0.0,0.0,0.0,0.0,0.0,0.0,0.0,0.0,0.0,0.0,0.0,0.0,0.0,0.0,0.0,0.0,-0.9712,-0.959,-0.9503,0.0,0.0,0.0,0.0,0.0,0.0,0.0,0.0,0.0,0.0,-1.0352,-1.0337,-1.042,0.0,0.0,-1.1174,-1.1568,-1.1604,-1.2166,-1.2475,-1.2159,-1.2084,0.0,0.0,0.0,0.0,0.0,0.0,0.0,0.0,0.0,0.0,0.0,0.0,0.0,0.0,0.0,0.0,0.0,0.0,0.0,0.0,0.0,0.0,0.0,0.0,0.0,0.0,-0.6862,-0.6848,0.0,0.0,0.0,0.0,0.0,0.0,0.0,0.0,0.0,0.0,0.0,0.0,0.0,0.0,0.0,0.0,0.0,0.0,0.0,0.0,0.0,0.0,0.0,0.0,-0.9097,-0.92,-0.8884,-0.8992,-0.9573,-0.9321,-0.8936,-0.8377,-0.8819,-0.9245,0.0,0.0,0.0,0.0,0.0,0.0,0.0,0.0,0.0,0.0,0.0,0.0,0.0,0.0,0.0,0.0,0.0,0.0,0.0,0.0,0.0,0.0,0.0,0.0,0.0,0.0,0.0,0.0,-0.9782,-0.9605,-0.9554,0.0,0.0,0.0,0.0,0.0,0.0,0.0,0.0,0.0,0.0,-1.0588,-1.037,-1.0519,-1.0598,-1.0498,-1.1099,-1.1582,-1.1653,-1.22,-1.254,-1.2371,0.0,0.0,0.0,0.0,0.0,0.0,0.0,0.0,0.0,0.0,0.0,0.0,0.0,0.0,0.0,0.0,0.0,0.0,0.0,0.0,0.0,0.0,0.0,0.0,0.0,0.0,0.0,-0.7202,0.0,0.0,-0.7209,0.0,0.0,0.0,0.0,0.0,0.0,0.0,0.0,0.0,0.0,0.0,0.0,0.0,0.0,0.0,0.0,0.0,0.0,0.0,0.0,0.0,0.0,-0.8875,-0.9185,-0.8882,-0.9007,-0.9566,-0.9354,-0.9046,-0.8699,-0.9016,-0.9637,-1.0549,0.0,0.0,0.0,0.0,0.0,0.0,0.0,0.0,0.0,0.0,0.0,0.0,0.0,0.0,0.0,0.0,0.0,0.0,0.0,0.0,0.0,0.0,0.0,0.0,0.0,0.0,-1.0308,-0.9702,-0.9234,0.0,0.0,0.0,0.0,0.0,0.0,0.0,0.0,0.0,-1.0919,-1.1228,-1.1214,-1.0526,-1.0848,-1.1087,-1.0733,-1.0899,-1.122,-1.1723,-1.1904,-1.2136,0.0,0.0,0.0,0.0,0.0,0.0,0.0,0.0,0.0,0.0,0.0,0.0,0.0,0.0,0.0,0.0,0.0,0.0,0.0,0.0,0.0,0.0,0.0,0.0,0.0,0.0,0.0,-0.7953,-0.7881,0.0,0.0,0.0,0.0,0.0,0.0,0.0,0.0,0.0,0.0,0.0,-0.8531,-0.8743,0.0,0.0,0.0,0.0,0.0,0.0,0.0,0.0,0.0,0.0,0.0,0.0,-0.9263,-0.9222,-0.95,-0.9731,-0.9921,-0.9636,-0.9321,-0.9046,-0.9501,-1.0229,-1.1226,0.0,0.0,0.0,0.0,0.0,0.0,0.0,0.0,0.0,0.0,0.0,0.0,0.0,0.0,0.0,0.0,0.0,0.0,0.0,0.0,0.0,0.0,0.0,0.0,0.0,-1.0148,0.0,0.0,0.0,0.0,0.0,0.0,0.0,0.0,0.0,0.0,-1.0766,-1.1239,-1.1765,-1.1775,-1.1771,-1.179,-1.1718,-1.1592,0.0,0.0,0.0,0.0,0.0,0.0,0.0,0.0,0.0,0.0,0.0,0.0,0.0,0.0,-1.3023,-1.2852,-1.3195,-1.3559,-1.3617,0.0,0.0,0.0,0.0,0.0,0.0,0.0,0.0,0.0,0.0,0.0,0.0,0.0,0.0,-0.8538,-0.856,-0.8782,0.0,0.0,0.0,0.0,0.0,0.0,0.0,0.0,-0.8648,-0.8751,-0.8892,-0.9097,-0.9175,-0.9207,-0.9255,-0.8868,0.0,0.0,0.0,0.0,0.0,0.0,0.0,0.0,-0.9416,-0.9351,-0.9841,-1.0097,-1.0089,-0.9775,-0.9519,-0.9361,-1.0038,-1.0791,-1.1565,-1.2096,-1.2394,0.0,0.0,0.0,0.0,0.0,0.0,0.0,0.0,0.0,0.0,0.0,0.0,0.0,0.0,0.0,0.0,0.0,0.0,0.0,0.0,0.0,0.0,0.0,-1.0311,0.0,0.0,0.0,0.0,0.0,0.0,0.0,0.0,0.0,-1.0414,-1.0935,-1.1569,-1.2249,-1.2306,-1.2373,-1.2594,0.0,0.0,0.0,0.0,0.0,0.0,0.0,-1.3676,-1.3673,-1.4063,-1.4396,-1.4396,-1.4247,-1.4121,-1.4132,0.0,0.0,-1.3433,-1.3677,-1.4013,-1.4021,-1.4232,-1.4356,-1.4185,-1.4333,-1.4425,0.0,0.0,0.0,0.0,-0.873,0.0,0.0,0.0,-0.9192,-0.9178,0.0,-0.92,0.0,0.0,0.0,0.0,-0.8699,-0.8699,0.0,0.0,-0.9431,-0.9453,-0.9222,-0.9214,-0.9214,-0.92,-0.8921,-0.8736,-0.8774,-0.9307,-0.946,0.0,0.0,0.0,0.0,0.0,-0.9336,-0.9607,-0.995,-1.0104,-1.0068,-0.9775,-0.9614,-0.9658,-1.0635,-1.131,-1.163,-1.2455,-1.2905,-1.2905,-1.248,0.0,0.0,0.0,0.0,0.0,0.0,0.0,0.0,0.0,0.0,0.0,0.0,0.0,0.0,0.0,0.0,0.0,0.0,0.0,0.0,-1.0575,0.0,0.0,0.0,0.0,0.0,0.0,0.0,0.0,0.0,-1.1565,-1.1164,-1.1509,-1.1935,-1.2431,0.0,0.0,0.0,0.0,-1.3423,-1.3103,-1.3113,-1.3168,-1.317,-1.3671,-1.4305,-1.4994,0.0,0.0,-1.5911,-1.5463,-1.5143,-1.5131,-1.5649,-1.5649,-1.4173,-1.3982,-1.3968,-1.4014,-1.436,-1.4477,-1.4132,-1.4506,-1.4734,-0.9438,0.0,0.0,0.0,0.0,-0.9068,-0.9112,-0.9175,-0.9175,-0.9175,-0.9214,-0.9394,0.0,0.0,0.0,0.0,0.0,0.0,-0.9087,-0.92,-0.9263,-0.9365,-0.949,-0.9464,-0.9482,-0.9482,-0.9394,-0.9343,-0.9358,-0.95,-0.9201,-0.8494,0.0,0.0,0.0,0.0,-0.9768,-0.9624,-1.0163,-1.0221,-0.976,-0.9665,-0.9803,-1.0164,-1.0846,-1.1433,-1.1926,-1.256,-1.2915,-1.2905,-1.2764,0.0,0.0,0.0,0.0,0.0,0.0,0.0,0.0,0.0,0.0,0.0,0.0,0.0,0.0,0.0,0.0,0.0,0.0,0.0,-1.0687,-1.0401,-1.0095,0.0,0.0,0.0,0.0,0.0,0.0,0.0,0.0,0.0,-1.2672,-1.3067,-1.3503,0.0,0.0,-1.3788,-1.4206,-1.428,-1.4261,-1.414,-1.4387,0.0,-1.4529,-1.492,-1.5311,-1.5624,-1.6095,-1.6392,-1.6403,-1.6266,-1.6163,-1.6187,-1.6338,-1.6305,-1.5925,-1.5626,-1.5401,-1.5139,-1.5151,-1.5244,-1.5223,-1.5316,-1.5407,-1.0068,-0.9735,-0.9486,-0.9449,-0.9541,-0.9566,-0.9647,-0.9724,-0.9599,-0.9566,-0.9581,-0.9731,-0.9643,-0.9358,-0.9533,0.0,0.0,0.0,-0.9614,-0.9765,-0.9765,-0.9833,-0.9994,-1.0002,-0.9929,-0.9785,-0.9804,-0.9712,-0.9614,-0.9614,-0.927,-0.8619,0.0,-0.8965,-0.9072,-0.9753,-1.0002,-0.9848,-1.0448,-1.047,-0.9826,-0.9804,-0.9982,-1.0403,-1.093,-1.1485,-1.2076,-1.2406,-1.2578,-1.2578,-1.2348,-1.2055,0.0,0.0,0.0,0.0,0.0,0.0,0.0,0.0,0.0,0.0,0.0,-1.1217,-1.1039,0.0,0.0,0.0,-1.0918,-1.0809,-1.0649,-1.0252,0.0,0.0,0.0,0.0,0.0,0.0,0.0,-1.1095,-1.1886,-1.2584,-1.3032,-1.3739,-1.4231,-1.4274,-1.4043,-1.4007,-1.4475,0.0,-1.4915,-1.4978,-1.5357,-1.5556,-1.5368,-1.5699,-1.6086,-1.6438,-1.6873,-1.7194,-1.7206,-1.7194,-1.7194,-1.7194,-1.7194,-1.7068,-1.6679,-1.6469,-1.6207,-1.5765,-1.5648,-1.5613,-1.5494,-1.5678,-1.5841,-1.0762,-1.0653,-1.0089,-0.9965,-1.0133,-1.0141,-1.0309,-1.0586,-1.0265,-1.0141,-1.0141,-1.0133,-0.9972,-0.9694,-0.9694,0.0,-1.0133,-1.0141,-1.0294,-1.058,-1.058,-1.058,-1.058,-1.058,-1.0433,-1.0141,-1.0141,-0.998,-0.9676,-0.9694,-0.9541,-0.9288,-0.9302,-0.9402,-0.9595,-0.9936,-1.0111,-1.0148,-1.0726,-1.0762,-1.0119,-1.0068,-1.0162,-1.0334,-1.0846,-1.1385,-1.1927,-1.2002,-1.2017,-1.2026,-1.1485,-1.1209,-1.1209,0.0,0.0,0.0,0.0,0.0,0.0,0.0,0.0,0.0,0.0,0.0,0.0,0.0,0.0,0.0,-1.1074,0.0,-1.0563,-1.0178,0.0,0.0,0.0,-1.0539,-1.1337,-1.124,-1.1176,-1.1299,0.0,0.0,-1.2723,-1.3697,-1.4281,-1.3845,-1.3804,-1.3892,-1.411,-1.4824,-1.5388,-1.5564,-1.6077,-1.6262,-1.5924,-1.6219,-1.6669,-1.722,-1.7779,-1.8043,-1.8027,-1.8027,-1.81,-1.8015,-1.8066,-1.7768,-1.6828,-1.6612,-1.6403,-1.5957,-1.5843,-1.5659,-1.528,-1.5626,-1.5939,-1.1886,-1.1668,-1.1762,-1.1311,-1.0477,-1.047,-1.0514,-1.058,-1.0535,-1.047,-1.047,-1.0506,-1.0454,-1.0353,-1.036,-1.0397,-1.047,-1.047,-1.0514,-1.058,-1.058,-1.058,-1.058,-1.058,-1.055,-1.0477,-1.047,-1.0433,-1.0353,-1.0353,-1.0199,-0.9907,-1.0126,-1.0038,-0.9617,-0.9936,-1.0221,-1.0498,-1.0624,-1.0507,-1.0104,-0.9855,-0.9739,-0.9803,-1.0318,-1.0659,-1.0812,-1.1209,-1.141,-1.141,-1.1276,-1.1183,-1.1141,-1.1276,0.0,0.0,0.0,0.0,0.0,0.0,0.0,0.0,0.0,-1.1073,-1.0678,0.0,-1.1031,0.0,-1.0847,-1.0981,-1.0739,-1.0603,0.0,0.0,-1.0262,-1.0414,-1.0682,-1.1118,-1.1643,-1.2202,-1.2738,-1.3204,-1.3638,-1.3832,-1.3879,-1.3608,-1.3884,-1.4172,-1.4381,-1.5061,-1.5607,-1.5845,-1.6671,-1.7173,-1.6729,-1.6914,-1.7194,-1.7384,-1.7768,-1.81,-1.8084,-1.8084,-1.8084,-1.8088,-1.7779,-1.7473,-1.722,-1.6623,-1.6071,-1.59,-1.559,-1.5303,-1.5256,-1.5417,-1.5497,-1.2383,-1.2237,-1.2412,-1.2076,-1.1443,-1.1297,-1.1201,-1.1224,-1.1107,-1.1048,-1.1041,-1.0894,-1.0909,-1.1019,-1.1048,-1.1099,-1.1231,-1.1231,-1.1238,-1.1231,-1.1231,-1.115,-1.1056,-1.1048,-1.0975,-1.0836,-1.0836,-1.0762,-1.0616,-1.058,-1.0492,-1.0331,-1.0674,-1.0652,-1.0287,-1.0441,-1.0624,-1.0828,-1.0689,-1.0499,-1.0324,-1.0141,-0.9914,-0.9629,-1.0113,-1.0403,-1.0403,-1.0702,-1.0829,-1.0829,-1.0617,-1.0464,-1.0446,-1.048,-1.0482,0.0,0.0,0.0,0.0,0.0,0.0,0.0,0.0,0.0,0.0,0.0,-1.0829,-1.059,-1.0898,-1.0981,-1.0689,-1.0629,-1.0678,-1.088,-1.0807,-1.0973,-1.1537,-1.1637,-1.1847,-1.2233,-1.2448,-1.2749,-1.3197,-1.3383,-1.3467,-1.3485,-1.3911,-1.416,-1.4142,-1.4756,-1.5362,-1.57,-1.674,-1.745,-1.7149,-1.7291,-1.7396,-1.7415,-1.7779,-1.8084,-1.8084,-1.8084,-1.8084,-1.805,-1.7725,-1.7315,-1.706,-1.6476,-1.5854,-1.5567,-1.5326,-1.5165,-1.5222,-1.5289,-1.5401,-1.2594,-1.255,-1.2628,-1.2628,-1.2536,-1.2244,-1.2105,-1.204,-1.1765,-1.1635,-1.1584,-1.1379,-1.1423,-1.165,-1.1694,-1.187,-1.2054,-1.2062,-1.2069,-1.2062,-1.2025,-1.1889,-1.1657,-1.1613,-1.1437,-1.1166,-1.1166,-1.1019,-1.074,-1.0748,-1.0777,-1.0733,-1.1077,-1.1291,-1.1291,-1.126,-1.1202,-1.1107,-1.0865,-1.0689,-1.0682,-1.0594,-1.0278,-0.9709,-1.0084,-1.0293,-1.0293,-1.03,-1.03,-1.0275,-0.9855,-0.9614,-0.9614,-0.9663,-0.9692,0.0,-0.9569,0.0,0.0,0.0,0.0,0.0,0.0,0.0,0.0,-1.0245,-1.0621,-1.0853,-1.0972,-1.0956,-1.0689,-1.0679,-1.1011,-1.1842,-1.1612,-1.1761,-1.2698,-1.2229,-1.1846,-1.1865,-1.1887,-1.2028,-1.2485,-1.2837,-1.3198,-1.3481,-1.3911,-1.407,-1.3782,-1.4469,-1.5186,-1.542,-1.6433,-1.7153,-1.7251,-1.7343,-1.7396,-1.7453,-1.7806,-1.81,-1.8084,-1.8084,-1.8084,-1.8066,-1.7699,-1.7269,-1.677,-1.6323,-1.5877,-1.5498,-1.5337,-1.5211,-1.5131,-1.5266,-1.5446,-1.3155,-1.2943,-1.3199,-1.3155,-1.2914,-1.2813,-1.2672,-1.2409,-1.2054,-1.1802,-1.1635,-1.2043,-1.2138,-1.1937,-1.2219,-1.2372,-1.2397,-1.2397,-1.2431,-1.2383,-1.2127,-1.1967,-1.1901,-1.1684,-1.1562,-1.1496,-1.1503,-1.1467,-1.1415,-1.1633,-1.1633,-1.143,-1.1955,-1.2215,-1.2248,0.0,0.0,0.0,-1.1305,-1.1283,-1.1012,-1.0463,-1.0141,-1.0009,-0.9824,0.0,-0.9744,-0.9744,-0.9751,-0.9751,-0.9666,0.0,0.0,0.0,0.0,0.0,0.0,0.0,0.0,0.0,0.0,0.0,-0.9089,-0.9133,-0.9509,-0.9662,-0.9992,-1.0653,-1.0759,-1.1016,-1.1587,-1.1604,-1.1746,-1.2223,-1.1956,-1.1809,-1.1991,-1.1661,-1.1515,-1.1783,-1.2091,-1.2432,-1.2812,-1.3185,-1.3425,-1.3524,-1.3911,-1.416,-1.4091,-1.4893,-1.5527,-1.571,-1.6297,-1.6747,-1.695,-1.7224,-1.7427,-1.7438,-1.7779,-1.8077,-1.8084,-1.8084,-1.8084,-1.8111,-1.7737,-1.7384,-1.7232,-1.683,-1.6392,-1.6348,-1.6016,-1.5625,-1.52,-1.5153,-1.5176,-1.3397,-1.3265,-1.3426,-1.3397,0.0,-1.325,-1.3155,-1.298,-1.2623,-1.2423,-1.2292,-1.2419,-1.2397,-1.2251,-1.2419,-1.2614,-1.2726,-1.276,-1.2672,-1.2519,-1.2485,-1.2255,-1.1802,-1.1794,-1.1706,-1.1599,-1.1591,-1.1672,-1.1802,-1.1955,-1.2003,-1.2075,-1.2519,-1.2726,-1.2767,-1.2921,-1.2606,-1.1794,-1.1665,-1.1511,-1.1327,-1.0675,-1.0265,-1.0097,-0.9782,0.0,0.0,0.0,0.0,0.0,0.0,0.0,0.0,-1.007,-1.0193,-1.0193,-1.0213,-1.0139,-0.9965,-0.9743,-0.9621,-0.9636,-0.9673,-0.9661,-0.9594,-0.9971,-1.0363,-1.0759,-1.0952,-1.1203,-1.1595,-1.1768,-1.203,-1.2369,-1.2066,-1.1943,-1.2225,-1.173,-1.1439,-1.1746,-1.1977,-1.2261,-1.2637,-1.3014,-1.3305,-1.3507,-1.3911,-1.4309,-1.4567,-1.5196,-1.5788,-1.6163,-1.643,-1.6748,-1.7037,-1.7319,-1.7534,-1.7607,-1.7858,-1.8061,-1.8084,-1.8084,-1.8084,-1.8077,-1.7725,-1.7396,-1.7361,-1.6968,-1.653,-1.6323,-1.6256,-1.5957,-1.5303,-1.5153,-1.521,-1.3492,-1.3492,-1.3492,-1.3492,-1.3492,-1.3492,-1.3492,-1.3477,-1.3214,0.0,0.0,-1.2726,-1.2623,-1.2572,-1.2631,-1.284,-1.3089,-1.3089,-1.295,-1.2709,-1.2906,-1.2584,-1.187,-1.2021,-1.1984,-1.1775,-1.176,-1.1867,-1.2083,-1.2149,-1.231,-1.258,-1.2928,-1.3097,-1.3111,-1.336,-1.3228,-1.2694,-1.2058,-1.1731,-1.1657,-1.1041,-1.0572,-1.028,-0.9899,-0.9697,-0.9782,-0.9705,-0.9697,-0.979,-1.0038,-1.0192,-1.0192,-1.0243,-1.0272,-1.0265,-1.0075,-0.9902,-0.9877,-0.9877,-0.9958,-1.0177,-1.0433,-1.0381,-0.991,-1.0469,-1.0884,-1.0911,-1.1225,-1.147,-1.157,-1.189,-1.2237,-1.2634,-1.2282,-1.2284,-1.2846,-1.2134,-1.1653,-1.1849,-1.2011,-1.2131,-1.2492,-1.2897,-1.3168,-1.3494,-1.3992,-1.4547,-1.5079,-1.5575,-1.6048,-1.6534,-1.6691,-1.687,-1.7106,-1.7363,-1.7629,-1.7655,-1.7881,-1.8041,-1.8096,-1.8084,-1.8084,-1.8084,-1.7783,-1.7588,-1.7496,-1.7232,-1.6747,-1.6382,-1.652,-1.652,-1.5751,-1.5522,-1.5487,-1.3492,-1.3492,-1.3492,-1.3492,-1.3492,-1.3492,-1.3492,-1.3492,-1.344,-1.3111,-1.2587,-1.3133,-1.3199,-1.295,-1.3228,-1.3382,-1.3426,-1.3418,-1.3404,-1.3338,-1.3119,-1.2943,-1.2797,-1.2562,-1.2431,-1.2387,-1.2387,-1.2409,-1.2441,-1.2731,-1.2864,-1.2972,-1.3265,-1.3418,-1.3433,-1.347,-1.3448,-1.3345,-1.2716,-1.2248,-1.1937,-1.1333,-1.1019,-1.0946,-1.0346,-1.017,-1.0441,-1.0177,-1.0163,-1.0433,-1.052,-1.0542,-1.0528,-1.0777,-1.0968,-1.0982,-1.118,-1.1195,-1.0887,-1.0894,-1.0799,-1.0572,-1.0594,-1.055,-1.0488,-1.0576,-1.0727,-1.0969,-1.1298,-1.1736,-1.2257,-1.2622,-1.2978,-1.3275,-1.3036,-1.2906,-1.3052,-1.2597,-1.2269,-1.2363,-1.262,-1.2817,-1.2903,-1.3211,-1.3451,-1.3623,-1.4201,-1.5069,-1.5817,-1.6259,-1.6327,-1.647,-1.6658,-1.6779,-1.6864,-1.7088,-1.7396,-1.7645,-1.7728,-1.7904,-1.8084,-1.8084,-1.8084,-1.8084,-1.802,-1.7974,-1.7962,-1.7974,-1.7756,-1.7584,-1.7427,-1.7174,-1.6864,-1.6579,-1.6131,-1.3492,-1.3492,-1.3492,-1.3492,-1.3492,-1.3492,-1.3492,-1.3492,-1.3492,-1.3338,-1.3097,-1.3367,-1.3411,-1.3287,-1.3433,-1.3492,-1.3492,-1.3492,-1.3397,-1.3236,-1.3258,-1.3082,-1.2775,-1.2775,-1.2687,-1.2533,-1.2526,-1.258,-1.2782,-1.2943,-1.3097,-1.3265,-1.3426,-1.3492,-1.3492,-1.3492,-1.3492,-1.3484,-1.3031,-1.2628,-1.2266,-1.167,-1.1283,-1.1107,-1.0602,-1.0433,-1.0572,-1.0448,-1.0433,-1.058,-1.0792,-1.085,-1.0887,-1.1188,-1.1371,-1.1379,-1.1511,-1.1452,-1.1122,-1.1107,-1.1041,-1.0894,-1.1048,-1.1144,-1.1151,-1.0982,-1.1004,-1.1304,-1.1625,-1.209,-1.2758,-1.3144,-1.3487,-1.3849,-1.3687,-1.3682,-1.3824,-1.3348,-1.3091,-1.3288,-1.3468,-1.3502,-1.3288,-1.3588,-1.3725,-1.3631,-1.4282,-1.5186,-1.5904,-1.623,-1.6402,-1.6402,-1.6477,-1.6573,-1.6602,-1.6948,-1.7256,-1.7423,-1.77,-1.792,-1.8084,-1.8084,-1.8084,-1.8084,-1.8084,-1.8084,-1.8084,-1.8084,-1.8008,-1.776,-1.7802,-1.7622,-1.7151,-1.6736,-1.6512,-1.3492,-1.3492,-1.3492,-1.3536,-1.3601,-1.3609,-1.3609,-1.3594,-1.3528,-1.3492,-1.3492,-1.3492,-1.3492,-1.3492,-1.3492,-1.3492,-1.3492,-1.3492,-1.336,-1.317,-1.3375,-1.3221,-1.2769,-1.2974,-1.2987,-1.276,-1.2704,-1.2842,-1.3097,-1.3119,-1.3243,-1.347,-1.3492,-1.3492,-1.3492,-1.3492,-1.3492,-1.3477,-1.3243,-1.2921,-1.2485,-1.1921,-1.1467,-1.1217,-1.0894,-1.0726,-1.0828,-1.0762,-1.0762,-1.0814,-1.1078,-1.1217,-1.1217,-1.1452,-1.1591,-1.1599,-1.1657,-1.1597,-1.1459,-1.143,-1.137,-1.1304,-1.1621,-1.1782,-1.1687,-1.154,-1.1448,-1.1616,-1.1935,-1.2421,-1.3012,-1.3476,-1.3891,-1.4255,-1.4281,-1.4333,-1.4588,-1.4127,-1.3879,-1.4179,-1.423,-1.4076,-1.381,-1.3905,-1.4006,-1.402,-1.444,-1.5098,-1.573,-1.6173,-1.6374,-1.6402,-1.6402,-1.6402,-1.6441,-1.6733,-1.7004,-1.7078,-1.7523,-1.781,-1.7947,-1.803,-1.8084,-1.8084,-1.8084,-1.8084,-1.8084,-1.8084,-1.7974,-1.7748,-1.7859,-1.7848,-1.7252,-1.7057,-1.6973,-1.3499,-1.3492,-1.3492,-1.3667,-1.3909,-1.3923,-1.3923,-1.3887,-1.3631,-1.3492,-1.3477,-1.3492,-1.3492,-1.3492,-1.3492,-1.3492,-1.3492,-1.3492,-1.3477,-1.344,-1.3477,-1.3462,-1.3375,-1.3426,-1.3433,-1.3382,-1.3367,-1.3367,-1.3418,-1.3426,-1.3455,-1.3492,-1.3492,-1.3492,-1.3492,-1.3492,-1.3492,-1.3492,-1.3462,-1.3148,-1.2526,-1.1897,-1.1577,-1.1547,-1.1232,-1.1202,-1.1437,-1.1217,-1.1195,-1.1474,-1.1511,-1.154,-1.1547,-1.1577,-1.1591,-1.1599,-1.1823,-1.2062,-1.231,-1.2394,-1.2226,-1.1974,-1.2186,-1.2244,-1.201,-1.2186,-1.2123,-1.1855,-1.2134,-1.2652,-1.3076,-1.368,-1.4181,-1.4587,-1.4602,-1.4649,-1.4709,-1.4624,-1.4598,-1.4615,-1.4667,-1.4487,-1.4187,-1.4101,-1.4281,-1.4648,-1.4764,-1.5216,-1.6077,-1.6316,-1.6402,-1.6402,-1.6402,-1.6402,-1.6402,-1.6431,-1.6648,-1.6835,-1.7088,-1.7423,-1.7673,-1.792,-1.8084,-1.803,-1.8084,-1.8084,-1.8084,-1.8084,-1.81,-1.7985,-1.8031,-1.8066,-1.7962,-1.7882,-1.7763,-1.3784,-1.3762,-1.3579,-1.3499,-1.3556,-1.3857,-1.3823,-1.3613,-1.3768,-1.3665,-1.3406,-1.3359,-1.3382,-1.3492,-1.3492,-1.3492,-1.3492,-1.3492,-1.3492,-1.3492,-1.3492,-1.3492,-1.3492,-1.3492,-1.3492,-1.3492,-1.3492,-1.3492,-1.3492,-1.3492,-1.3492,-1.3492,-1.3492,-1.3492,-1.3492,-1.3492,-1.3492,-1.3492,-1.3301,-1.298,-1.2555,-1.227,-1.198,-1.1621,-1.1467,-1.1445,-1.1562,-1.1459,-1.1452,-1.1584,-1.1591,-1.1591,-1.1591,-1.1591,-1.1591,-1.1613,-1.186,-1.2142,-1.2504,-1.2526,-1.2434,-1.2295,-1.2404,-1.2426,-1.231,-1.2412,-1.2394,-1.2237,-1.2552,-1.302,-1.3607,-1.395,-1.4315,-1.4821,-1.481,-1.481,-1.5309,-1.512,-1.5051,-1.5309,-1.5343,-1.5189,-1.4786,-1.4367,-1.4466,-1.5021,-1.5062,-1.5284,-1.6163,-1.6402,-1.6402,-1.6402,-1.6402,-1.6402,-1.6402,-1.6545,-1.6648,-1.6818,-1.7032,-1.7273,-1.7396,-1.7673,-1.7849,-1.7849,-1.7986,-1.8084,-1.8084,-1.8084,-1.8084,-1.8084,-1.8084,-1.8084,-1.8084,-1.8084,-1.7985,-1.4055,-1.387,-1.3615,-1.3402,-1.3276,-1.3748,-1.3706,-1.34,-1.3672,-1.3577,-1.3215,-1.323,-1.3315,-1.3426,-1.3419,-1.3455,-1.3499,-1.3492,-1.3492,-1.3492,-1.3492,-1.3492,-1.3492,-1.3492,-1.3492,-1.3492,-1.3492,-1.3492,-1.3492,-1.3492,-1.3492,-1.3492,-1.3492,-1.3492,-1.3492,-1.3492,-1.3492,-1.347,-1.325,-1.2987,-1.2694,-1.2529,-1.2219,-1.1665,-1.1591,-1.1591,-1.1591,-1.1591,-1.1591,-1.1591,-1.1672,-1.1692,-1.1723,-1.1811,-1.1899,-1.1995,-1.2167,-1.2445,-1.2767,-1.2789,-1.2745,-1.2638,-1.2696,-1.2753,-1.2653,-1.2704,-1.2782,-1.2789,-1.2996,-1.337,-1.3819,-1.4057,-1.4371,-1.4922,-1.474,-1.4892,-1.5488,-1.5346,-1.533,-1.5735,-1.5737,-1.5651,-1.5206,-1.4614,-1.439,-1.5041,-1.4967,-1.4981,-1.5749,-1.5951,-1.5961,-1.6,-1.6077,-1.6269,-1.6374,-1.6516,-1.6676,-1.6761,-1.6892,-1.705,-1.7117,-1.7368,-1.7573,-1.7573,-1.7822,-1.7986,-1.7959,-1.7975,-1.8084,-1.8084,-1.8084,-1.8084,-1.8084,-1.8084,-1.8084,-1.419,-1.3732,-1.3506,-1.3417,-1.34,-1.3709,-1.3666,-1.3397,-1.3383,-1.3222,-1.301,-1.3184,-1.3248,-1.3221,-1.3228,-1.3309,-1.3492,-1.3492,-1.3492,-1.3492,-1.3492,-1.3492,-1.3492,-1.3492,-1.3492,-1.3492,-1.3492,-1.3492,-1.3492,-1.3492,-1.3492,-1.3492,-1.3492,-1.3492,-1.3492,-1.3492,-1.3492,-1.3484,-1.3455,-1.3294,-1.2987,-1.2645,-1.2241,-1.1716,-1.1591,-1.1591,-1.1591,-1.1599,-1.1599,-1.1599,-1.1853,-1.1981,-1.2003,-1.2259,-1.257,-1.2848,-1.2921,-1.3089,-1.3353,-1.3389,-1.3287,-1.3082,-1.3228,-1.3301,-1.3038,-1.3214,-1.3345,-1.3418,-1.3403,-1.3494,-1.366,-1.3899,-1.4176,-1.4553,-1.4605,-1.4748,-1.5169,-1.5161,-1.539,-1.5691,-1.577,-1.5668,-1.5266,-1.4555,-1.4484,-1.4693,-1.4541,-1.4497,-1.4951,-1.5069,-1.5069,-1.5196,-1.5469,-1.5885,-1.6259,-1.6459,-1.6459,-1.6516,-1.6676,-1.6807,-1.6892,-1.7004,-1.7145,-1.7312,-1.7534,-1.7684,-1.7767,-1.7877,-1.803,-1.8084,-1.8084,-1.8084,-1.8084,-1.8084,-1.8084,-1.4141,-1.3772,-1.3695,-1.3467,-1.3227,-1.3854,-1.3784,-1.3301,-1.3747,-1.3625,-1.3204,-1.3336,-1.3282,-1.3067,-1.3081,-1.323,-1.3477,-1.3382,-1.3302,-1.3346,-1.3455,-1.3419,-1.3346,-1.3426,-1.3492,-1.3492,-1.3492,-1.3492,-1.3492,-1.3492,-1.3492,-1.3492,-1.3492,-1.3492,-1.3492,-1.3492,-1.3492,-1.3492,-1.3492,-1.3338,-1.301,-1.2892,-1.2621,-1.2189,-1.1804,-1.1591,-1.1591,-1.1758,-1.1867,-1.1867,-1.2167,-1.2317,-1.2324,-1.2426,-1.2665,-1.2965,-1.3009,-1.3148,-1.344,-1.3492,-1.3455,-1.3353,-1.3426,-1.3455,-1.3367,-1.3418,-1.3492,-1.3492,-1.3492,-1.3491,-1.3519,-1.3643,-1.3855,-1.4173,-1.4065,-1.4181,-1.4605,-1.4633,-1.4732,-1.5284,-1.5611,-1.5737,-1.5531,-1.5129,-1.4924,-1.5081,-1.4849,-1.4708,-1.481,-1.4893,-1.4852,-1.4893,-1.5069,-1.5245,-1.5371,-1.6048,-1.6413,-1.6413,-1.6488,-1.6506,-1.6591,-1.6666,-1.6807,-1.6948,-1.72,-1.7423,-1.7507,-1.7838,-1.8002,-1.8057,-1.8057,-1.8084,-1.8084,-1.8084,-1.8084,-1.4079,-1.3852,-1.3669,-1.3386,-1.3153,-1.3788,-1.3756,-1.33,-1.383,-1.3701,-1.3225,-1.3398,-1.3348,-1.3056,-1.3133,-1.3334,-1.3523,-1.327,-1.3083,-1.3127,-1.3236,-1.3287,-1.3299,-1.3461,-1.3535,-1.352,-1.3499,-1.3492,-1.3492,-1.3492,-1.3492,-1.3492,-1.3492,-1.3492,-1.3492,-1.3492,-1.3492,-1.3492,-1.3492,-1.3375,-1.3177,-1.3025,-1.2914,-1.2643,-1.2153,-1.1907,-1.1875,-1.2047,-1.2156,-1.22,-1.247,-1.2689,-1.2819,-1.2799,-1.2936,-1.3133,-1.317,-1.325,-1.3448,-1.3492,-1.3492,-1.3492,-1.3492,-1.3492,-1.3492,-1.3492,-1.3492,-1.3492,-1.3492,-1.3492,-1.3492,-1.3492,-1.3601,-1.3811,-1.3674,-1.3746,-1.4317,-1.4238,-1.4489,-1.5098,-1.5426,-1.5611,-1.5719,-1.5403,-1.5255,-1.5327,-1.4988,-1.4756,-1.466,-1.4641,-1.4568,-1.4506,-1.4567,-1.4656,-1.4804,-1.5342,-1.5914,-1.6,-1.5904,-1.599,-1.622,-1.6296,-1.641,-1.6581,-1.6835,-1.7088,-1.7396,-1.7755,-1.792,-1.7975,-1.8057,-1.8084,-1.8084,-1.8084,-1.8084,-1.4008,-1.3919,-1.342,-1.3293,-1.326,-1.3594,-1.3494,-1.332,-1.3554,-1.3434,-1.3072,-1.34,-1.342,-1.3174,-1.3413,-1.3635,-1.3655,-1.3205,-1.294,-1.2949,-1.2972,-1.3112,-1.3299,-1.3582,-1.3665,-1.3658,-1.3564,-1.355,-1.3587,-1.3565,-1.3543,-1.3514,-1.3506,-1.3492,-1.3492,-1.3492,-1.3492,-1.3492,-1.3492,-1.3484,-1.3448,-1.3199,-1.3045,-1.2987,-1.266,-1.2526,-1.2526,-1.2492,-1.2485,-1.2562,-1.284,-1.3155,-1.3367,-1.3411,-1.3455,-1.344,-1.347,-1.3484,-1.3484,-1.3492,-1.3492,-1.3492,-1.3492,-1.3492,-1.3492,-1.3492,-1.3492,-1.3492,-1.3492,-1.3492,-1.3492,-1.3492,-1.3528,-1.3528,-1.3492,-1.3674,-1.3992,-1.4093,-1.4374,-1.4955,-1.5169,-1.5346,-1.557,-1.5445,-1.5223,-1.5154,-1.4972,-1.4634,-1.4331,-1.4249,-1.3989,-1.3774,-1.3932,-1.4181,-1.4359,-1.4606,-1.5108,-1.5469,-1.5284,-1.5284,-1.5633,-1.5836,-1.5778,-1.5941,-1.6324,-1.6599,-1.6937,-1.7301,-1.7645,-1.7755,-1.792,-1.8057,-1.8084,-1.8084,-1.8084,-1.4067,-1.406,-1.3889,-1.3687,-1.352,-1.3828,-1.3781,-1.352,-1.3821,-1.3721,-1.3487,-1.3774,-1.3728,-1.3501,-1.3574,-1.3635,-1.3628,-1.3296,-1.3049,-1.3024,-1.3102,-1.3226,-1.339,-1.3656,-1.3839,-1.398,-1.4132,-1.4157,-1.4106,-1.3938,-1.3866,-1.3799,-1.3609,-1.3499,-1.3492,-1.3492,-1.3492,-1.3492,-1.3492,-1.3492,-1.3492,-1.3404,-1.3338,-1.3331,-1.3243,-1.3192,-1.3184,-1.298,-1.2862,-1.282,-1.317,-1.3397,-1.347,-1.3492,-1.3492,-1.3492,-1.3492,-1.3492,-1.3492,-1.3492,-1.3492,-1.3492,-1.3492,-1.3492,-1.3492,-1.3492,-1.3492,-1.3492,-1.3492,-1.3492,-1.3492,-1.3492,-1.3492,-1.3492,-1.3492,-1.3528,-1.371,-1.392,-1.4165,-1.441,-1.4633,-1.4963,-1.5275,-1.5223,-1.5202,-1.5206,-1.5087,-1.4846,-1.429,-1.4144,-1.3939,-1.3627,-1.3744,-1.3791,-1.3941,-1.4061,-1.4359,-1.4745,-1.4715,-1.4834,-1.5186,-1.5157,-1.5157,-1.5362,-1.5739,-1.6114,-1.6475,-1.6853,-1.72,-1.7573,-1.7767,-1.7904,-1.8057,-1.8084,-1.8084,-1.4088,-1.4088,-1.4088,-1.3988,-1.3828,-1.4015,-1.3981,-1.3848,-1.4001,-1.3928,-1.37,-1.3955,-1.3928,-1.3673,-1.3713,-1.3766,-1.3733,-1.35,-1.3306,-1.3223,-1.321,-1.3322,-1.3471,-1.3736,-1.3952,-1.4122,-1.4195,-1.4308,-1.4333,-1.4144,-1.4023,-1.3953,-1.3777,-1.3609,-1.3506,-1.3492,-1.3492,-1.3492,-1.3492,-1.3382,-1.3193,-1.3163,-1.3083,-1.2856,-1.2826,-1.2826,-1.2806,-1.2632,-1.272,-1.3107,-1.3389,-1.3484,-1.3492,-1.3492,-1.3492,-1.3492,-1.3492,-1.3492,-1.3492,-1.3492,-1.3492,-1.3492,-1.3492,-1.3492,-1.3492,-1.3492,-1.3492,-1.3492,-1.3492,-1.3492,-1.3492,-1.3492,-1.3492,-1.3492,-1.3492,-1.3492,-1.3535,-1.371,-1.3956,-1.4101,-1.4317,-1.4561,-1.4848,-1.5152,-1.5192,-1.5186,-1.5316,-1.5163,-1.4572,-1.4341,-1.4033,-1.3725,-1.3567,-1.3571,-1.3511,-1.3601,-1.367,-1.3932,-1.4142,-1.4499,-1.4883,-1.4499,-1.4321,-1.4745,-1.5128,-1.5604,-1.597,-1.64,-1.6768,-1.7145,-1.7545,-1.7849,-1.8002,-1.8084,-1.8084,-1.4088,-1.4088,-1.4088,-1.4082,-1.4062,-1.4082,-1.4068,-1.4068,-1.4082,-1.3941,-1.3746,-1.3968,-1.3948,-1.374,-1.3941,-1.4035,-1.4028,-1.3801,-1.3613,-1.3567,-1.3467,-1.3454,-1.3689,-1.3892,-1.4144,-1.4224,-1.4095,-1.4054,-1.4255,-1.4163,-1.4093,-1.4052,-1.3928,-1.3828,-1.3528,-1.3441,-1.3382,-1.3309,-1.3302,-1.301,-1.2599,-1.2569,-1.2342,-1.1855,-1.1855,-1.1855,-1.1885,-1.1859,-1.2278,-1.3185,-1.3302,-1.3346,-1.3419,-1.3455,-1.3375,-1.3455,-1.3455,-1.3455,-1.3455,-1.3492,-1.3492,-1.3492,-1.3492,-1.3492,-1.3492,-1.3492,-1.3492,-1.3492,-1.3492,-1.3492,-1.3492,-1.3492,-1.3492,-1.3492,-1.3492,-1.3492,-1.3492,-1.3528,-1.3666,-1.3956,-1.4057,-1.4201,-1.4525,-1.4848,-1.5046,-1.5242,-1.5429,-1.5231,-1.4958,-1.4607,-1.4307,-1.3999,-1.3699,-1.3562,-1.3579,-1.3511,-1.3571,-1.3631,-1.3812,-1.4082,-1.438,-1.4022,-1.3782,-1.4172,-1.4567,-1.5079,-1.5488,-1.5855,-1.6332,-1.6797,-1.7217,-1.7661,-1.7893,-1.7947,-1.803,-1.4088,-1.4088,-1.4088,-1.4088,-1.4088,-1.4088,-1.4088,-1.4088,-1.4088,-1.4035,-1.3995,-1.4048,-1.4041,-1.3981,-1.4041,-1.4088,-1.4055,-1.4001,-1.3968,-1.3961,-1.3908,-1.3888,-1.4038,-1.433,-1.44,-1.4372,-1.4365,-1.4496,-1.4516,-1.4339,-1.4231,-1.4233,-1.388,-1.3599,-1.3372,-1.3042,-1.2753,-1.2562,-1.2298,-1.2157,-1.1966,-1.1892,-1.1861,-1.1744,-1.1632,-1.1632,-1.1669,-1.1706,-1.1781,-1.2157,-1.2643,-1.2826,-1.2826,-1.2863,-1.301,-1.3273,-1.3083,-1.3046,-1.3382,-1.3455,-1.3492,-1.3492,-1.3492,-1.3492,-1.3492,-1.3492,-1.3492,-1.3492,-1.3492,-1.3492,-1.3492,-1.3492,-1.3492,-1.3492,-1.3492,-1.3492,-1.3492,-1.3492,-1.3528,-1.3637,-1.3666,-1.3848,-1.4129,-1.4382,-1.4633,-1.5026,-1.5242,-1.5302,-1.4993,-1.4975,-1.4718,-1.4264,-1.3947,-1.3759,-1.3631,-1.3554,-1.3511,-1.3511,-1.3571,-1.3631,-1.3812,-1.3692,-1.3601,-1.3722,-1.4091,-1.4567,-1.4872,-1.5186,-1.5758,-1.6304,-1.6673,-1.705,-1.7534,-1.7755,-1.7838,-1.4088,-1.4088,-1.4088,-1.4088,-1.4088,-1.4088,-1.4088,-1.4088,-1.4088,-1.4088,-1.4088,-1.4088,-1.4088,-1.4088,-1.4088,-1.4088,-1.4088,-1.4088,-1.4082,-1.4082,-1.4068,-1.4075,-1.4166,-1.437,-1.4363,-1.4286,-1.4412,-1.4482,-1.4531,-1.4428,-1.4337,-1.4242,-1.3913,-1.3564,-1.332,-1.2905,-1.2452,-1.2114,-1.1781,-1.1484,-1.0875,-1.0838,-1.0614,-1.0501,-1.0464,-1.0426,-1.0426,-1.0432,-1.0763,-1.1515,-1.204,-1.2224,-1.2224,-1.2224,-1.2378,-1.2709,-1.2409,-1.2489,-1.298,-1.3127,-1.3273,-1.3419,-1.3492,-1.3492,-1.3492,-1.3492,-1.3492,-1.3492,-1.3492,-1.3492,-1.3492,-1.3492,-1.3492,-1.3492,-1.3492,-1.3492,-1.3492,-1.3492,-1.3492,-1.3492,-1.3492,-1.3564,-1.3848,-1.3985,-1.4274,-1.4669,-1.5018,-1.5033,-1.4966,-1.5095,-1.5035,-1.4557,-1.4333,-1.4204,-1.4033,-1.3899,-1.3745,-1.3703,-1.3511,-1.3511,-1.348,-1.348,-1.3511,-1.3571,-1.3791,-1.4001,-1.4359,-1.4686,-1.5128,-1.5613,-1.5989,-1.6361,-1.6786,-1.7179,-1.7318,-1.4088,-1.4088,-1.4088,-1.4088,-1.4088,-1.4088,-1.4088,-1.4088,-1.4088,-1.4088,-1.4088,-1.4088,-1.4088,-1.4088,-1.4088,-1.4088,-1.4088,-1.4088,-1.4088,-1.4088,-1.4088,-1.4088,-1.413,-1.4124,-1.4166,-1.413,-1.4088,-1.4201,-1.4314,-1.4336,-1.422,-1.3899,-1.3625,-1.3292,-1.2687,-1.2476,-1.2127,-1.1403,-1.1105,-1.0576,-0.9825,-0.9636,-0.9485,-0.9155,-0.9079,-0.9041,-0.8965,-0.8965,-0.9566,-1.1292,-1.144,-1.1403,-1.144,-1.1477,-1.1632,-1.1669,-1.1706,-1.1892,-1.2378,-1.2526,-1.2709,-1.3076,-1.3266,-1.3339,-1.3229,-1.3193,-1.3258,-1.3182,-1.3323,-1.3286,-1.3396,-1.3411,-1.3462,-1.3499,-1.3514,-1.355,-1.3499,-1.3492,-1.3492,-1.3492,-1.3492,-1.3492,-1.3601,-1.3775,-1.4065,-1.4346,-1.4661,-1.4727,-1.4854,-1.5048,-1.4933,-1.468,-1.4619,-1.4676,-1.4497,-1.4318,-1.4138,-1.4016,-1.3648,-1.3511,-1.348,-1.348,-1.348,-1.3571,-1.3662,-1.3791,-1.4001,-1.433,-1.4677,-1.4971,-1.5381,-1.5575,-1.5796,-1.6216,-1.6472,-1.4088,-1.4088,-1.4088,-1.4088,-1.4088,-1.4088,-1.4088,-1.4088,-1.4088,-1.4088,-1.4088,-1.4088,-1.4088,-1.4088,-1.4088,-1.4088,-1.4088,-1.4088,-1.4088,-1.4088,-1.4088,-1.4088,-1.4088,-1.4088,-1.4088,-1.4088,-1.4088,-1.4124,-1.4166,-1.4055,-1.3664,-1.2912,-1.2679,-1.2079,-1.1177,-1.0816,-1.0196,-0.9825,-0.9604,-0.9339,-0.9036,-0.8851,-0.8813,-0.8627,-0.8665,-0.8665,-0.8703,-0.8703,-0.8927,-0.9339,-0.9793,-1.0073,-1.0169,-1.0395,-1.07,-1.0962,-1.1037,-1.1223,-1.1744,-1.1855,-1.1929,-1.2114,-1.2562,-1.2599,-1.215,-1.2556,-1.2641,-1.249,-1.2411,-1.2656,-1.3024,-1.3144,-1.3278,-1.3431,-1.3652,-1.3755,-1.3565,-1.3492,-1.3492,-1.3492,-1.3492,-1.3492,-1.3492,-1.3564,-1.3775,-1.4021,-1.4222,-1.4378,-1.4644,-1.4898,-1.4841,-1.4645,-1.4731,-1.4765,-1.4505,-1.4287,-1.4049,-1.3884,-1.3576,-1.3519,-1.348,-1.348,-1.348,-1.348,-1.3511,-1.3631,-1.3791,-1.3971,-1.4321,-1.4529,-1.4736,-1.4932,-1.5128,-1.5439,-1.5718,-1.4088,-1.4088,-1.4088,-1.4088,-1.4088,-1.4088,-1.4088,-1.4088,-1.4088,-1.4088,-1.4088,-1.4088,-1.4088,-1.4088,-1.4088,-1.4088,-1.4088,-1.4088,-1.4088,-1.4088,-1.4088,-1.4088,-1.4088,-1.4088,-1.4088,-1.4088,-1.4088,-1.4088,-1.4039,-1.3626,-1.3071,-1.2371,-1.1827,-1.1197,-1.0401,-0.9866,-0.9571,-0.915,-0.8813,-0.8551,-0.8208,-0.8131,-0.8131,-0.8131,-0.8131,-0.8131,-0.8131,-0.8131,-0.818,-0.8319,-0.8574,-0.8904,-0.9165,-0.9382,-0.9647,-0.9868,-0.9906,-1.0132,-1.0582,-1.1068,-1.1217,-1.1174,-1.1922,-1.2107,-1.1959,-1.2107,-1.2333,-1.238,-1.2356,-1.2267,-1.268,-1.2626,-1.2844,-1.3362,-1.3485,-1.3586,-1.3666,-1.3587,-1.3492,-1.3492,-1.3492,-1.3492,-1.3492,-1.3455,-1.3484,-1.3739,-1.4057,-1.4214,-1.433,-1.4597,-1.4707,-1.4668,-1.4792,-1.471,-1.4453,-1.4145,-1.3801,-1.359,-1.3294,-1.3346,-1.3459,-1.348,-1.348,-1.348,-1.348,-1.348,-1.3631,-1.3812,-1.3902,-1.3962,-1.4103,-1.4312,-1.446,-1.4569,-1.4914,-1.4088,-1.4088,-1.4088,-1.4088,-1.4088,-1.4088,-1.4088,-1.4088,-1.4088,-1.4088,-1.4088,-1.4088,-1.4088,-1.4088,-1.4088,-1.4088,-1.4088,-1.4088,-1.4088,-1.4088,-1.4088,-1.4088,-1.4088,-1.4088,-1.4088,-1.4088,-1.4088,-1.4088,-1.387,-1.3197,-1.256,-1.1993,-1.0998,-1.0121,-0.9847,-0.964,-0.9118,-0.8518,-0.8453,-0.8205,-0.7718,-0.7595,-0.7595,-0.7599,-0.7657,-0.7704,-0.7716,-0.7706,-0.7729,-0.7829,-0.7841,-0.8107,-0.8428,-0.8682,-0.8654,-0.8731,-0.8889,-0.9209,-0.9576,-1.0051,-1.0389,-1.0383,-1.1234,-1.177,-1.1658,-1.1583,-1.1763,-1.2048,-1.2068,-1.1973,-1.2246,-1.2272,-1.2524,-1.2968,-1.3042,-1.3196,-1.3502,-1.3423,-1.3185,-1.3492,-1.3492,-1.3455,-1.3382,-1.3346,-1.3382,-1.3448,-1.3768,-1.4021,-1.4093,-1.4238,-1.4414,-1.455,-1.4636,-1.4719,-1.4487,-1.396,-1.3628,-1.3412,-1.3083,-1.3183,-1.3333,-1.3338,-1.3338,-1.348,-1.348,-1.348,-1.348,-1.3601,-1.3601,-1.348,-1.3601,-1.3863,-1.3842,-1.3709,-1.4172,-1.4088,-1.4088,-1.4088,-1.4088,-1.4088,-1.4088,-1.4088,-1.4088,-1.4088,-1.4088,-1.4088,-1.4088,-1.4088,-1.4088,-1.4088,-1.4088,-1.4088,-1.4088,-1.4088,-1.4088,-1.4088,-1.4088,-1.4088,-1.4088,-1.4088,-1.4088,-1.4088,-1.4088,-1.387,-1.3203,-1.2218,-1.1124,-1.0162,-0.9282,-0.8518,-0.8082,-0.8199,-0.7975,-0.7969,-0.7818,-0.7614,-0.7547,-0.7551,-0.7563,-0.7661,-0.7726,-0.7784,-0.7845,-0.7943,-0.7967,-0.7971,-0.8037,-0.822,-0.85,-0.8533,-0.8501,-0.8661,-0.8796,-0.8885,-0.9003,-0.942,-0.984,-1.0302,-1.0446,-1.0573,-1.0751,-1.0913,-1.0958,-1.1215,-1.1394,-1.194,-1.1933,-1.2186,-1.2462,-1.2568,-1.2596,-1.2497,-1.2399,-1.2539,-1.3083,-1.3266,-1.3266,-1.3046,-1.29,-1.29,-1.2973,-1.3222,-1.3441,-1.3557,-1.3848,-1.4122,-1.4302,-1.4446,-1.4545,-1.4577,-1.3906,-1.3426,-1.329,-1.3052,-1.2943,-1.3048,-1.3066,-1.3133,-1.339,-1.348,-1.348,-1.348,-1.348,-1.348,-1.348,-1.348,-1.348,-1.3541,-1.364,-1.3739,-1.4088,-1.4088,-1.4088,-1.4088,-1.4088,-1.4088,-1.4088,-1.4088,-1.4088,-1.4088,-1.4088,-1.4088,-1.4088,-1.4088,-1.4088,-1.4088,-1.4088,-1.4088,-1.4088,-1.4088,-1.4088,-1.4088,-1.4088,-1.4088,-1.4088,-1.4088,-1.4088,-1.4088,-1.3997,-1.3179,-1.2038,-1.101,-1.0007,-0.8946,-0.8041,-0.7832,-0.7755,-0.7694,-0.7743,-0.7763,-0.7673,-0.7661,-0.7665,-0.7694,-0.7751,-0.7837,-0.7898,-0.7951,-0.8061,-0.8134,-0.8158,-0.8207,-0.8302,-0.8425,-0.8421,-0.8252,-0.8321,-0.8313,-0.8252,-0.836,-0.878,-0.8684,-0.9247,-0.9664,-0.9764,-0.9902,-1.0085,-1.0372,-1.07,-1.1162,-1.153,-1.1525,-1.1785,-1.2206,-1.2176,-1.2105,-1.2136,-1.1879,-1.2107,-1.2479,-1.2378,-1.2305,-1.2298,-1.2224,-1.2335,-1.2489,-1.2716,-1.29,-1.301,-1.3375,-1.3768,-1.3905,-1.4019,-1.3902,-1.3962,-1.3553,-1.3063,-1.2943,-1.2907,-1.2783,-1.2865,-1.2922,-1.3155,-1.342,-1.348,-1.348,-1.348,-1.348,-1.348,-1.348,-1.348,-1.348,-1.3502,-1.3571,-1.367,-1.4088,-1.4088,-1.4088,-1.4088,-1.4088,-1.4088,-1.4088,-1.4088,-1.4088,-1.4088,-1.4088,-1.4088,-1.4088,-1.4088,-1.4088,-1.4088,-1.4088,-1.4088,-1.4088,-1.4088,-1.4088,-1.4088,-1.4088,-1.4088,-1.4088,-1.4088,-1.4088,-1.4088,-1.3893,-1.3056,-1.2056,-1.0997,-1.009,-0.905,-0.8142,-0.7849,-0.7833,-0.7767,-0.7837,-0.7845,-0.7808,-0.78,-0.78,-0.7829,-0.7869,-0.7992,-0.8061,-0.8142,-0.8223,-0.8308,-0.8361,-0.8453,-0.858,-0.8612,-0.8392,-0.8004,-0.7886,-0.7755,-0.7784,-0.7983,-0.8268,-0.8297,-0.8772,-0.9147,-0.9401,-0.9512,-0.9591,-1.0127,-1.052,-1.0879,-1.1086,-1.1043,-1.133,-1.1759,-1.1739,-1.152,-1.1728,-1.1612,-1.1279,-1.142,-1.1378,-1.1453,-1.1484,-1.1818,-1.1966,-1.1818,-1.2046,-1.2305,-1.2489,-1.2973,-1.3295,-1.3455,-1.3468,-1.3225,-1.3132,-1.2974,-1.2613,-1.2412,-1.2438,-1.242,-1.2617,-1.2836,-1.3094,-1.3329,-1.348,-1.348,-1.348,-1.348,-1.348,-1.348,-1.348,-1.348,-1.3511,-1.3502,-1.3571,-1.4088,-1.4088,-1.4088,-1.4088,-1.4088,-1.4088,-1.4088,-1.4088,-1.4088,-1.4088,-1.4088,-1.4088,-1.4088,-1.4088,-1.4088,-1.4088,-1.4088,-1.4088,-1.4088,-1.4088,-1.4088,-1.4088,-1.4088,-1.4088,-1.4088,-1.4088,-1.4088,-1.4088,-1.388,-1.3015,-1.1968,-1.1008,-0.998,-0.8796,-0.8044,-0.7898,-0.7813,-0.7634,-0.7821,-0.7906,-0.7849,-0.7829,-0.782,-0.7906,-0.8073,-0.8211,-0.8264,-0.8361,-0.8518,-0.8539,-0.8567,-0.8588,-0.8608,-0.8616,-0.8459,-0.8251,-0.8077,-0.7947,-0.7819,-0.7857,-0.8099,-0.8269,-0.8519,-0.8745,-0.9062,-0.9342,-0.9484,-0.9942,-1.0163,-1.037,-1.0669,-1.0692,-1.0961,-1.1193,-1.1332,-1.1183,-1.1202,-1.1249,-1.0934,-1.0709,-1.076,-1.0808,-1.0824,-1.1267,-1.1564,-1.1416,-1.1341,-1.1632,-1.1966,-1.2415,-1.2936,-1.3135,-1.31,-1.2855,-1.276,-1.2555,-1.2274,-1.201,-1.2039,-1.2121,-1.2391,-1.2644,-1.292,-1.3125,-1.3299,-1.342,-1.339,-1.339,-1.345,-1.348,-1.348,-1.348,-1.348,-1.3511,-1.3502,-1.4088,-1.4088,-1.4088,-1.4088,-1.4088,-1.4088,-1.4088,-1.4088,-1.4088,-1.4088,-1.4088,-1.4088,-1.4088,-1.4088,-1.4088,-1.4088,-1.4088,-1.4088,-1.4088,-1.4088,-1.4088,-1.4088,-1.4088,-1.4088,-1.4088,-1.4088,-1.4088,-1.4088,-1.386,-1.3513,-1.2662,-1.1249,-1.047,-0.9483,-0.8225,-0.7959,-0.7801,-0.7724,-0.7837,-0.7971,-0.7996,-0.7971,-0.7955,-0.8052,-0.8215,-0.8333,-0.8442,-0.8551,-0.8612,-0.8616,-0.8616,-0.8616,-0.8612,-0.8612,-0.8515,-0.8502,-0.8272,-0.8093,-0.7923,-0.7821,-0.8066,-0.8263,-0.8309,-0.8455,-0.8931,-0.92,-0.9345,-0.9559,-0.9864,-1.012,-1.0463,-1.0593,-1.0862,-1.1064,-1.1059,-1.1069,-1.095,-1.0651,-1.0523,-1.032,-1.0186,-1.0335,-1.037,-1.0556,-1.0818,-1.0743,-1.0812,-1.1111,-1.1409,-1.1744,-1.2305,-1.2856,-1.2727,-1.248,-1.2479,-1.2361,-1.2065,-1.1828,-1.1779,-1.1892,-1.2142,-1.2398,-1.2674,-1.2858,-1.3011,-1.3133,-1.3216,-1.3359,-1.348,-1.348,-1.348,-1.348,-1.348,-1.348,-1.3511,-1.3915,-1.3981,-1.4062,-1.4088,-1.4088,-1.4088,-1.4088,-1.4088,-1.4088,-1.4088,-1.4088,-1.4088,-1.4088,-1.4088,-1.4088,-1.4088,-1.4088,-1.4088,-1.4088,-1.4088,-1.4088,-1.4088,-1.4088,-1.4088,-1.4088,-1.4088,-1.4088,-1.4088,-1.4088,-1.3899,-1.3154,-1.1692,-1.0992,-1.002,-0.8837,-0.8123,-0.7854,-0.7975,-0.7874,-0.8004,-0.8182,-0.8146,-0.817,-0.8247,-0.8341,-0.8422,-0.8588,-0.8612,-0.8612,-0.8616,-0.8616,-0.8616,-0.8616,-0.8612,-0.8608,-0.8567,-0.8453,-0.8316,-0.817,-0.8073,-0.8057,-0.8122,-0.8243,-0.8457,-0.8599,-0.8959,-0.913,-0.913,-0.9349,-0.9733,-1.0115,-1.0207,-1.0511,-1.073,-1.0942,-1.0995,-1.0989,-1.076,-1.0557,-1.0426,-1.0309,-1.0121,-1.0095,-0.9981,-0.9997,-1.0035,-1.0218,-1.0588,-1.0887,-1.1223,-1.1855,-1.2469,-1.2287,-1.2172,-1.2387,-1.2244,-1.1926,-1.1692,-1.1611,-1.1716,-1.2027,-1.2182,-1.2336,-1.2521,-1.2744,-1.295,-1.3125,-1.3307,-1.348,-1.348,-1.348,-1.348,-1.348,-1.348,-1.348,-1.3387,-1.3653,-1.3961,-1.4075,-1.4088,-1.4088,-1.4088,-1.4088,-1.4088,-1.4088,-1.4088,-1.4088,-1.4088,-1.4088,-1.4088,-1.4088,-1.4088,-1.4088,-1.4088,-1.4088,-1.4088,-1.4088,-1.4088,-1.4088,-1.4088,-1.4088,-1.4088,-1.4088,-1.4088,-1.4088,-1.3483,-1.2596,-1.1351,-1.0295,-0.9223,-0.8386,-0.809,-0.8097,-0.804,-0.8081,-0.8243,-0.8272,-0.828,-0.8329,-0.8498,-0.8604,-0.8616,-0.8616,-0.8616,-0.8616,-0.8616,-0.8616,-0.8616,-0.8616,-0.8616,-0.8596,-0.8584,-0.8518,-0.841,-0.8243,-0.815,-0.8268,-0.841,-0.8563,-0.8608,-0.8612,-0.8656,-0.8732,-0.8886,-0.9065,-0.9331,-0.9467,-0.9899,-1.0361,-1.0623,-1.0742,-1.075,-1.0826,-1.0662,-1.0562,-1.0391,-1.0208,-1.0121,-1.0056,-0.9911,-0.9976,-0.996,-1.0293,-1.0519,-1.0856,-1.1521,-1.1972,-1.1777,-1.1888,-1.233,-1.2134,-1.1657,-1.1563,-1.1546,-1.1714,-1.1965,-1.2058,-1.2058,-1.2274,-1.2521,-1.2767,-1.3011,-1.3155,-1.3307,-1.345,-1.348,-1.348,-1.348,-1.348,-1.348,-1.328,-1.3353,-1.3507,-1.3761,-1.4088,-1.4088,-1.4088,-1.4088,-1.4088,-1.4088,-1.4088,-1.4088,-1.4088,-1.4088,-1.4088,-1.4088,-1.4088,-1.4088,-1.4088,-1.4088,-1.4088,-1.4088,-1.4088,-1.4088,-1.4088,-1.4088,-1.4088,-1.4088,-1.4088,-1.4088,-1.3955,-1.3094,-1.1629,-1.0455,-0.9514,-0.8619,-0.8225,-0.8203,-0.8158,-0.8154,-0.8385,-0.8388,-0.8345,-0.8514,-0.8547,-0.8612,-0.8616,-0.8616,-0.8616,-0.8616,-0.8616,-0.8616,-0.8616,-0.8616,-0.8616,-0.8616,-0.8616,-0.8616,-0.8612,-0.8469,-0.8402,-0.8426,-0.8571,-0.8616,-0.8616,-0.8616,-0.8616,-0.8584,-0.8518,-0.8727,-0.92,-0.9247,-0.9434,-0.9981,-1.0299,-1.0386,-1.0476,-1.0552,-1.051,-1.0316,-1.0305,-1.0252,-1.0232,-1.0169,-1.0051,-0.9954,-0.9933,-0.9992,-1.0218,-1.0443,-1.1074,-1.1452,-1.1316,-1.1543,-1.1971,-1.1739,-1.1378,-1.1376,-1.1393,-1.1479,-1.1584,-1.1747,-1.1809,-1.2027,-1.2151,-1.2236,-1.2482,-1.292,-1.3155,-1.3307,-1.342,-1.348,-1.348,-1.348,-1.348,-1.2999,-1.3066,-1.3066,-1.3414,-1.3921,-1.3955,-1.4001,-1.4082,-1.4088,-1.4088,-1.4088,-1.4088,-1.4088,-1.4088,-1.4088,-1.4088,-1.4088,-1.4088,-1.4088,-1.4088,-1.4088,-1.4088,-1.4088,-1.4088,-1.4088,-1.4088,-1.4088,-1.4088,-1.4088,-1.4088,-1.4039,-1.3419,-1.2029,-1.0751,-0.9993,-0.8807,-0.8191,-0.8288,-0.8292,-0.8276,-0.8571,-0.8506,-0.8457,-0.8592,-0.8608,-0.8612,-0.8616,-0.8616,-0.8616,-0.8616,-0.8616,-0.8616,-0.8616,-0.8616,-0.8616,-0.8616,-0.8616,-0.8616,-0.8616,-0.8612,-0.8612,-0.8592,-0.86,-0.8616,-0.8616,-0.8616,-0.8616,-0.8604,-0.8502,-0.8595,-0.9122,-0.8957,-0.9095,-0.9637,-0.9777,-0.9864,-1.0081,-1.0192,-1.0118,-1.0008,-1.0023,-1.0012,-0.9903,-0.9867,-0.9956,-0.9883,-0.9933,-0.9922,-0.9997,-1.0218,-1.0513,-1.0799,-1.0846,-1.1181,-1.1569,-1.12,-1.0909,-1.0854,-1.0863,-1.0873,-1.0982,-1.117,-1.117,-1.1101,-1.1226,-1.1545,-1.1825,-1.2066,-1.2628,-1.3216,-1.3329,-1.342,-1.348,-1.348,-1.348,-1.2505,-1.2784,-1.279,-1.31,-1.3567,-1.3613,-1.3814,-1.4035,-1.4082,-1.4088,-1.4088,-1.4088,-1.4088,-1.4088,-1.4088,-1.4088,-1.4088,-1.4088,-1.4088,-1.4088,-1.4088,-1.4088,-1.4088,-1.4088,-1.4088,-1.4088,-1.4088,-1.4088,-1.4088,-1.4088,-1.4088,-1.3552,-1.2141,-1.0783,-1.071,-0.9165,-0.8463,-0.8567,-0.8563,-0.858,-0.8592,-0.858,-0.8592,-0.8604,-0.8616,-0.8616,-0.8616,-0.8616,-0.8616,-0.8616,-0.8616,-0.8616,-0.8616,-0.8616,-0.8616,-0.8616,-0.8616,-0.8616,-0.8616,-0.8616,-0.8616,-0.8616,-0.8616,-0.8616,-0.8616,-0.8616,-0.8616,-0.8608,-0.8507,-0.8559,-0.864,-0.8671,-0.8956,-0.9161,-0.9257,-0.9388,-0.9563,-0.9689,-0.9579,-0.9691,-0.9644,-0.9568,-0.9478,-0.9463,-0.973,-0.9827,-0.9878,-0.9884,-0.9884,-1.003,-1.0293,-1.0473,-1.0611,-1.079,-1.1037,-1.0692,-1.0452,-1.037,-1.036,-1.0455,-1.0408,-1.044,-1.037,-1.0212,-1.0465,-1.0874,-1.1031,-1.1149,-1.1872,-1.2558,-1.3147,-1.3329,-1.342,-1.348,-1.348,-1.2358,-1.2452,-1.2489,-1.2717,-1.308,-1.3447,-1.3666,-1.3814,-1.3988,-1.4088,-1.4088,-1.4088,-1.4088,-1.4088,-1.4088,-1.4088,-1.4088,-1.4088,-1.4088,-1.4088,-1.4088,-1.4088,-1.4088,-1.4088,-1.4088,-1.4088,-1.4088,-1.4088,-1.4088,-1.4088,-1.4088,-1.36,-1.2076,-1.0524,-0.9502,-0.8553,-0.8567,-0.8604,-0.8608,-0.8612,-0.8616,-0.8616,-0.8616,-0.8616,-0.8616,-0.8616,-0.8616,-0.8616,-0.8616,-0.8616,-0.8616,-0.8616,-0.8616,-0.8616,-0.8616,-0.8616,-0.8616,-0.8616,-0.8616,-0.8616,-0.8616,-0.8616,-0.8616,-0.8616,-0.8616,-0.8616,-0.8616,-0.8588,-0.8479,-0.8535,-0.8571,-0.8469,-0.863,-0.875,-0.8828,-0.8872,-0.8959,-0.9003,-0.9004,-0.9296,-0.9411,-0.9473,-0.947,-0.9387,-0.9542,-0.9681,-0.9766,-0.984,-0.9889,-0.996,-1.0143,-1.0363,-1.053,-1.057,-1.0542,-1.0259,-1.0089,-1.003,-1.0075,-1.013,-1.0053,-0.9837,-0.9894,-0.9862,-1.0053,-1.0237,-1.0401,-1.0654,-1.1243,-1.1865,-1.2336,-1.2917,-1.3139,-1.329,-1.348,-1.2305,-1.2311,-1.2418,-1.2536,-1.2723,-1.3233,-1.3547,-1.376,-1.4001,-1.4088,-1.4088,-1.4088,-1.4088,-1.4088,-1.4088,-1.4088,-1.4088,-1.4088,-1.4088,-1.4088,-1.4088,-1.4088,-1.4088,-1.4088,-1.4088,-1.4088,-1.4088,-1.4088,-1.4088,-1.4088,-1.3652,-1.279,-1.1886,-1.034,-0.9139,-0.8595,-0.8604,-0.8616,-0.8616,-0.8616,-0.8616,-0.8616,-0.8616,-0.8616,-0.8616,-0.8616,-0.8616,-0.8616,-0.8616,-0.8616,-0.8616,-0.8616,-0.8616,-0.8616,-0.8616,-0.8616,-0.8616,-0.8616,-0.8616,-0.8616,-0.8616,-0.8616,-0.8616,-0.8616,-0.8616,-0.8616,-0.8616,-0.8575,-0.8477,-0.8514,-0.8559,-0.8394,-0.8482,-0.8608,-0.8612,-0.8656,-0.8656,-0.87,-0.8744,-0.9043,-0.9117,-0.9238,-0.9411,-0.9396,-0.9396,-0.9547,-0.9652,-0.976,-0.9862,-0.996,-0.9992,-1.018,-1.0288,-1.0291,-1.0166,-0.9927,-0.9787,-0.9701,-0.9681,-0.9681,-0.9428,-0.9172,-0.9364,-0.9486,-0.9454,-0.9492,-0.9779,-1.0161,-1.0566,-1.0968,-1.1406,-1.2027,-1.2704,-1.2917,-1.3009,-1.2305,-1.2351,-1.265,-1.2596,-1.2438,-1.2959,-1.3507,-1.4035,-1.4062,-1.4062,-1.4088,-1.4088,-1.4088,-1.4088,-1.4088,-1.4088,-1.4088,-1.4088,-1.4088,-1.4088,-1.4088,-1.4088,-1.4088,-1.4088,-1.4088,-1.4088,-1.4088,-1.4088,-1.4088,-1.4088,-1.3222,-1.188,-1.1402,-1.0038,-0.9013,-0.846,-0.8524,-0.8568,-0.8616,-0.8616,-0.8616,-0.8616,-0.8616,-0.8616,-0.8616,-0.8616,-0.8616,-0.8616,-0.8616,-0.8616,-0.8616,-0.8616,-0.8616,-0.8616,-0.8616,-0.8616,-0.8616,-0.8616,-0.8616,-0.8616,-0.8616,-0.8616,-0.8616,-0.8616,-0.8616,-0.8616,-0.8616,-0.8616,-0.8567,-0.8584,-0.8592,-0.8584,-0.8584,-0.8612,-0.8612,-0.8616,-0.8616,-0.8616,-0.8612,-0.87,-0.87,-0.8869,-0.9091,-0.9166,-0.9243,-0.9271,-0.9409,-0.9643,-0.9758,-0.9884,-0.9922,-0.9922,-0.9992,-0.996,-0.9813,-0.9699,-0.9542,-0.9519,-0.9113,-0.8989,-0.8755,-0.8711,-0.8861,-0.892,-0.8673,-0.8802,-0.9247,-0.9504,-0.9722,-1.0098,-1.0471,-1.118,-1.1888,-1.1973,-1.2035,-1.2305,-1.2311,-1.2398,-1.2378,-1.2371,-1.275,-1.3227,-1.3686,-1.3733,-1.3868,-1.4088,-1.4088,-1.4055,-1.4088,-1.4088,-1.4088,-1.4082,-1.4088,-1.4088,-1.4082,-1.4075,-1.4082,-1.4088,-1.4088,-1.4088,-1.4088,-1.4088,-1.4088,-1.4088,-1.4088,-1.3039,-1.1391,-1.1095,-0.9845,-0.8811,-0.8124,-0.83,-0.8476,-0.8524,-0.8568,-0.8568,-0.8568,-0.8616,-0.8616,-0.8616,-0.8616,-0.8568,-0.8616,-0.8616,-0.8568,-0.8616,-0.8616,-0.8616,-0.8616,-0.8616,-0.8616,-0.8616,-0.8616,-0.8616,-0.8616,-0.8616,-0.8616,-0.8616,-0.8616,-0.8616,-0.8616,-0.8616,-0.8616,-0.8616,-0.8616,-0.8616,-0.8616,-0.8616,-0.8616,-0.8616,-0.8616,-0.8616,-0.8616,-0.8616,-0.8616,-0.8616,-0.8652,-0.8882,-0.8992,-0.9032,-0.9037,-0.9152,-0.9423,-0.9637,-0.9759,-0.9884,-0.9884,-0.9884,-0.9884,-0.9841,-0.9721,-0.9468,-0.9257,-0.8942,-0.8716,-0.8668,-0.8657,-0.8538,-0.8517,-0.8544,-0.8641,-0.8867,-0.9092,-0.9312,-0.9247,-0.9588,-1.0338,-1.0954,-1.1041,-1.1248,-1.2305,-1.2325,-1.2469,-1.2509,-1.2485,-1.2545,-1.2898,-1.326,-1.3373,-1.3547,-1.3741,-1.3848,-1.3915,-1.3921,-1.4008,-1.4028,-1.3866,-1.4028,-1.4035,-1.3901,-1.4048,-1.4075,-1.4088,-1.4088,-1.4088,-1.4088,-1.4088,-1.4088,-1.4088,-1.3779,-1.2905,-1.1009,-1.0837,-0.9628,-0.8464,-0.7988,-0.8076,-0.8252,-0.8384,-0.8432,-0.8476,-0.8524,-0.8568,-0.8568,-0.8568,-0.8524,-0.8476,-0.8524,-0.8568,-0.8524,-0.8524,-0.8616,-0.8616,-0.8616,-0.8616,-0.8616,-0.8616,-0.8616,-0.8616,-0.8616,-0.8616,-0.8616,-0.8616,-0.8616,-0.8616,-0.8616,-0.8616,-0.8616,-0.8616,-0.8616,-0.8616,-0.8616,-0.8616,-0.8616,-0.8616,-0.8616,-0.8616,-0.8616,-0.8616,-0.8616,-0.8616,-0.8616,-0.8694,-0.8819,-0.8806,-0.8706,-0.8841,-0.9143,-0.943,-0.9635,-0.9803,-0.9884,-0.9884,-0.9879,-0.983,-0.9755,-0.9561,-0.9362,-0.9168,-0.8958,-0.8797,-0.8684,-0.8651,-0.8614,-0.8576,-0.8673,-0.8743,-0.8835,-0.8996,-0.8926,-0.8958,-0.9518,-1.0053,-1.0148,-1.0398,-1.2305,-1.2325,-1.263,-1.2703,-1.271,-1.2425,-1.2478,-1.2764,-1.2999,-1.318,-1.324,-1.3453,-1.3567,-1.3641,-1.3794,-1.3733,-1.3706,-1.3848,-1.3881,-1.362,-1.3975,-1.4082,-1.4088,-1.4088,-1.4088,-1.4088,-1.4088,-1.4088,-1.3997,-1.3688,-1.2741,-1.0722,-1.0587,-0.9589,-0.7981,-0.772,-0.7764,-0.7808,-0.7984,-0.812,-0.8204,-0.8384,-0.8524,-0.8524,-0.8476,-0.8432,-0.8292,-0.834,-0.8432,-0.8384,-0.8384,-0.848,-0.8524,-0.8616,-0.8616,-0.8616,-0.8616,-0.8616,-0.8616,-0.8616,-0.8616,-0.8616,-0.8616,-0.8616,-0.8616,-0.8616,-0.8616,-0.8616,-0.8616,-0.8616,-0.8616,-0.8616,-0.8616,-0.8616,-0.8616,-0.8616,-0.8616,-0.8616,-0.8616,-0.8616,-0.8616,-0.8612,-0.8588,-0.8715,-0.8589,-0.8409,-0.8482,-0.8841,-0.9165,-0.9453,-0.9673,-0.9825,-0.9884,-0.9879,-0.9841,-0.9793,-0.9706,-0.9497,-0.934,-0.9195,-0.9028,-0.8894,-0.8798,-0.8673,-0.8544,-0.8614,-0.8679,-0.8738,-0.877,-0.8835,-0.8861,-0.892,-0.9139,-0.9396,-0.9679,-1.2305,-1.2311,-1.2378,-1.2405,-1.2398,-1.2338,-1.2338,-1.2412,-1.2478,-1.2786,-1.316,-1.3227,-1.3267,-1.334,-1.3434,-1.3414,-1.3414,-1.356,-1.364,-1.3653,-1.3874,-1.3948,-1.4055,-1.4008,-1.4048,-1.4088,-1.4088,-1.3962,-1.3779,-1.3434,-1.2607,-1.0621,-1.0318,-0.9366,-0.7492,-0.7363,-0.7408,-0.7408,-0.7588,-0.7808,-0.794,-0.7984,-0.8076,-0.8076,-0.8076,-0.8076,-0.8028,-0.8032,-0.816,-0.8201,-0.8072,-0.8164,-0.8292,-0.8476,-0.8568,-0.8616,-0.8568,-0.8568,-0.8616,-0.8616,-0.8616,-0.8616,-0.8616,-0.8616,-0.8616,-0.8616,-0.8616,-0.8616,-0.8616,-0.8616,-0.8616,-0.8616,-0.8616,-0.8616,-0.8616,-0.8616,-0.8616,-0.8616,-0.8616,-0.8616,-0.8616,-0.8604,-0.8584,-0.851,-0.8337,-0.8351,-0.8388,-0.862,-0.8934,-0.9246,-0.9502,-0.9677,-0.9852,-0.9873,-0.9852,-0.9863,-0.975,-0.9663,-0.954,-0.9394,-0.9254,-0.906,-0.8906,-0.8651,-0.8549,-0.8582,-0.8582,-0.8582,-0.8608,-0.8673,-0.8705,-0.8732,-0.8797,-0.9022,-0.9192,-1.2305,-1.2305,-1.2305,-1.2305,-1.2305,-1.2305,-1.2305,-1.2305,-1.2305,-1.2485,-1.2799,-1.2933,-1.3038,-1.3053,-1.3133,-1.308,-1.3086,-1.328,-1.3287,-1.3353,-1.3567,-1.3627,-1.3728,-1.3848,-1.3861,-1.3901,-1.3909,-1.3779,-1.3499,-1.3222,-1.2351,-1.0486,-0.9966,-0.9144,-0.7356,-0.7095,-0.7095,-0.7139,-0.7279,-0.7411,-0.7628,-0.772,-0.7856,-0.79,-0.79,-0.7856,-0.7812,-0.7812,-0.7896,-0.794,-0.79,-0.794,-0.8072,-0.8168,-0.8296,-0.8384,-0.8432,-0.8476,-0.8568,-0.8616,-0.8616,-0.8616,-0.8616,-0.8616,-0.8616,-0.8616,-0.8616,-0.8616,-0.8616,-0.8616,-0.8616,-0.8616,-0.8616,-0.8616,-0.8616,-0.8616,-0.8616,-0.8616,-0.8616,-0.8616,-0.8616,-0.8612,-0.86,-0.8588,-0.8457,-0.8365,-0.8435,-0.8518,-0.8804,-0.9026,-0.9286,-0.9504,-0.9698,-0.9868,-0.9873,-0.9895,-0.9857,-0.9782,-0.9707,-0.9588,-0.9437,-0.919,-0.8998,-0.8775,-0.8614,-0.8517,-0.8517,-0.8528,-0.8517,-0.8576,-0.8576,-0.8544,-0.8614,-0.8711,-0.8856,-1.2305,-1.2305,-1.2305,-1.2305,-1.2268,-1.2268,-1.2231,-1.2231,-1.2224,-1.2261,-1.2341,-1.2605,-1.2717,-1.2831,-1.2933,-1.2878,-1.2891,-1.3033,-1.2991,-1.2998,-1.3146,-1.332,-1.3447,-1.3493,-1.3606,-1.3596,-1.3583,-1.3355,-1.3079,-1.2747,-1.188,-1.0269,-0.9444,-0.8838,-0.7621,-0.7095,-0.7095,-0.7095,-0.7143,-0.7139,-0.7319,-0.754,-0.7676,-0.7764,-0.7764,-0.7676,-0.7591,-0.7591,-0.7635,-0.7724,-0.7768,-0.7812,-0.7856,-0.7944,-0.8072,-0.8204,-0.8248,-0.8384,-0.8524,-0.8616,-0.8616,-0.8616,-0.8616,-0.8616,-0.8616,-0.8616,-0.8616,-0.8616,-0.8616,-0.8616,-0.8616,-0.8616,-0.8616,-0.8616,-0.8616,-0.8616,-0.8616,-0.8616,-0.8616,-0.8616,-0.8616,-0.8616,-0.8612,-0.8604,-0.8578,-0.849,-0.8476,-0.8598,-0.873,-0.8837,-0.9014,-0.9301,-0.9532,-0.9701,-0.9759,-0.9873,-0.9895,-0.9884,-0.9771,-0.9733,-0.962,-0.9389,-0.9168,-0.8947,-0.8797,-0.8651,-0.8571,-0.8565,-0.8549,-0.8517,-0.8517,-0.8517,-0.8549,-0.8614,-0.8608,-1.2305,-1.2305,-1.2305,-1.2187,-1.2083,-1.2083,-1.1966,-1.1861,-1.2009,-1.2083,-1.2133,-1.2264,-1.2392,-1.2392,-1.2425,-1.2438,-1.2576,-1.2726,-1.2844,-1.2851,-1.292,-1.3113,-1.3214,-1.322,-1.3418,-1.3365,-1.3252,-1.2991,-1.2764,-1.2231,-1.1322,-0.9966,-0.9017,-0.8321,-0.7401,-0.7095,-0.7095,-0.7095,-0.7095,-0.7095,-0.7095,-0.7231,-0.7231,-0.7275,-0.7275,-0.7231,-0.7231,-0.7231,-0.7367,-0.7547,-0.768,-0.768,-0.768,-0.7724,-0.7896,-0.8028,-0.8116,-0.8292,-0.8432,-0.8568,-0.8568,-0.8616,-0.8616,-0.8616,-0.8616,-0.8616,-0.8616,-0.8616,-0.8616,-0.8616,-0.8616,-0.8616,-0.8616,-0.8616,-0.8616,-0.8616,-0.8616,-0.8616,-0.8616,-0.8616,-0.8616,-0.8616,-0.8612,-0.8612,-0.8608,-0.8537,-0.8408,-0.8543,-0.8708,-0.8748,-0.8756,-0.9002,-0.9287,-0.9396,-0.9433,-0.9814,-0.9873,-0.9879,-0.9863,-0.9809,-0.9712,-0.9599,-0.9378,-0.9109,-0.8931,-0.8825,-0.8721,-0.8576,-0.8549,-0.8517,-0.8517,-0.8517,-0.8517,-0.8517,-0.8549]}]]